[[{"header":{"parameterUnit":"m.s-1","parameterCategory":1,"la1":31.0,"la2":29.5877,"lo1":-88.7671,"lo2":-86.6584,"dy":0.0162,"dx":0.0185,"nx":115,"ny":88,"refTime":"2025-03-14T06:00:00:Z","depth":0,"parameterNumber":2,"parameterNumberName":"U-component_of_WINDS"},"data":[0.0,0.0,0.0,0.0,0.0,0.0,0.0,0.0,0.0,0.0,0.0,0.0,0.0,0.0,0.0,0.0,0.0,0.0,0.0,0.0,0.0,0.0,0.0,0.0,0.0,0.0,0.0,0.0,0.0,0.0,0.0,0.0,0.0,0.0,0.0,0.0,0.0,0.0,0.0,0.0,0.0,0.0,0.0,0.0,0.0,0.0,0.0,0.0,0.0,0.0,0.0,0.0,0.0,0.0,0.0,0.0,0.0,0.0,0.0,0.0,0.0,0.0,0.0,0.0,0.0,0.0,0.0,0.0,0.0,0.0,0.0,0.0,0.0,0.0,0.0,0.0,0.0,0.0,0.0,0.0,0.0,0.0,0.0,0.0,0.0,0.0,0.0,0.0,0.0,0.0,0.0,0.0,0.0,0.0,0.0,0.0,0.0,0.0,0.0,0.0,0.0,0.0,0.0,0.0,0.0,0.0,0.0,0.0,0.0,0.0,0.0,0.0,0.0,0.0,0.0,0.0,0.0,0.0,0.0,0.0,0.0,0.0,0.0,0.0,0.0,0.0,0.0,0.0,0.0,0.0,0.0,0.0,0.0,0.0,0.0,0.0,0.0,0.0,0.0,0.0,0.0,0.0,0.0,0.0,0.0,0.0,0.0,0.0,0.0,0.0,0.0,0.0,0.0,0.0,0.0,0.0,0.0,0.0,0.0,0.0,0.0,0.0,0.0,0.0,0.0,0.0,0.0,0.0,0.0,0.0,0.0,0.0,0.0,0.0,0.0,0.0,0.0,0.0,0.0,0.0,0.0,0.0,0.0,0.0,0.0,0.0,0.0,0.0,0.0,0.0,0.0,0.0,0.0,0.0,0.0,0.0,0.0,0.0,0.0,0.0,0.0,0.0,0.0,0.0,0.0,0.0,0.0,0.0,0.0,0.0,0.0,0.0,0.0,0.0,0.0,0.0,0.0,0.0,0.0,0.0,0.0,0.0,0.0,0.0,0.0,0.0,0.0,0.0,0.0,0.0,0.0,0.0,0.0,0.0,0.0,0.0,0.0,0.0,0.0,0.0,0.0,0.0,0.0,0.0,0.0,0.0,0.0,0.0,0.0,0.0,0.0,0.0,0.0,0.0,0.0,0.0,0.0,0.0,0.0,0.0,0.0,0.0,0.0,0.0,0.0,0.0,0.0,0.0,0.0,0.0,0.0,0.0,0.0,0.0,0.0,0.0,0.0,0.0,0.0,0.0,0.0,0.0,0.0,0.0,0.0,0.0,0.0,0.0,0.0,0.0,0.0,0.0,0.0,0.0,0.0,0.0,0.0,0.0,0.0,0.0,0.0,0.0,0.0,0.0,0.0,0.0,0.0,0.0,0.0,0.0,0.0,0.0,0.0,0.0,0.0,0.0,0.0,0.0,0.0,0.0,0.0,0.0,0.0,0.0,0.0,0.0,0.0,0.0,0.0,0.0,0.0,0.0,0.0,0.0,0.0,0.0,0.0,0.0,0.0,0.0,0.0,0.0,0.0,0.0,0.0,0.0,0.0,0.0,0.0,0.0,0.0,0.0,0.0,0.0,0.0,0.0,0.0,0.0,0.0,0.0,0.0,0.0,0.0,0.0,0.0,0.0,0.0,0.0,0.0,0.0,0.0,0.0,0.0,0.0,0.0,0.0,0.0,0.0,0.0,0.0,0.0,0.0,0.0,0.0,0.0,0.0,0.0,0.0,0.0,0.0,0.0,0.0,0.0,0.0,0.0,0.0,0.0,0.0,0.0,0.0,0.0,0.0,0.0,0.0,0.0,0.0,0.0,0.0,0.0,0.0,0.0,0.0,0.0,0.0,0.0,0.0,0.0,0.0,0.0,0.0,0.0,0.0,0.0,0.0,0.0,0.0,0.0,0.0,0.0,0.0,0.0,0.0,0.0,0.0,0.0,0.0,0.0,0.0,0.0,0.0,0.0,0.0,0.0,0.0,0.0,0.0,0.0,0.0,0.0,0.0,0.0,0.0,0.0,0.0,0.0,0.0,0.0,0.0,0.0,0.0,0.0,0.0,0.0,0.0,0.0,0.0,0.0,0.0,0.0,0.0,0.0,0.0,0.0,0.0,0.0,0.0,0.0,0.0,0.0,0.0,0.0,0.0,0.0,0.0,0.0,0.0,0.0,0.0,0.0,0.0,0.0,0.0,0.0,0.0,0.0,0.0,0.0,0.0,0.0,0.0,0.0,0.0,0.0,0.0,0.0,0.0,0.0,0.0,0.0,0.0,0.0,0.0,0.0,0.0,0.0,0.0,0.0,0.0,0.0,0.0,0.0,0.0,0.0,0.0,0.0,0.0,0.0,0.0,0.0,0.0,0.0,0.0,0.0,0.0,0.0,0.0,0.0,0.0,0.0,0.0,0.0,0.0,0.0,0.0,0.0,0.0,0.0,0.0,0.0,0.0,0.0,0.0,0.0,0.0,0.0,0.0,0.0,0.0,0.0,0.0,0.0,0.0,0.0,0.0,0.0,0.0,0.0,0.0,0.0,0.0,0.0,0.0,0.0,0.0,0.0,0.0,0.0,0.0,0.0,0.0,0.0,0.0,0.0,0.0,0.0,0.0,0.0,0.0,0.0,0.0,0.0,0.0,0.0,0.0,0.0,0.0,0.0,0.0,0.0,0.0,0.0,0.0,0.0,0.0,0.0,0.0,0.0,0.0,0.0,0.0,0.0,0.0,0.0,0.0,0.0,0.0,0.0,0.0,0.0,0.0,0.0,0.0,0.0,0.0,0.0,0.0,0.0,0.0,0.0,0.0,0.0,0.0,0.0,0.0,0.0,0.0,0.0,0.0,0.0,0.0,0.0,0.0,0.0,0.0,0.0,0.0,0.0,0.0,0.0,0.0,0.0,0.0,0.0,0.0,0.0,0.0,0.0,0.0,0.0,0.0,0.0,0.0,0.0,0.0,0.0,0.0,0.0,0.0,0.0,0.0,0.0,0.0,0.0,0.0,0.0,0.0,0.0,0.0,0.0,0.0,0.0,0.0,0.0,0.0,0.0,0.0,0.0,0.0,0.0,0.0,0.0,0.0,0.0,0.0,0.0,0.0,0.0,0.0,0.0,0.0,0.0,0.0,0.0,0.0,0.0,0.0,0.0,0.0,0.0,0.0,0.0,0.0,0.0,0.0,0.0,0.0,0.0,0.0,0.0,0.0,0.0,0.0,0.0,0.0,0.0,0.0,0.0,0.0,0.0,0.0,0.0,0.0,0.0,0.0,0.0,0.0,0.0,0.0,0.0,0.0,0.0,0.0,0.0,0.0,0.0,0.0,0.0,0.0,0.0,0.0,0.0,0.0,0.0,0.0,0.0,0.0,0.0,0.0,0.0,0.0,0.0,0.0,0.0,0.0,0.0,0.0,0.0,0.0,0.0,0.0,0.0,0.0,0.0,0.0,0.0,0.0,0.0,0.0,0.0,0.0,0.0,0.0,0.0,0.0,0.0,0.0,0.0,0.0,0.0,0.0,0.0,0.0,0.0,0.0,0.0,0.0,0.0,0.0,0.0,0.0,0.0,0.0,0.0,0.0,0.0,0.0,0.0,0.0,0.0,0.0,0.0,0.0,0.0,0.0,0.0,0.0,0.0,0.0,0.0,0.0,0.0,0.0,0.0,0.0,0.0,0.0,0.0,0.0,0.0,0.0,0.0,0.0,0.0,0.0,0.0,0.0,0.0,0.0,0.0,0.0,0.0,0.0,0.0,0.0,0.0,0.0,0.0,0.0,0.0,0.0,0.0,0.0,0.0,0.0,0.0,0.0,0.0,0.0,0.0,0.0,0.0,0.0,0.0,0.0,0.0,0.0,0.0,0.0,0.0,0.0,0.0,0.0,0.0,0.0,0.0,0.0,0.0,0.0,0.0,0.0,0.0,0.0,0.0,0.0,0.0,0.0,0.0,0.0,0.0,0.0,0.0,0.0,0.0,0.0,0.0,0.0,0.0,0.0,0.0,0.0,0.0,0.0,0.0,0.0,0.0,0.0,0.0,0.0,0.0,0.0,0.0,0.0,0.0,0.0,0.0,0.0,0.0,0.0,0.0,0.0,0.0,0.0,0.0,0.0,0.0,0.0,0.0,0.0,0.0,0.0,0.0,0.0,0.0,0.0,0.0,0.0,0.0,0.0,0.0,0.0,0.0,0.0,0.0,0.0,0.0,0.0,0.0,0.0,0.0,0.0,0.0,0.0,0.0,0.0,0.0,0.0,0.0,0.0,0.0,0.0,0.0,0.0,0.0,0.0,0.0,0.0,3.7222,0.0,0.0,0.0,0.0,0.0,0.0,0.0,0.0,0.0,0.0,0.0,0.0,0.0,0.0,0.0,0.0,0.0,0.0,0.0,0.0,0.0,0.0,0.0,0.0,0.0,0.0,0.0,0.0,0.0,0.0,0.0,0.0,0.0,0.0,0.0,0.0,0.0,0.0,0.0,0.0,0.0,0.0,0.0,0.0,0.0,0.0,0.0,0.0,0.0,0.0,0.0,0.0,0.0,0.0,0.0,0.0,0.0,0.0,0.0,0.0,0.0,0.0,0.0,0.0,0.0,0.0,0.0,0.0,0.0,0.0,0.0,0.0,0.0,0.0,0.0,0.0,0.0,0.0,0.0,0.0,0.0,0.0,0.0,0.0,0.0,0.0,0.0,0.0,0.0,0.0,0.0,0.0,0.0,0.0,0.0,0.0,0.0,0.0,0.0,0.0,0.0,0.0,0.0,0.0,0.0,0.0,0.0,0.0,0.0,0.0,4.0114,4.0461,3.9667,3.8789,3.7948,0.0,0.0,0.0,0.0,0.0,0.0,0.0,0.0,0.0,0.0,0.0,0.0,0.0,0.0,0.0,0.0,0.0,0.0,0.0,0.0,0.0,0.0,0.0,0.0,0.0,0.0,0.0,0.0,0.0,0.0,0.0,0.0,0.0,0.0,0.0,0.0,0.0,0.0,0.0,0.0,0.0,0.0,0.0,0.0,0.0,0.0,0.0,0.0,0.0,0.0,0.0,0.0,0.0,0.0,0.0,0.0,0.0,0.0,0.0,0.0,0.0,0.0,0.0,0.0,0.0,0.0,0.0,0.0,0.0,0.0,0.0,0.0,0.0,0.0,0.0,0.0,0.0,0.0,0.0,0.0,0.0,0.0,0.0,0.0,0.0,0.0,0.0,0.0,0.0,0.0,0.0,0.0,0.0,0.0,0.0,0.0,0.0,0.0,0.0,0.0,0.0,0.0,0.0,0.0,0.0,0.0,0.0,0.0,0.0,0.0,0.0,0.0,4.0461,3.9589,3.8516,0.0,0.0,0.0,0.0,0.0,0.0,0.0,0.0,0.0,0.0,0.0,0.0,0.0,0.0,0.0,0.0,0.0,0.0,0.0,0.0,0.0,0.0,0.0,0.0,0.0,0.0,0.0,0.0,0.0,0.0,0.0,0.0,0.0,0.0,0.0,0.0,0.0,0.0,0.0,0.0,0.0,0.0,0.0,0.0,0.0,0.0,0.0,0.0,0.0,0.0,0.0,0.0,0.0,0.0,0.0,0.0,0.0,0.0,0.0,0.0,0.0,0.0,0.0,0.0,0.0,0.0,0.0,0.0,0.0,0.0,0.0,0.0,0.0,0.0,0.0,0.0,0.0,0.0,0.0,0.0,0.0,0.0,0.0,0.0,0.0,0.0,0.0,0.0,0.0,0.0,0.0,0.0,0.0,0.0,0.0,0.0,0.0,0.0,0.0,0.0,0.0,0.0,0.0,0.0,0.0,0.0,0.0,0.0,0.0,0.0,4.1104,4.1094,4.1016,0.0,3.8541,0.0,0.0,0.0,0.0,0.0,0.0,0.0,0.0,0.0,0.0,0.0,0.0,0.0,0.0,0.0,0.0,0.0,0.0,0.0,0.0,0.0,0.0,0.0,0.0,0.0,0.0,0.0,0.0,0.0,0.0,0.0,0.0,0.0,0.0,0.0,0.0,0.0,0.0,0.0,0.0,0.0,0.0,0.0,0.0,0.0,0.0,0.0,0.0,0.0,0.0,0.0,0.0,0.0,0.0,0.0,0.0,0.0,0.0,0.0,0.0,0.0,0.0,0.0,0.0,0.0,0.0,0.0,0.0,0.0,0.0,0.0,0.0,0.0,0.0,0.0,0.0,0.0,0.0,0.0,0.0,0.0,0.0,0.0,0.0,0.0,0.0,0.0,0.0,0.0,0.0,0.0,0.0,0.0,0.0,0.0,0.0,0.0,0.0,0.0,0.0,0.0,0.0,0.0,0.0,0.0,0.0,0.0,0.0,0.0,0.0,4.1108,4.1104,4.059,3.9728,0.0,0.0,0.0,0.0,0.0,0.0,0.0,0.0,0.0,0.0,0.0,0.0,0.0,0.0,0.0,0.0,0.0,0.0,0.0,0.0,0.0,0.0,0.0,0.0,0.0,0.0,0.0,0.0,0.0,0.0,0.0,0.0,0.0,0.0,0.0,0.0,0.0,0.0,0.0,0.0,0.0,0.0,0.0,0.0,0.0,0.0,0.0,0.0,0.0,0.0,0.0,0.0,0.0,0.0,0.0,0.0,0.0,0.0,0.0,0.0,0.0,0.0,0.0,0.0,0.0,0.0,0.0,0.0,0.0,0.0,0.0,0.0,0.0,0.0,0.0,0.0,0.0,0.0,0.0,0.0,0.0,0.0,0.0,0.0,0.0,0.0,0.0,0.0,0.0,0.0,0.0,0.0,0.0,0.0,0.0,0.0,0.0,0.0,0.0,0.0,0.0,0.0,0.0,0.0,0.0,0.0,0.0,0.0,0.0,0.0,4.1108,0.0,4.1069,4.0242,3.9419,3.8561,0.0,0.0,0.0,0.0,0.0,0.0,0.0,0.0,0.0,0.0,0.0,0.0,0.0,0.0,0.0,0.0,0.0,0.0,0.0,0.0,0.0,0.0,0.0,0.0,0.0,0.0,0.0,0.0,0.0,0.0,0.0,0.0,0.0,0.0,0.0,0.0,0.0,0.0,0.0,0.0,0.0,0.0,0.0,0.0,0.0,0.0,0.0,0.0,0.0,0.0,0.0,0.0,0.0,0.0,0.0,0.0,0.0,0.0,0.0,0.0,0.0,0.0,0.0,0.0,0.0,0.0,0.0,0.0,0.0,0.0,0.0,0.0,0.0,0.0,0.0,0.0,0.0,0.0,0.0,0.0,0.0,0.0,0.0,0.0,0.0,0.0,0.0,0.0,0.0,0.0,0.0,0.0,0.0,0.0,0.0,0.0,0.0,0.0,0.0,0.0,0.0,0.0,0.0,0.0,0.0,0.0,0.0,0.0,0.0,4.1108,4.1108,4.1069,4.0288,3.9429,0.0,0.0,0.0,0.0,0.0,0.0,0.0,0.0,0.0,0.0,0.0,0.0,0.0,0.0,0.0,0.0,0.0,0.0,0.0,0.0,0.0,0.0,0.0,0.0,0.0,0.0,0.0,0.0,0.0,0.0,0.0,0.0,0.0,0.0,0.0,0.0,0.0,0.0,0.0,0.0,0.0,0.0,0.0,0.0,0.0,0.0,0.0,0.0,0.0,0.0,0.0,0.0,0.0,0.0,0.0,0.0,0.0,0.0,0.0,0.0,0.0,0.0,0.0,0.0,0.0,0.0,0.0,0.0,0.0,0.0,0.0,0.0,0.0,0.0,0.0,0.0,0.0,0.0,0.0,0.0,0.0,0.0,0.0,0.0,0.0,0.0,0.0,0.0,0.0,0.0,0.0,0.0,0.0,0.0,0.0,0.0,0.0,0.0,0.0,0.0,0.0,0.0,0.0,0.0,0.0,0.0,0.0,0.0,0.0,4.0991,4.1108,4.1108,4.1069,4.0795,3.9976,0.0,0.0,0.0,0.0,0.0,0.0,0.0,0.0,0.0,0.0,0.0,0.0,0.0,0.0,0.0,0.0,0.0,0.0,0.0,0.0,0.0,0.0,0.0,0.0,0.0,0.0,0.0,0.0,0.0,0.0,0.0,0.0,0.0,0.0,0.0,0.0,0.0,0.0,0.0,0.0,0.0,0.0,0.0,0.0,0.0,0.0,0.0,0.0,0.0,0.0,0.0,0.0,0.0,0.0,0.0,0.0,0.0,0.0,0.0,0.0,0.0,0.0,0.0,0.0,0.0,0.0,0.0,0.0,0.0,0.0,0.0,0.0,0.0,0.0,0.0,0.0,0.0,0.0,0.0,0.0,0.0,0.0,0.0,0.0,0.0,0.0,0.0,0.0,0.0,0.0,0.0,0.0,0.0,0.0,0.0,0.0,0.0,0.0,0.0,0.0,0.0,0.0,0.0,0.0,0.0,0.0,0.0,0.0,0.0,4.103,0.0,4.1108,0.0,4.1108,4.0327,0.0,0.0,0.0,0.0,0.0,0.0,0.0,0.0,0.0,0.0,0.0,0.0,0.0,0.0,0.0,0.0,0.0,0.0,0.0,0.0,0.0,0.0,0.0,0.0,0.0,0.0,0.0,0.0,0.0,0.0,0.0,0.0,0.0,0.0,0.0,0.0,0.0,0.0,0.0,0.0,0.0,0.0,0.0,0.0,0.0,0.0,0.0,0.0,0.0,0.0,0.0,0.0,0.0,0.0,0.0,0.0,0.0,0.0,0.0,0.0,0.0,0.0,0.0,0.0,0.0,0.0,0.0,0.0,0.0,0.0,0.0,0.0,0.0,0.0,0.0,0.0,0.0,0.0,0.0,0.0,0.0,0.0,0.0,0.0,0.0,0.0,0.0,0.0,0.0,0.0,0.0,0.0,0.0,0.0,0.0,0.0,0.0,0.0,0.0,0.0,0.0,0.0,0.0,0.0,0.0,0.0,0.0,0.0,3.9468,4.103,4.1108,4.1108,4.1108,4.1108,4.0288,0.0,0.0,0.0,0.0,0.0,0.0,0.0,0.0,0.0,0.0,0.0,0.0,0.0,0.0,0.0,0.0,0.0,0.0,0.0,0.0,0.0,0.0,0.0,0.0,0.0,0.0,0.0,0.0,0.0,0.0,0.0,0.0,0.0,0.0,0.0,0.0,0.0,0.0,0.0,0.0,0.0,0.0,0.0,0.0,0.0,0.0,0.0,0.0,0.0,0.0,0.0,0.0,0.0,0.0,0.0,0.0,0.0,0.0,0.0,0.0,0.0,0.0,0.0,0.0,0.0,0.0,0.0,0.0,0.0,0.0,0.0,0.0,0.0,0.0,0.0,0.0,0.0,0.0,0.0,0.0,0.0,0.0,0.0,0.0,0.0,0.0,0.0,0.0,0.0,0.0,0.0,0.0,0.0,0.0,0.0,0.0,0.0,0.0,0.0,0.0,0.0,0.0,0.0,0.0,0.0,0.0,0.0,0.0,0.0,4.1069,4.1108,4.1108,4.1108,4.1108,4.0327,0.0,0.0,0.0,0.0,0.0,0.0,0.0,0.0,0.0,0.0,0.0,0.0,0.0,0.0,0.0,0.0,0.0,0.0,0.0,0.0,0.0,0.0,0.0,0.0,0.0,0.0,0.0,0.0,0.0,0.0,0.0,0.0,0.0,0.0,0.0,0.0,0.0,0.0,0.0,0.0,0.0,0.0,0.0,0.0,0.0,0.0,0.0,0.0,0.0,0.0,0.0,0.0,0.0,0.0,0.0,0.0,0.0,0.0,0.0,0.0,0.0,0.0,0.0,0.0,0.0,0.0,0.0,0.0,0.0,0.0,0.0,0.0,0.0,0.0,0.0,0.0,0.0,0.0,0.0,0.0,0.0,0.0,0.0,0.0,0.0,0.0,0.0,0.0,0.0,0.0,0.0,0.0,0.0,0.0,0.0,0.0,0.0,0.0,0.0,0.0,0.0,0.0,0.0,0.0,0.0,0.0,0.0,0.0,0.0,4.1576,4.1576,4.1732,4.2084,4.1771,4.0912,3.9585,0.0,0.0,0.0,0.0,0.0,0.0,0.0,0.0,0.0,0.0,0.0,0.0,0.0,0.0,0.0,0.0,0.0,0.0,0.0,0.0,0.0,0.0,0.0,0.0,0.0,0.0,0.0,0.0,0.0,0.0,0.0,0.0,0.0,0.0,0.0,0.0,0.0,0.0,0.0,0.0,0.0,0.0,0.0,0.0,0.0,0.0,0.0,0.0,0.0,0.0,0.0,0.0,0.0,0.0,0.0,0.0,0.0,0.0,0.0,0.0,0.0,0.0,0.0,0.0,0.0,0.0,0.0,0.0,0.0,0.0,0.0,0.0,0.0,0.0,0.0,0.0,0.0,0.0,0.0,0.0,0.0,0.0,0.0,0.0,0.0,0.0,0.0,0.0,0.0,0.0,0.0,0.0,0.0,0.0,0.0,0.0,0.0,0.0,0.0,0.0,0.0,0.0,0.0,0.0,0.0,0.0,0.0,0.0,4.2513,4.2552,4.2903,4.3645,4.2825,4.2006,0.0,0.0,0.0,0.0,0.0,0.0,0.0,0.0,0.0,0.0,0.0,0.0,0.0,0.0,0.0,0.0,0.0,0.0,0.0,0.0,0.0,0.0,0.0,0.0,0.0,0.0,0.0,0.0,0.0,0.0,0.0,0.0,0.0,0.0,0.0,0.0,0.0,0.0,0.0,0.0,0.0,0.0,0.0,0.0,0.0,0.0,0.0,0.0,0.0,0.0,0.0,0.0,0.0,0.0,0.0,0.0,0.0,0.0,0.0,0.0,0.0,0.0,0.0,0.0,0.0,0.0,0.0,0.0,0.0,0.0,0.0,0.0,0.0,0.0,0.0,0.0,0.0,0.0,0.0,0.0,0.0,0.0,0.0,0.0,0.0,0.0,0.0,0.0,0.0,0.0,0.0,0.0,0.0,0.0,0.0,0.0,0.0,0.0,0.0,0.0,0.0,0.0,0.0,0.0,0.0,0.0,0.0,0.0,0.0,4.4231,4.4309,4.4114,4.3723,4.2864,4.2006,0.0,0.0,0.0,0.0,0.0,0.0,0.0,0.0,0.0,0.0,0.0,0.0,0.0,0.0,0.0,0.0,0.0,0.0,0.0,0.0,0.0,0.0,0.0,0.0,0.0,0.0,0.0,0.0,0.0,0.0,0.0,0.0,0.0,0.0,0.0,0.0,0.0,0.0,0.0,0.0,0.0,0.0,0.0,0.0,0.0,0.0,0.0,0.0,0.0,0.0,0.0,0.0,0.0,0.0,0.0,0.0,0.0,0.0,0.0,0.0,0.0,0.0,0.0,0.0,0.0,0.0,0.0,0.0,0.0,0.0,0.0,0.0,0.0,0.0,0.0,0.0,0.0,0.0,0.0,0.0,0.0,0.0,0.0,0.0,0.0,0.0,0.0,0.0,0.0,0.0,0.0,0.0,0.0,0.0,0.0,0.0,0.0,0.0,0.0,0.0,0.0,0.0,0.0,0.0,0.0,0.0,0.0,0.0,4.3801,4.5519,4.5909,4.587,4.5327,4.4153,4.3099,0.0,0.0,0.0,0.0,0.0,0.0,0.0,0.0,0.0,0.0,0.0,0.0,0.0,0.0,0.0,0.0,0.0,0.0,0.0,0.0,0.0,0.0,0.0,0.0,0.0,0.0,0.0,0.0,0.0,0.0,0.0,0.0,0.0,0.0,0.0,0.0,0.0,0.0,0.0,0.0,0.0,0.0,0.0,0.0,0.0,0.0,0.0,0.0,0.0,0.0,0.0,0.0,0.0,0.0,0.0,0.0,0.0,0.0,0.0,0.0,0.0,0.0,0.0,0.0,0.0,0.0,0.0,0.0,0.0,0.0,0.0,0.0,0.0,0.0,0.0,0.0,0.0,0.0,0.0,0.0,0.0,0.0,0.0,0.0,0.0,0.0,0.0,0.0,0.0,0.0,0.0,0.0,0.0,0.0,0.0,0.0,0.0,0.0,0.0,0.0,0.0,0.0,0.0,0.0,0.0,0.0,0.0,0.0,4.4781,4.6417,4.7276,4.7705,4.7549,4.5987,4.466,0.0,0.0,0.0,0.0,0.0,0.0,0.0,0.0,0.0,0.0,0.0,0.0,0.0,0.0,0.0,0.0,0.0,0.0,0.0,0.0,0.0,0.0,0.0,0.0,0.0,0.0,0.0,0.0,0.0,0.0,0.0,0.0,0.0,0.0,0.0,0.0,0.0,0.0,0.0,0.0,0.0,0.0,0.0,0.0,0.0,0.0,0.0,0.0,0.0,0.0,0.0,0.0,0.0,0.0,0.0,0.0,0.0,0.0,0.0,0.0,0.0,0.0,0.0,0.0,0.0,0.0,0.0,0.0,0.0,0.0,0.0,0.0,0.0,0.0,0.0,0.0,0.0,0.0,0.0,0.0,0.0,0.0,0.0,0.0,0.0,0.0,0.0,0.0,0.0,0.0,0.0,0.0,0.0,0.0,0.0,0.0,0.0,0.0,0.0,0.0,0.0,0.0,0.0,0.0,0.0,0.0,0.0,0.0,4.6276,4.7315,4.8174,4.8291,4.7588,4.6573,4.5285,0.0,0.0,0.0,0.0,0.0,0.0,0.0,0.0,0.0,0.0,0.0,0.0,0.0,0.0,0.0,0.0,0.0,0.0,0.0,0.0,0.0,0.0,0.0,0.0,0.0,0.0,0.0,0.0,0.0,0.0,0.0,0.0,0.0,0.0,0.0,0.0,0.0,0.0,0.0,0.0,0.0,0.0,0.0,0.0,0.0,0.0,0.0,0.0,4.5547,0.0,0.0,0.0,0.0,0.0,0.0,0.0,0.0,0.0,0.0,0.0,0.0,0.0,0.0,0.0,0.0,0.0,0.0,0.0,0.0,0.0,0.0,0.0,0.0,0.0,0.0,0.0,0.0,0.0,0.0,0.0,0.0,0.0,0.0,0.0,0.0,0.0,0.0,0.0,0.0,0.0,0.0,0.0,0.0,0.0,0.0,0.0,0.0,0.0,0.0,0.0,0.0,0.0,0.0,0.0,0.0,0.0,0.0,0.0,4.6905,4.8184,4.9036,4.9072,4.8209,4.7705,4.63,0.0,0.0,0.0,0.0,0.0,0.0,0.0,0.0,0.0,0.0,0.0,0.0,0.0,0.0,0.0,0.0,0.0,0.0,0.0,0.0,0.0,0.0,0.0,0.0,0.0,0.0,0.0,0.0,0.0,0.0,0.0,0.0,0.0,0.0,0.0,0.0,0.0,0.0,0.0,0.0,0.0,0.0,0.0,0.0,0.0,0.0,0.0,0.0,0.0,0.0,0.0,0.0,0.0,0.0,0.0,0.0,0.0,0.0,0.0,0.0,0.0,0.0,0.0,0.0,0.0,0.0,0.0,0.0,0.0,0.0,0.0,0.0,0.0,0.0,0.0,0.0,0.0,0.0,0.0,0.0,0.0,0.0,0.0,0.0,0.0,0.0,0.0,0.0,0.0,0.0,0.0,0.0,0.0,0.0,0.0,0.0,0.0,0.0,0.0,0.0,0.0,0.0,0.0,0.0,0.0,0.0,0.0,4.5738,4.7455,4.9053,4.9902,4.9813,4.8833,4.8798,4.7198,4.3879,0.0,0.0,0.0,0.0,0.0,0.0,0.0,0.0,0.0,0.0,0.0,0.0,0.0,0.0,0.0,0.0,0.0,0.0,0.0,0.0,0.0,0.0,0.0,0.0,0.0,0.0,0.0,0.0,0.0,0.0,0.0,0.0,0.0,0.0,0.0,0.0,0.0,0.0,4.0943,4.3782,0.0,0.0,0.0,0.0,0.0,0.0,0.0,0.0,4.5893,0.0,0.0,0.0,0.0,0.0,0.0,0.0,0.0,0.0,0.0,0.0,0.0,0.0,0.0,0.0,0.0,0.0,0.0,0.0,0.0,0.0,0.0,0.0,0.0,0.0,0.0,0.0,0.0,0.0,0.0,0.0,0.0,0.0,0.0,0.0,0.0,0.0,0.0,0.0,0.0,0.0,0.0,0.0,0.0,0.0,0.0,0.0,0.0,0.0,0.0,0.0,0.0,0.0,0.0,0.0,0.0,4.4799,4.7225,4.8944,4.9875,5.0722,5.0438,4.8873,4.8798,4.7198,4.3918,0.0,0.0,0.0,0.0,0.0,0.0,0.0,0.0,0.0,0.0,0.0,0.0,0.0,0.0,0.0,0.0,0.0,0.0,0.0,0.0,0.0,0.0,0.0,0.0,0.0,0.0,0.0,0.0,0.0,0.0,0.0,0.0,0.0,0.0,0.0,0.0,0.0,0.0,0.0,4.5432,4.7009,0.0,0.0,0.0,0.0,0.0,0.0,0.0,0.0,4.6663,0.0,0.0,0.0,0.0,0.0,0.0,0.0,0.0,0.0,0.0,0.0,0.0,0.0,0.0,0.0,0.0,0.0,0.0,0.0,0.0,0.0,0.0,0.0,0.0,0.0,0.0,0.0,0.0,0.0,0.0,0.0,0.0,0.0,0.0,0.0,0.0,0.0,0.0,0.0,0.0,0.0,0.0,0.0,0.0,0.0,0.0,0.0,0.0,0.0,0.0,0.0,0.0,0.0,0.0,0.0,4.5104,4.7577,4.9296,5.0109,5.0956,5.0594,4.8873,4.8798,4.7198,0.0,0.0,0.0,0.0,0.0,0.0,0.0,0.0,0.0,0.0,0.0,0.0,0.0,0.0,0.0,0.0,0.0,0.0,0.0,0.0,0.0,0.0,0.0,0.0,0.0,0.0,0.0,0.0,0.0,0.0,0.0,0.0,0.0,0.0,0.0,0.0,0.0,0.0,0.0,0.0,4.6163,4.7817,4.8663,0.0,0.0,0.0,0.0,0.0,0.0,4.7778,4.7394,0.0,0.0,0.0,0.0,0.0,0.0,0.0,0.0,0.0,0.0,0.0,0.0,0.0,0.0,0.0,0.0,0.0,0.0,0.0,0.0,0.0,0.0,0.0,0.0,0.0,0.0,0.0,0.0,0.0,0.0,0.0,0.0,0.0,0.0,0.0,0.0,0.0,0.0,0.0,0.0,0.0,0.0,0.0,0.0,0.0,0.0,0.0,0.0,0.0,0.0,0.0,0.0,0.0,0.0,0.0,4.5291,4.7653,4.9374,5.0344,5.1034,5.0555,4.8873,4.8798,4.7198,0.0,0.0,0.0,0.0,0.0,0.0,0.0,0.0,0.0,0.0,0.0,0.0,0.0,0.0,0.0,0.0,0.0,0.0,0.0,0.0,0.0,0.0,0.0,0.0,0.0,0.0,0.0,0.0,0.0,0.0,0.0,0.0,0.0,0.0,0.0,0.0,0.0,0.0,0.0,0.0,0.0,4.8471,4.951,4.9663,0.0,0.0,0.0,0.0,4.8856,4.874,0.0,0.0,0.0,0.0,0.0,0.0,0.0,0.0,0.0,0.0,0.0,0.0,0.0,0.0,0.0,0.0,0.0,0.0,0.0,0.0,0.0,0.0,0.0,0.0,0.0,0.0,0.0,0.0,0.0,0.0,0.0,0.0,0.0,0.0,0.0,0.0,0.0,0.0,0.0,0.0,0.0,0.0,0.0,0.0,0.0,0.0,0.0,0.0,0.0,0.0,0.0,0.0,0.0,0.0,0.0,0.0,4.6153,4.7967,4.9647,5.1164,5.1346,5.0555,4.8873,4.8798,4.7198,0.0,0.0,0.0,0.0,0.0,0.0,0.0,0.0,0.0,0.0,0.0,0.0,0.0,0.0,0.0,0.0,0.0,0.0,0.0,0.0,0.0,0.0,0.0,0.0,0.0,0.0,0.0,0.0,0.0,0.0,0.0,0.0,0.0,0.0,0.0,0.0,0.0,0.0,0.0,0.0,0.0,4.8702,5.0317,5.0548,5.0818,0.0,0.0,5.1471,5.1471,5.0856,0.0,0.0,0.0,0.0,0.0,0.0,0.0,0.0,0.0,0.0,0.0,0.0,0.0,0.0,0.0,0.0,0.0,0.0,0.0,0.0,0.0,0.0,0.0,0.0,0.0,0.0,0.0,0.0,0.0,0.0,0.0,0.0,0.0,0.0,0.0,0.0,0.0,0.0,0.0,0.0,0.0,0.0,0.0,0.0,0.0,0.0,0.0,0.0,0.0,0.0,0.0,0.0,0.0,0.0,0.0,4.456,4.6285,4.8007,4.9726,5.1326,5.1389,5.0555,4.8833,4.8798,4.7198,0.0,0.0,0.0,0.0,0.0,0.0,0.0,0.0,0.0,0.0,0.0,0.0,0.0,0.0,0.0,0.0,0.0,0.0,0.0,0.0,0.0,0.0,0.0,0.0,0.0,0.0,0.0,0.0,0.0,0.0,0.0,0.0,0.0,0.0,0.0,0.0,0.0,0.0,0.0,0.0,0.0,0.0,5.1222,5.1876,0.0,0.0,0.0,5.2664,5.2626,0.0,0.0,0.0,0.0,0.0,0.0,0.0,0.0,0.0,0.0,0.0,0.0,0.0,0.0,0.0,0.0,0.0,0.0,0.0,0.0,0.0,0.0,0.0,0.0,0.0,0.0,0.0,0.0,0.0,0.0,0.0,0.0,0.0,0.0,0.0,0.0,0.0,0.0,0.0,0.0,0.0,0.0,0.0,0.0,0.0,0.0,0.0,0.0,0.0,0.0,0.0,0.0,0.0,0.0,0.0,0.0,0.0,4.6289,4.8008,4.9726,5.1328,5.1396,5.0559,4.8873,4.8798,0.0,0.0,0.0,0.0,0.0,0.0,0.0,0.0,0.0,0.0,0.0,0.0,0.0,0.0,0.0,0.0,0.0,0.0,0.0,0.0,0.0,0.0,0.0,0.0,0.0,0.0,0.0,3.4528,0.0,0.0,0.0,0.0,0.0,0.0,0.0,0.0,0.0,0.0,0.0,0.0,0.0,0.0,5.037,5.178,5.2743,5.334,0.0,0.0,5.3549,5.351,5.2818,5.1895,0.0,0.0,0.0,0.0,0.0,0.0,0.0,0.0,0.0,0.0,0.0,0.0,0.0,0.0,0.0,0.0,0.0,0.0,0.0,0.0,0.0,0.0,0.0,0.0,0.0,0.0,0.0,0.0,0.0,0.0,0.0,0.0,0.0,0.0,0.0,0.0,0.0,0.0,0.0,0.0,0.0,0.0,0.0,0.0,0.0,0.0,0.0,0.0,0.0,0.0,0.0,0.0,0.0,0.0,0.0,4.6289,4.8008,4.9726,5.1328,5.1402,5.061,4.8951,4.8837,4.7198,0.0,0.0,0.0,0.0,0.0,0.0,0.0,0.0,0.0,0.0,0.0,0.0,0.0,0.0,0.0,0.0,0.0,0.0,0.0,0.0,0.0,0.0,0.0,0.0,0.0,0.0,0.0,0.0,0.0,0.0,0.0,0.0,0.0,0.0,0.0,0.0,0.0,0.0,0.0,0.0,0.0,5.1026,5.1857,5.2743,5.3571,0.0,0.0,5.4395,5.4434,5.3703,5.2587,5.0971,0.0,0.0,0.0,0.0,0.0,0.0,0.0,0.0,0.0,0.0,0.0,0.0,0.0,0.0,0.0,0.0,0.0,0.0,0.0,0.0,0.0,0.0,0.0,0.0,0.0,0.0,0.0,0.0,0.0,0.0,0.0,0.0,0.0,0.0,0.0,0.0,0.0,0.0,0.0,0.0,0.0,0.0,0.0,0.0,0.0,0.0,0.0,0.0,0.0,0.0,0.0,0.0,0.0,4.4803,4.707,4.8281,4.9726,5.1328,5.1403,5.061,4.8951,4.8837,4.7198,0.0,0.0,0.0,0.0,0.0,0.0,0.0,0.0,0.0,0.0,0.0,0.0,0.0,0.0,0.0,0.0,0.0,0.0,0.0,0.0,0.0,0.0,0.0,0.0,0.0,0.0,0.0,0.0,3.7529,3.8197,3.8996,0.0,0.0,0.0,0.0,0.0,0.0,0.0,0.0,0.0,0.0,5.2198,5.3469,5.4823,0.0,0.0,5.6071,5.6011,5.6011,5.4895,5.3587,5.2433,5.1125,0.0,0.0,0.0,0.0,0.0,0.0,0.0,0.0,0.0,0.0,0.0,0.0,0.0,0.0,0.0,0.0,0.0,0.0,0.0,0.0,0.0,0.0,0.0,0.0,0.0,0.0,0.0,0.0,0.0,0.0,0.0,0.0,0.0,0.0,0.0,0.0,0.0,0.0,0.0,0.0,0.0,0.0,0.0,0.0,0.0,0.0,0.0,0.0,0.0,0.0,0.0,0.0,4.5,4.7578,4.8476,4.9726,5.1367,5.1403,5.0727,4.9341,4.8954,4.7432,0.0,0.0,0.0,0.0,0.0,0.0,0.0,0.0,0.0,0.0,0.0,0.0,0.0,0.0,0.0,0.0,0.0,0.0,0.0,0.0,0.0,0.0,0.0,0.0,0.0,0.0,0.0,0.0,3.8688,3.9116,3.9936,0.0,0.0,0.0,0.0,0.0,0.0,0.0,0.0,0.0,0.0,5.331,5.4901,5.6304,5.7313,5.7505,5.7251,5.7054,5.7054,5.5609,5.428,5.3703,0.0,0.0,0.0,0.0,0.0,0.0,0.0,0.0,0.0,0.0,0.0,0.0,0.0,0.0,0.0,0.0,0.0,0.0,0.0,0.0,0.0,0.0,0.0,0.0,0.0,0.0,0.0,0.0,0.0,0.0,3.5976,0.0,0.0,0.0,0.0,0.0,0.0,0.0,0.0,0.0,0.0,0.0,0.0,0.0,0.0,0.0,0.0,0.0,0.0,0.0,0.0,0.0,0.0,4.5,4.7578,4.8476,4.9726,5.1328,5.1403,5.0962,5.0087,4.9267,4.7978,4.6222,0.0,0.0,0.0,0.0,0.0,0.0,0.0,0.0,0.0,0.0,0.0,0.0,0.0,0.0,0.0,0.0,0.0,0.0,0.0,0.0,0.0,0.0,0.0,0.0,0.0,0.0,3.8544,3.9208,4.0003,0.0,0.0,0.0,0.0,0.0,0.0,0.0,0.0,0.0,0.0,5.2523,5.4167,5.5845,5.6798,5.7619,5.8336,5.7718,5.7135,5.7135,5.5668,5.4511,0.0,0.0,0.0,0.0,0.0,0.0,0.0,0.0,0.0,0.0,0.0,0.0,0.0,0.0,0.0,0.0,0.0,0.0,0.0,0.0,0.0,0.0,0.0,0.0,0.0,0.0,0.0,3.8362,3.8089,0.0,0.0,0.0,0.0,0.0,0.0,0.0,0.0,0.0,0.0,0.0,4.2422,4.2734,0.0,0.0,0.0,0.0,0.0,0.0,0.0,0.0,0.0,0.0,0.0,0.0,4.5859,4.8359,4.9297,5.0271,5.1355,5.1396,5.1001,5.0126,4.9267,4.7744,4.5519,0.0,0.0,0.0,0.0,0.0,0.0,0.0,0.0,0.0,0.0,0.0,0.0,0.0,0.0,0.0,0.0,0.0,0.0,0.0,0.0,0.0,0.0,0.0,0.0,0.0,3.9598,0.0,0.0,0.0,0.0,0.0,0.0,0.0,0.0,0.0,0.0,0.0,5.0422,5.1862,5.3535,5.5202,5.6809,5.7722,5.8496,0.0,0.0,0.0,0.0,0.0,0.0,0.0,0.0,0.0,0.0,0.0,0.0,0.0,0.0,5.3895,5.2241,5.1933,5.1818,5.1548,0.0,0.0,0.0,0.0,0.0,0.0,0.0,0.0,0.0,0.0,0.0,0.0,0.0,0.0,3.9374,0.0,3.9091,0.0,0.0,0.0,0.0,0.0,0.0,0.0,0.0,4.2578,4.3164,4.3711,4.3711,4.3711,0.0,4.3711,4.2851,0.0,0.0,0.0,0.0,0.0,0.0,0.0,0.0,4.6562,4.8828,4.9726,5.0583,5.134,5.1385,5.1112,5.0555,4.9423,4.7744,4.5519,4.3528,4.2045,0.0,0.0,0.0,0.0,0.0,0.0,0.0,0.0,0.0,0.0,0.0,0.0,0.0,0.0,0.0,0.0,0.0,0.0,0.0,0.0,0.0,0.0,0.0,4.0473,0.0,0.0,0.0,0.0,0.0,0.0,0.0,0.0,0.0,4.7805,4.9771,5.1763,5.3221,5.4645,5.6124,5.7792,0.0,0.0,0.0,0.0,0.0,0.0,0.0,5.7114,5.5972,5.5818,5.5818,5.5818,5.6242,5.678,5.7357,0.0,0.0,5.4857,5.4549,5.4434,5.4126,5.4318,5.4703,5.5241,5.5626,5.5972,0.0,0.0,0.0,0.0,0.0,0.0,0.0,0.0,4.1441,4.1065,0.0,4.0298,0.0,0.0,0.0,0.0,0.0,4.2031,0.0,0.0,4.3711,4.375,4.3789,4.3828,4.3789,4.3789,4.3828,4.3789,4.3672,4.2851,0.0,0.0,0.0,0.0,0.0,0.0,4.7187,4.8945,4.9844,5.0661,5.1379,5.1414,5.1414,5.1297,4.9696,4.8057,4.6417,4.548,4.384,4.1381,4.1108,0.0,0.0,0.0,0.0,0.0,0.0,0.0,0.0,0.0,0.0,0.0,0.0,0.0,0.0,0.0,0.0,0.0,0.0,0.0,0.0,4.0633,0.0,0.0,0.0,0.0,0.0,0.0,0.0,0.0,0.0,0.0,5.1356,5.1499,5.238,5.4788,0.0,0.0,0.0,0.0,6.0411,6.1225,6.0577,5.9934,5.9785,5.8991,5.8329,5.8242,0.0,0.0,5.8319,5.8357,5.8396,5.8396,5.8434,5.8127,5.728,5.7011,5.6703,5.5972,5.6395,5.6973,5.7126,5.7665,5.8242,4.3122,0.0,0.0,0.0,0.0,4.2696,4.2952,4.3141,4.2878,4.2771,4.2788,4.2541,0.0,0.0,0.0,0.0,0.0,0.0,4.3789,4.4609,4.4648,4.4961,4.5547,4.5547,4.5547,4.5547,4.5547,4.5234,4.4648,4.4375,4.3828,4.3008,0.0,0.0,0.0,0.0,4.8086,4.9805,5.1248,5.1791,5.1394,5.2007,5.1726,5.0516,5.0008,4.8954,4.7276,4.6378,4.5285,4.3918,4.2084,0.0,0.0,0.0,0.0,0.0,0.0,0.0,0.0,0.0,0.0,0.0,0.0,0.0,0.0,0.0,0.0,0.0,0.0,0.0,4.1537,4.1885,4.2272,0.0,0.0,0.0,0.0,0.0,0.0,0.0,0.0,0.0,5.4671,5.4999,5.5294,0.0,0.0,5.8718,5.9767,6.0108,6.0522,6.1278,6.1089,0.0,5.992,5.9513,5.9065,5.8418,5.8781,5.9165,5.9165,5.9665,6.0089,6.005,6.0089,5.9973,5.9704,5.8726,5.7918,5.7627,5.778,5.8127,5.8665,5.9011,5.9358,4.4846,4.4404,4.38,4.3527,4.3461,4.3452,4.3666,4.3934,4.3585,4.3635,4.3927,4.3646,4.3536,4.3569,4.3602,0.0,0.0,0.0,4.4687,4.5547,4.5859,4.6328,4.6836,4.7187,4.7344,4.7344,4.7344,4.707,4.6562,4.6523,4.6289,4.5742,0.0,0.0,4.6797,4.8008,4.9297,5.0664,5.2028,5.2609,5.2453,5.2596,5.2038,5.0672,5.0282,4.9462,4.8135,4.7276,4.6261,4.5051,4.3177,4.181,0.0,0.0,0.0,0.0,0.0,0.0,0.0,0.0,0.0,0.0,0.0,3.7828,0.0,0.0,0.0,0.0,4.0405,4.1384,4.2786,4.2903,0.0,0.0,0.0,0.0,0.0,0.0,0.0,5.1191,5.2278,5.3787,5.6191,5.7095,5.7545,5.7534,5.8733,5.9801,6.0278,0.0,6.0974,6.1382,6.1394,6.1097,6.0422,6.0287,5.9991,5.9419,5.9665,6.0012,6.005,6.0473,6.0781,6.0781,6.0781,6.0781,6.0781,6.0227,5.965,5.9358,5.9319,5.9473,5.9935,6.0281,6.0704,4.5827,4.5751,4.4311,4.3663,4.3613,4.3613,4.4067,4.4691,4.3955,4.4032,4.4742,4.4023,4.3704,4.3704,4.3836,0.0,4.509,4.5152,4.5625,4.6406,4.7304,4.7695,4.7734,4.8516,4.8906,4.8867,4.8906,4.8906,4.8867,4.8867,4.8945,4.8945,4.7461,4.707,4.7851,4.9453,5.0703,5.1523,5.2456,5.3271,5.4052,5.3182,5.2312,5.1531,5.0672,4.9774,4.8837,4.8096,4.6885,4.5207,4.427,4.3021,4.142,0.0,0.0,0.0,0.0,0.0,0.0,0.0,0.0,0.0,0.0,0.0,0.0,0.0,0.0,0.0,4.154,0.0,4.3801,4.3918,0.0,0.0,0.0,4.6924,4.7822,5.0039,5.1557,5.1674,0.0,0.0,5.6614,5.8142,5.9246,5.9295,5.9993,6.0528,6.051,6.1112,6.1586,6.15,6.1447,6.1337,6.1077,6.0982,6.0839,6.0689,6.0781,6.0742,6.0742,6.0781,6.0781,6.0935,6.0935,6.0973,6.0973,6.1651,6.1944,6.1127,6.1012,6.1012,6.1089,6.1627,6.2089,4.5814,4.5789,4.5415,4.5286,4.5299,4.5299,4.5402,4.5518,4.5324,4.5376,4.5596,4.5428,4.5382,4.549,4.5592,4.5713,4.5933,4.6616,4.7015,4.7286,4.8184,4.8586,4.8594,4.8789,4.8906,4.8906,4.8906,4.8906,4.8906,4.8906,4.9258,4.9883,5.0078,4.9961,4.9648,5.0586,5.1523,5.2383,5.3902,5.4792,5.4935,5.3487,5.2585,5.239,5.1531,5.036,4.8876,4.8603,4.7705,4.6066,4.5168,4.4192,4.3138,4.1615,0.0,0.0,0.0,0.0,0.0,0.0,0.0,0.0,0.0,3.9819,4.0444,0.0,4.2045,0.0,4.3138,4.3997,4.5515,4.5675,0.0,0.0,4.8681,4.954,5.0399,5.1609,5.2897,5.422,5.5504,5.6831,5.828,5.9412,6.0349,6.0974,6.1247,6.1359,6.1426,6.1485,6.1573,6.15,6.1421,6.1337,6.1191,6.1021,6.0933,6.0888,6.0804,6.0781,6.0781,6.0781,6.1012,6.1627,6.1781,6.2012,6.2551,6.2882,6.2945,6.2743,6.2704,6.2704,6.2704,6.2858,6.3012,4.696,4.696,4.696,4.6975,4.6964,4.6189,4.5827,4.58,4.58,4.5814,4.588,4.5906,4.5953,4.6047,4.613,4.6364,4.6787,4.7289,4.7693,4.8123,4.9006,4.9454,4.9447,4.9841,5.0037,4.9998,5.0,5.0195,5.0586,5.0586,5.1016,5.1914,5.2344,5.2344,5.1914,5.2305,5.2969,5.3867,5.5192,5.5687,5.5279,5.3951,5.3093,5.2702,5.1843,5.0594,4.8876,4.8798,4.8017,4.6378,4.548,4.4777,4.4309,4.2982,4.1849,0.0,0.0,0.0,0.0,0.0,0.0,0.0,0.0,0.0,0.0,0.0,4.3489,4.4742,4.4859,4.5558,4.7276,4.7744,4.8525,4.9813,5.075,5.1609,5.2468,5.3327,5.4381,5.5708,5.6606,5.7777,5.9456,6.0119,6.0744,6.1564,6.172,6.1715,6.171,6.1654,6.158,6.1529,6.1445,6.1313,6.1191,6.1041,6.0938,6.0955,6.0888,6.0866,6.0827,6.0804,6.1089,6.1897,6.2089,6.2358,6.3128,6.3652,6.3869,6.3897,6.4205,6.4166,6.3474,6.3628,6.3897,4.8392,4.8392,4.8392,4.8392,4.8275,4.6767,4.6071,4.5955,4.5838,4.5838,4.6007,4.6151,4.6251,4.6297,4.6397,4.6852,4.754,4.7717,4.8209,4.8995,4.9854,5.0258,5.0313,5.1154,5.155,5.1592,5.1678,5.2148,5.2851,5.2891,5.3242,5.3984,5.4101,5.4141,5.418,5.4258,5.4687,5.5469,5.6247,5.6234,5.5474,5.4498,5.3639,5.2858,5.1921,5.0555,4.8915,4.8798,4.8017,4.6378,4.5558,4.5129,4.4972,4.427,4.3489,0.0,4.2555,0.0,0.0,0.0,0.0,0.0,0.0,0.0,0.0,4.4231,4.4972,4.6498,4.6733,4.7435,4.8993,4.9926,5.0785,5.1648,5.2507,5.3327,5.4108,5.5005,5.5903,5.6684,5.7543,5.8753,6.0119,6.0471,6.09,6.1564,6.172,6.172,6.1715,6.166,6.1595,6.1603,6.1518,6.1342,6.1169,6.1079,6.1022,6.098,6.0976,6.0933,6.0911,6.0981,6.1266,6.205,6.2435,6.2781,6.3474,6.4306,6.4768,6.4782,6.5282,6.532,6.4205,6.4282,6.4743,4.8392,4.8392,4.8392,4.8392,4.8353,4.8058,4.7516,4.6806,4.6109,4.6187,4.6883,4.7622,4.7973,4.8063,4.8122,4.8194,4.8419,4.9187,4.9642,4.9831,5.0664,5.1086,5.1135,5.1977,5.2381,5.2511,5.3178,5.3617,5.3744,5.3749,5.3828,5.4023,5.4687,5.5039,5.5078,0.0,0.0,0.0,5.652,5.6507,5.6294,5.481,5.3912,5.3717,5.2234,0.0,4.8915,4.8798,4.8057,4.6417,4.6144,0.0,0.0,0.0,0.0,0.0,0.0,0.0,0.0,0.0,0.0,0.0,4.63,4.6378,4.5909,4.7042,4.7978,4.8294,4.8958,4.9813,5.0824,5.1683,5.2546,5.3405,5.4303,5.4888,5.5083,5.6411,5.7426,5.7582,5.8948,6.0002,6.0393,6.0978,6.1486,6.1681,6.172,6.172,6.172,6.1666,6.1641,6.1603,6.1479,6.1369,6.1291,6.1203,6.1152,6.1079,6.1002,6.098,6.101,6.1489,6.2098,6.2959,6.3666,6.4359,6.5205,6.5551,6.559,6.5667,6.5782,6.582,6.5474,6.5513,6.5667,4.9629,0.0,4.9629,4.9629,0.0,4.9204,4.8778,4.8314,4.7424,4.7347,4.7773,4.8203,4.841,4.8476,4.8528,4.8786,4.9198,4.9676,5.0137,5.0547,5.1025,5.1493,5.1896,5.2348,5.2799,5.3292,5.3738,5.4181,5.463,5.4638,5.4837,5.531,5.5701,5.5935,5.5935,5.6406,5.6601,5.6601,5.66,5.6593,5.6567,5.5318,5.442,5.399,5.2741,0.0,0.0,0.0,0.0,0.0,0.0,0.0,0.0,0.0,0.0,4.6264,4.6225,4.6222,4.6222,4.6651,4.7081,4.751,4.872,4.8915,4.7627,4.872,4.9618,5.0051,5.0871,5.1726,5.262,5.3479,5.4147,5.4654,5.5786,5.6528,5.6645,5.766,5.8597,5.9065,5.9846,6.0549,6.0978,6.1369,6.1681,6.172,6.172,6.172,6.1715,6.171,6.1687,6.1634,6.1549,6.1472,6.1366,6.1352,6.1283,6.1203,6.1134,6.1234,6.16,6.1945,6.2557,6.37,6.4369,6.4946,6.5667,6.5897,6.5897,6.5897,6.5897,6.5897,6.5897,6.5897,6.5897,5.089,5.0906,5.0906,5.0906,5.0867,5.0194,4.9885,4.9861,0.0,0.0,0.0,4.8769,4.8822,4.8822,4.8903,4.9342,5.0015,5.0028,5.0442,5.1114,5.1139,5.1641,5.2485,5.266,5.3195,5.4103,5.4287,5.4741,5.5504,5.5504,5.5868,5.651,5.6588,5.6588,5.663,5.6599,5.6601,5.6601,5.6601,5.6598,5.6575,5.5747,5.4966,5.4225,5.321,5.196,5.0399,5.0165,4.9696,4.8837,4.8798,4.8798,4.8798,4.8798,4.8798,4.8802,4.8919,4.9036,4.9032,4.9306,4.9579,4.9696,5.1023,5.1258,4.9813,5.0399,5.1063,5.1808,5.2628,5.3444,5.4142,5.5001,5.5591,5.5747,5.6957,5.7816,5.805,5.8792,5.9573,6.0276,6.051,6.09,6.1564,6.1681,6.172,6.172,6.172,6.172,6.1715,6.171,6.1687,6.1642,6.1586,6.1549,6.146,6.1447,6.1396,6.1342,6.1438,6.1724,6.2257,6.2607,6.3261,6.4409,6.4787,6.5226,6.5769,6.5923,6.5897,6.5897,6.5897,6.5897,6.5897,6.5897,6.5897,5.0913,5.0906,5.0906,5.0906,5.0906,5.0774,5.0735,5.0674,4.9861,4.9513,4.9552,5.0248,5.0519,5.0558,5.0603,5.0748,5.0826,5.0893,5.0984,5.1101,5.1114,5.158,5.2418,5.3207,5.403,5.4956,5.5684,5.6137,5.6315,5.6296,5.6397,5.6493,5.6532,5.6532,5.661,5.6627,5.6598,5.6601,5.6601,5.66,5.6591,5.5755,5.524,5.5044,5.3561,5.2234,5.1258,5.0516,4.9696,4.8837,4.8798,4.8798,4.8798,4.8876,4.8798,4.8837,4.9501,4.9891,4.9965,5.1293,5.2468,5.3171,5.3522,5.3522,5.3327,5.3366,5.3522,5.3639,5.4381,5.4966,5.5157,5.5899,5.6684,5.727,5.766,5.8089,5.8831,5.969,6.0276,6.0471,6.1095,6.1525,6.1642,6.172,6.172,6.172,6.172,6.172,6.1715,6.171,6.1699,6.1687,6.1634,6.1612,6.1559,6.1549,6.1539,6.15,6.2031,6.2439,6.2693,6.3612,6.4425,6.4788,6.5341,6.5759,6.5996,6.6024,6.5961,6.5897,6.5897,6.5897,6.5897,6.5897,6.5897,5.0897,5.0906,5.0906,5.0906,5.0906,5.0906,5.0906,5.0867,5.0519,5.0364,5.0403,5.0751,5.0906,5.0906,5.0921,5.0975,5.0937,5.099,5.099,5.1029,5.1523,5.2211,5.3067,5.3948,5.4866,5.5742,5.6153,5.6388,5.6425,5.6449,5.6471,5.6491,5.6503,5.6509,5.6514,5.6567,5.654,5.6551,5.66,5.6601,5.6599,5.6192,5.5786,5.5318,5.4498,5.3717,5.2858,5.2429,5.2038,5.1648,5.1609,5.1609,5.1609,5.1609,5.1609,5.1648,5.2003,5.2195,5.2191,5.2971,5.3795,5.4615,5.4693,5.4927,5.5396,5.4966,5.4693,5.4732,5.5474,5.5981,5.602,5.6762,5.7426,5.7738,5.8597,5.9378,5.9807,6.0588,6.1095,6.1134,6.1447,6.1681,6.172,6.172,6.172,6.172,6.172,6.172,6.172,6.1715,6.171,6.1699,6.1693,6.1641,6.1612,6.1564,6.1751,6.2114,6.2502,6.3093,6.375,6.4721,6.5118,6.5548,6.5894,6.6063,6.6074,6.6035,6.5986,6.5947,6.5923,6.5897,6.5897,6.5897,6.5897,5.0897,5.089,5.089,5.0906,5.0906,5.0906,5.0906,5.0906,5.0906,5.0906,5.0906,5.0906,5.0906,5.0906,5.0906,5.0906,5.0906,5.0906,5.1022,5.1254,5.1943,5.2825,5.3848,5.459,5.5384,5.6201,5.6278,5.6325,5.6368,5.6398,5.6425,5.648,5.6464,5.6478,5.6491,5.6491,5.6503,5.648,5.6551,5.6561,5.6601,5.663,5.6259,5.5669,5.5396,5.4966,5.4342,5.4108,5.399,5.399,5.399,5.399,5.399,5.399,5.399,5.3994,5.419,5.4381,5.4572,5.4576,5.4888,5.5513,5.5591,5.5864,5.645,5.5981,5.5591,5.5669,5.6177,5.6567,5.6606,5.7113,5.7582,5.7855,5.9143,6.0041,6.0432,6.1174,6.172,6.172,6.172,6.172,6.172,6.172,6.172,6.172,6.172,6.172,6.172,6.172,6.1715,6.171,6.1705,6.1699,6.1648,6.1836,6.2173,6.2804,6.3214,6.3954,6.4908,6.5323,6.5654,6.6173,6.6263,6.6225,6.6144,6.6113,6.602,6.602,6.5972,6.5923,6.5897,6.5897,6.5897,5.0846,5.0897,5.0929,5.0906,5.0906,5.0906,5.0906,5.0906,5.0906,5.0906,5.0906,5.0906,5.0906,5.0906,5.0906,5.0906,5.0945,5.0906,5.1331,5.2028,5.216,5.3104,5.4568,5.4777,5.5327,5.6121,5.6239,5.6278,5.6314,5.6386,5.6407,5.6398,5.6425,5.6433,5.6394,5.6488,5.6503,5.6471,5.6514,5.6549,5.6601,5.6599,5.6588,5.6489,5.5708,5.5279,5.5162,5.442,5.399,5.399,5.4029,5.4029,5.4029,5.4029,5.4029,5.4068,5.4732,5.5513,5.6216,5.6372,5.6333,5.6489,5.645,5.645,5.6606,5.6528,5.645,5.645,5.6528,5.6606,5.6606,5.6723,5.7113,5.7777,5.8714,5.9534,6.0315,6.1174,6.172,6.172,6.172,6.172,6.172,6.172,6.172,6.172,6.172,6.172,6.172,6.172,6.172,6.1715,6.1715,6.1754,6.1827,6.2368,6.2831,6.3149,6.4209,6.5026,6.5533,6.6022,6.6478,6.6397,6.64,6.6355,6.6283,6.6244,6.6162,6.6074,6.6005,6.5958,6.5923,6.5897,6.5897,5.0756,5.0846,5.088,5.0913,5.089,5.0906,5.0906,5.0906,5.0906,5.0906,5.0983,5.1447,5.137,5.0906,5.0906,5.1177,5.1641,5.1679,5.2144,5.2956,5.3514,5.4133,5.4768,5.5365,5.5785,5.6126,5.6209,5.6238,5.6251,5.6253,5.6278,5.6275,5.6286,5.6308,5.6319,5.6368,5.6388,5.6425,5.6418,5.6704,5.7174,5.6835,5.6595,5.6571,5.6255,5.6059,5.6059,5.5708,5.5513,5.5552,5.5552,5.5552,5.5552,5.5552,5.5513,5.5552,5.5864,5.6216,5.6567,5.6606,5.6606,5.6606,5.6606,5.6606,5.6606,5.6606,5.6606,5.6606,5.6606,5.6606,5.6645,5.6996,5.7465,5.7855,5.8558,5.9456,6.0315,6.0705,6.1095,6.1603,6.172,6.172,6.172,6.172,6.172,6.172,6.172,6.172,6.172,6.172,6.172,6.1759,6.211,6.2462,6.2501,6.273,6.3388,6.4281,6.4971,6.5535,6.6174,6.64,6.663,6.6618,6.6542,6.647,6.6406,6.632,6.6206,6.6144,6.6052,6.5996,6.5972,6.5923,6.5897,5.1221,5.1468,5.1559,5.1609,5.1602,5.1602,5.1602,5.1602,5.1602,5.1641,5.1679,5.2298,5.2221,5.1679,5.1602,5.195,5.2492,5.2546,5.305,5.3846,5.452,5.489,5.52,5.5736,5.6062,5.6117,5.6149,5.6203,5.6218,5.6209,5.6199,5.6226,5.6226,5.6201,5.6265,5.6278,5.6314,5.6397,5.6602,5.7081,5.764,5.7447,5.7187,5.6976,5.6922,5.684,5.6606,5.6606,5.6606,5.6606,5.6606,5.6606,5.6606,5.6606,5.6606,5.6606,5.6606,5.6606,5.6606,5.6606,5.6606,5.6606,5.6606,5.6606,5.6606,5.6606,5.6606,5.6606,5.6606,5.6606,5.6684,5.7113,5.7426,5.7543,5.8402,5.9378,5.9924,6.0354,6.1056,6.1603,6.172,6.172,6.172,6.172,6.172,6.172,6.172,6.172,6.1759,6.1915,6.211,6.2071,6.2813,6.3164,6.3125,6.3594,6.4286,6.5022,6.5679,6.6148,6.6681,6.672,6.6732,6.6683,6.6618,6.6569,6.6528,6.6415,6.6316,6.6225,6.614,6.6067,6.5996,6.5972,6.5923,5.2435,5.3109,5.324,5.3194,5.3336,5.332,5.3343,5.3188,5.3304,5.3343,5.3265,5.3382,5.342,5.3343,5.3343,5.342,5.342,5.3436,5.3901,5.4697,5.4813,5.52,5.5935,5.6012,5.6029,5.6062,5.6117,5.6133,5.6218,5.6218,5.6218,5.618,5.618,5.6194,5.6209,5.6343,5.633,5.6472,5.7225,5.7711,5.7844,5.8571,5.8541,5.793,5.776,5.7426,5.6762,5.6645,5.6645,5.6606,5.6606,5.6606,5.6606,5.6645,5.6645,5.6645,5.6645,5.6684,5.6723,5.6723,5.6684,5.6645,5.6645,5.6606,5.6606,5.6606,5.6606,5.6606,5.6606,5.6606,5.6684,5.6762,5.6801,5.6918,5.8168,5.8987,5.9261,6.0627,6.1525,6.172,6.172,6.172,6.172,6.172,6.172,6.172,6.172,6.172,6.1798,6.2345,6.2774,6.3008,6.3516,6.3984,6.3399,6.4101,6.5116,6.5775,6.6243,6.6673,6.6739,6.6805,6.6798,6.6775,6.6732,6.6652,6.663,6.6517,6.6415,6.6338,6.6225,6.6162,6.6052,6.602,6.5972,5.2974,5.3301,5.3338,5.3409,5.3514,5.3498,5.3481,5.3503,5.3498,5.3498,5.3614,5.4078,5.4349,5.4349,5.489,5.4813,5.4349,5.4326,5.4791,5.5509,5.5586,5.5741,5.5973,5.6012,5.6012,5.6029,5.6029,5.6046,5.6062,5.6062,5.6062,5.6062,5.6062,5.6117,5.6211,5.6707,5.7024,5.7158,5.7962,5.8682,5.9241,5.9685,5.9703,5.9475,5.8906,5.8225,5.7387,5.7348,5.7153,5.6645,5.6606,5.6606,5.6645,5.7113,5.7348,5.7426,5.7894,5.8207,5.8128,5.766,5.7387,5.7348,5.6879,5.6645,5.6606,5.6606,5.6606,5.6645,5.6645,5.6762,5.7153,5.6918,5.6801,5.7348,5.7894,5.8792,5.9729,6.051,6.1056,6.1564,6.172,6.172,6.172,6.172,6.172,6.172,6.172,6.172,6.1837,6.2462,6.3086,6.3243,6.4179,6.5038,6.4804,6.5077,6.5702,6.6209,6.6639,6.6717,6.679,6.6817,6.6805,6.6805,6.6775,6.6741,6.6673,6.6594,6.6475,6.6439,6.6338,6.6225,6.6123,6.6074,6.6044,5.4033,5.413,5.413,5.4185,5.431,5.431,5.4293,5.4315,5.4293,5.431,5.4426,5.4929,5.52,5.5277,5.578,5.5741,5.52,5.5216,5.5487,5.5973,5.6012,5.6012,5.6012,5.6012,5.6012,5.6012,5.6012,5.6012,5.6012,5.6012,5.6012,5.6012,5.6012,5.6184,5.651,5.7108,5.7505,5.7916,5.875,5.9555,6.0122,6.0526,6.069,6.0678,6.0223,5.9373,5.8289,5.8207,5.7972,5.7504,5.7426,5.7387,5.7465,5.7933,5.8207,5.8285,5.8753,5.91,5.9065,5.8558,5.8246,5.8207,5.7777,5.7387,5.7426,5.7426,5.7426,5.7387,5.7426,5.7699,5.7968,5.7734,5.766,5.8168,5.8441,5.9065,6.0237,6.0627,6.1095,6.1564,6.172,6.172,6.172,6.172,6.172,6.172,6.1915,6.211,6.2228,6.3125,6.3828,6.3945,6.5116,6.5819,6.5858,6.6014,6.6131,6.6561,6.6678,6.6756,6.6795,6.6784,6.6817,6.6817,6.6805,6.6775,6.6732,6.663,6.6581,6.6528,6.6439,6.6338,6.6225,6.614,6.6113,5.5689,5.5731,5.5905,5.5768,5.578,5.578,5.5935,5.5818,5.5857,5.5741,5.5702,5.5935,5.5857,5.5973,5.5973,5.5973,5.5896,5.5857,5.5896,5.6012,5.6012,5.6012,5.6012,5.6012,5.6012,5.6012,5.6012,5.6012,5.6012,5.6012,5.6012,5.6051,5.6128,5.6553,5.7327,5.7555,5.7937,5.8668,5.9575,6.0137,6.019,6.0978,6.1383,6.15,6.142,6.0696,5.923,5.9148,5.9031,5.8948,5.8948,5.9065,5.8909,5.9065,5.9104,5.9104,5.9178,5.9217,5.9217,5.9178,5.9104,5.9065,5.9026,5.8831,5.8792,5.8831,5.8831,5.8792,5.8831,5.9026,5.9026,5.9022,5.9022,5.9183,5.969,6.0198,6.0588,6.1174,6.1681,6.172,6.172,6.172,6.172,6.172,6.1759,6.1954,6.2423,6.2891,6.3086,6.4258,6.5312,6.5585,6.5975,6.6444,6.6639,6.6795,6.6756,6.6795,6.6795,6.6795,6.6795,6.679,6.679,6.679,6.6817,6.6791,6.6783,6.6693,6.6652,6.6606,6.6528,6.6439,6.6338,6.6264,6.6299,5.5745,5.5827,5.5885,5.5961,5.5995,5.6012,5.6012,5.6012,5.6012,5.6012,5.6012,5.6012,5.6012,5.6012,5.6012,5.6012,5.6012,5.6012,5.6012,5.6012,5.6012,5.6012,5.6012,5.6012,5.6012,5.6012,5.6012,5.6012,5.6012,5.6051,5.6283,5.6786,5.6902,5.7366,5.8178,5.8815,5.9297,5.9564,6.0411,6.0887,6.091,6.1239,6.146,6.1518,6.1578,6.1309,6.0852,6.0272,5.9709,5.9183,5.9104,5.9104,5.9222,5.969,6.0002,6.0041,6.0588,6.0895,6.0817,6.0315,6.0002,5.9885,5.9495,5.9143,5.9104,5.9183,5.9183,5.9143,5.9104,5.93,5.9846,5.9998,5.9998,5.9963,6.0237,6.0666,6.1134,6.1525,6.1681,6.172,6.172,6.172,6.172,6.1759,6.1993,6.254,6.2891,6.3243,6.3945,6.4882,6.5546,6.5663,6.6288,6.6795,6.6795,6.6795,6.6795,6.6795,6.6795,6.6795,6.6795,6.6795,6.6795,6.6795,6.6823,6.6811,6.6805,6.6783,6.675,6.6673,6.6606,6.6528,6.6439,6.6472,6.6574,5.5745,5.5787,5.5827,5.5904,5.5956,5.5977,5.5959,5.5959,5.5959,5.5959,5.5959,5.6016,5.6016,5.5977,5.5995,5.6012,5.6012,5.6012,5.6012,5.6012,5.6012,5.6012,5.6012,5.6012,5.6012,5.6089,5.6321,5.6476,5.6515,5.6824,5.725,5.7714,5.7791,5.8217,5.9029,5.9571,6.0014,6.0381,6.0902,6.1208,6.1275,6.1322,6.1366,6.1447,6.1495,6.1529,6.1569,6.1076,6.0625,6.0181,6.0046,6.008,6.0119,6.0588,6.0861,6.0978,6.133,6.1681,6.1642,6.1134,6.09,6.0783,6.0393,6.008,6.008,6.008,6.008,6.008,6.0119,6.0315,6.0739,6.0895,6.0861,6.09,6.09,6.1134,6.1642,6.172,6.172,6.172,6.172,6.1837,6.211,6.2228,6.254,6.3282,6.375,6.4023,6.4804,6.5507,6.5819,6.6092,6.6483,6.6756,6.6795,6.6795,6.6795,6.6795,6.6795,6.6795,6.6795,6.6795,6.6795,6.6795,6.679,6.679,6.6817,6.6805,6.6783,6.6711,6.6683,6.6618,6.6581,6.6936,6.7144,5.5745,5.5787,5.5787,5.5827,5.5882,5.5904,5.5905,5.5885,5.5905,5.5905,5.5924,5.6,5.5961,5.598,5.5977,5.5995,5.5995,5.5995,5.5995,5.6012,5.6012,5.6051,5.6205,5.6244,5.6321,5.6515,5.7056,5.7366,5.7404,5.8023,5.8642,5.8642,5.8681,5.9106,5.9803,5.9957,6.0383,6.0943,6.1116,6.1173,6.1191,6.1242,6.133,6.1391,6.1408,6.1445,6.152,6.1478,6.1538,6.1639,6.1467,6.1451,6.1603,6.1681,6.1603,6.1564,6.1681,6.172,6.172,6.1603,6.1564,6.1564,6.1486,6.172,6.1447,6.133,6.1369,6.1408,6.1447,6.1564,6.1603,6.1603,6.1642,6.1759,6.1642,6.1681,6.1759,6.1837,6.1993,6.2032,6.1954,6.2149,6.3008,6.3047,6.3477,6.4219,6.4921,6.5273,6.5702,6.617,6.6639,6.6756,6.6756,6.6756,6.6795,6.6795,6.6795,6.6795,6.6795,6.6795,6.6795,6.6795,6.6795,6.6795,6.6795,6.6795,6.679,6.6817,6.6811,6.6759,6.6728,6.6683,6.698,6.7425,6.803,5.5724,5.5724,5.5766,5.5825,5.5845,5.5865,5.5904,5.592,5.5904,5.5885,5.5905,5.5905,5.5924,5.5924,5.5943,5.5961,5.598,5.5998,5.6016,5.6012,5.6012,5.6399,5.6863,5.6979,5.7288,5.7791,5.8101,5.8255,5.8255,5.8604,5.899,5.9532,5.9571,5.9939,6.0654,6.0731,6.0886,6.1079,6.1118,6.1175,6.1175,6.1268,6.1229,6.1286,6.1399,6.1472,6.1486,6.1529,6.1627,6.1713,6.1717,6.1701,6.1725,6.172,6.172,6.172,6.172,6.172,6.172,6.172,6.172,6.172,6.172,6.172,6.172,6.172,6.172,6.172,6.172,6.1759,6.172,6.1759,6.1993,6.2462,6.2228,6.2071,6.2501,6.2657,6.2891,6.3477,6.3516,6.3672,6.3867,6.4023,6.4297,6.5038,6.5507,6.5858,6.6249,6.6483,6.6795,6.6795,6.6795,6.6795,6.6795,6.6795,6.6795,6.6795,6.6795,6.6795,6.6795,6.6795,6.6795,6.6795,6.6795,6.6795,6.6795,6.679,6.679,6.6985,6.739,6.7625,6.7891,6.8277,6.9046,5.5703,5.5703,5.5745,5.5784,5.5763,5.5805,5.5805,5.5801,5.5805,5.5807,5.5845,5.5865,5.5865,5.5827,5.5885,5.5905,5.5943,5.5961,5.6191,5.6596,5.6961,5.7211,5.7366,5.7598,5.8139,5.8565,5.899,5.9106,5.9223,5.9455,5.9957,6.0306,6.0403,6.0635,6.1002,6.1118,6.1118,6.1157,6.1427,6.166,6.166,6.2065,6.2277,6.2277,6.2344,6.237,6.2468,6.2558,6.236,6.1885,6.1677,6.1717,6.1707,6.169,6.172,6.172,6.172,6.172,6.172,6.172,6.172,6.172,6.172,6.172,6.172,6.172,6.172,6.172,6.1993,6.2228,6.2306,6.254,6.3008,6.3399,6.3086,6.3008,6.3516,6.3516,6.375,6.414,6.4297,6.4492,6.4765,6.4843,6.5273,6.5819,6.6092,6.6405,6.6639,6.6756,6.6795,6.6795,6.6795,6.6795,6.6795,6.6795,6.6795,6.6795,6.6795,6.6795,6.6912,6.6873,6.6795,6.6795,6.6795,6.6834,6.6912,6.7068,6.742,6.7727,6.8222,6.86,6.8795,6.9236,6.9974,5.5703,5.5703,5.5703,5.5703,5.5703,5.5703,5.5703,5.5703,5.5724,5.5724,5.5724,5.5766,5.5787,5.5787,5.5845,5.5924,5.6078,5.6194,5.6695,5.7389,5.8083,5.8372,5.7946,5.8488,5.8874,5.9145,5.9725,5.9957,6.0112,6.0692,6.1002,6.0963,6.1002,6.1079,6.1157,6.1234,6.1234,6.1505,6.2162,6.2511,6.2627,6.3091,6.3342,6.3361,6.34,6.349,6.3627,6.3729,6.3291,6.1933,6.1928,6.2143,6.207,6.2019,6.2076,6.2149,6.2267,6.2228,6.2071,6.2228,6.211,6.2189,6.2149,6.1954,6.2189,6.2267,6.2267,6.2306,6.2696,6.3047,6.3243,6.3867,6.4297,6.4453,6.4453,6.457,6.4531,6.4492,6.4453,6.4531,6.4609,6.4999,6.5429,6.578,6.5975,6.6288,6.6522,6.66,6.6756,6.6795,6.6795,6.6795,6.6795,6.6795,6.6795,6.6795,6.6795,6.6795,6.6795,6.6834,6.7107,6.7068,6.6873,6.6834,6.7068,6.7185,6.7224,6.7498,6.8044,6.8468,6.897,6.9315,6.9614,7.0224,7.0931,5.5703,5.5703,5.5703,5.5703,5.5703,5.5703,5.5703,5.5703,5.5703,5.5703,5.5703,5.5724,5.5724,5.5763,5.5861,5.6113,5.6809,5.6945,5.7351,5.8259,5.9166,5.9493,5.9339,5.9571,5.9919,6.0344,6.0692,6.0809,6.0925,6.0925,6.1118,6.1118,6.1195,6.1118,6.1195,6.1853,6.2124,6.2278,6.2975,6.34,6.3439,6.3671,6.3884,6.3845,6.3826,6.3806,6.3834,6.3876,6.3767,6.3592,6.3584,6.3642,6.3503,6.3554,6.3547,6.3529,6.3633,6.3672,6.3711,6.3594,6.3711,6.3555,6.3516,6.375,6.375,6.3633,6.3672,6.375,6.3906,6.4023,6.4179,6.4843,6.5234,6.539,6.578,6.6131,6.6131,6.5702,6.5585,6.5975,6.6131,6.6288,6.6483,6.6444,6.66,6.6795,6.6795,6.6795,6.6795,6.6795,6.6795,6.6795,6.6795,6.6795,6.6795,6.6834,6.6951,6.7068,6.7107,6.7342,6.7576,6.7537,6.7459,6.742,6.7459,6.7576,6.781,6.8474,6.9137,6.945,6.9757,7.0141,7.0603,7.1221,7.1448,5.5703,5.5703,5.5703,5.5703,5.5703,5.5703,5.5703,5.5703,5.5703,5.5703,5.5703,5.5703,5.5895,5.628,5.6319,5.6802,5.7593,5.8158,5.8605,5.9264,6.0016,6.0422,6.046,6.046,6.0731,6.1079,6.1079,6.1118,6.1118,6.1118,6.1118,6.1157,6.1466,6.1737,6.1814,6.2549,6.2975,6.3168,6.3864,6.429,6.4329,6.4715,6.487,6.487,6.4889,6.489,6.5023,6.5019,6.5103,6.5153,6.52,6.4864,6.4292,6.4239,6.4256,6.4291,6.4306,6.4297,6.4297,6.4297,6.4258,6.4336,6.4297,6.4297,6.4297,6.4297,6.4297,6.4414,6.4648,6.5038,6.5429,6.578,6.6131,6.6209,6.6522,6.6795,6.6717,6.6405,6.6288,6.6717,6.6717,6.6717,6.6795,6.6795,6.6795,6.6795,6.6795,6.6795,6.6795,6.6795,6.6795,6.6795,6.6795,6.6795,6.6795,6.6912,6.7107,6.7342,6.7615,6.8044,6.8513,6.8357,6.8161,6.8239,6.8318,6.8513,6.8825,6.9528,6.9996,7.023,7.0537,7.1045,7.139,7.1624,7.1741,5.5703,5.5703,5.5703,5.5703,5.5703,5.5703,5.5703,5.5703,5.5857,5.6011,5.5972,5.6011,5.6703,5.7049,5.7165,5.7703,5.8556,5.9412,5.9899,6.0055,6.0635,6.0925,6.0963,6.1002,6.1157,6.1273,6.1157,6.1118,6.1118,6.1234,6.1466,6.1505,6.2201,6.2549,6.2781,6.34,6.3903,6.4019,6.4715,6.5141,6.5218,6.5721,6.5953,6.5992,6.5953,6.5973,6.5974,6.6089,6.626,6.6477,6.6485,6.5777,6.4987,6.4587,6.4579,6.4725,6.4877,6.4945,6.5017,6.4896,6.4852,6.4692,6.4726,6.4765,6.4804,6.4882,6.4921,6.5077,6.5429,6.6014,6.6678,6.6678,6.6717,6.6756,6.6795,6.6795,6.6795,6.6795,6.6756,6.6756,6.6795,6.6795,6.6795,6.6795,6.6795,6.6795,6.6795,6.6795,6.6795,6.6834,6.6834,6.6795,6.6795,6.7185,6.7224,6.7381,6.7537,6.8005,6.8279,6.8786,6.9372,6.9372,6.9255,6.9215,6.9294,6.9489,6.9801,7.0387,7.0777,7.0972,7.1206,7.1552,7.1792,7.1948,7.1987,5.5703,5.5703,5.5703,5.5703,5.5703,5.5703,5.5742,5.5818,5.6511,5.678,5.6857,5.7511,5.7819,5.805,5.8088,5.855,5.938,6.0201,6.065,6.073,6.1022,6.1118,6.1234,6.1273,6.1543,6.1814,6.166,6.135,6.1466,6.1776,6.2162,6.2356,6.3052,6.3478,6.371,6.429,6.4754,6.4831,6.5489,6.5837,6.5915,6.6031,6.6185,6.6185,6.6185,6.6185,6.6205,6.6284,6.6322,6.634,6.6389,6.626,6.6011,6.602,6.6102,6.6141,6.6123,6.6053,6.6093,6.6246,6.6351,6.6375,6.6214,6.6253,6.6249,6.6249,6.6053,6.6209,6.6327,6.6639,6.6756,6.6795,6.6795,6.6795,6.6795,6.6795,6.6795,6.6795,6.6795,6.6795,6.6795,6.6795,6.6795,6.6795,6.6795,6.6795,6.6795,6.6795,6.6795,6.6873,6.6951,6.6873,6.6795,6.7303,6.7771,6.7966,6.82,6.8864,6.9255,6.9645,7.0113,7.0387,7.0426,7.023,7.027,7.0426,7.0816,7.1245,7.1441,7.1519,7.1753,7.1987,7.1987,7.1987,7.1987,5.5703,5.5703,5.5703,5.5703,5.578,5.6203,5.6357,5.6511,5.728,5.7665,5.778,5.8127,5.855,5.8819,5.8934,5.9396,6.015,6.0641,6.0955,6.0997,6.1041,6.137,6.1698,6.1776,6.2317,6.2743,6.2627,6.2394,6.2472,6.2859,6.3052,6.3284,6.3942,6.4367,6.4561,6.518,6.5528,6.5721,6.5992,6.6185,6.6185,6.6185,6.6185,6.6185,6.6185,6.6185,6.6185,6.6205,6.6284,6.6303,6.632,6.6394,6.6439,6.6503,6.6624,6.6689,6.6759,6.6751,6.6781,6.6793,6.6757,6.6784,6.682,6.6813,6.68,6.6756,6.6795,6.6795,6.6795,6.6795,6.6795,6.6834,6.6795,6.6795,6.6834,6.6873,6.6834,6.6834,6.6912,6.699,6.6951,6.6951,6.6795,6.6795,6.6795,6.6795,6.6834,6.6912,6.6951,6.7224,6.7498,6.7576,6.7615,6.8122,6.8591,6.8747,6.9098,6.9723,7.0152,7.0504,7.0855,7.1128,7.1206,7.1128,7.1245,7.1206,7.1441,7.1675,7.187,7.1987,7.1987,7.1987,7.1987,7.1987,7.1987,5.5703,5.5703,5.5703,5.578,5.6049,5.6665,5.7088,5.7396,5.8165,5.855,5.855,5.8781,5.9242,5.9627,5.9819,6.0165,6.0781,6.0888,6.0933,6.1015,6.1271,6.1697,6.2201,6.2685,6.3071,6.3806,6.3903,6.3864,6.3555,6.3826,6.3942,6.4174,6.4831,6.5218,6.5373,6.5799,6.6147,6.6185,6.6185,6.6185,6.6185,6.6185,6.6185,6.6185,6.6185,6.6185,6.6185,6.6185,6.6205,6.6245,6.6264,6.6322,6.6376,6.6389,6.6446,6.6594,6.6669,6.6732,6.6744,6.6761,6.6784,6.6797,6.6797,6.6791,6.6813,6.6805,6.6795,6.6795,6.6795,6.6795,6.6834,6.699,6.7068,6.7185,6.7303,6.7381,6.7537,6.7615,6.7693,6.7615,6.7303,6.7146,6.7068,6.6873,6.6873,6.7342,6.7381,6.7732,6.7849,6.8161,6.8396,6.8513,6.8708,6.9176,6.9489,6.9645,7.0074,7.0738,7.0972,7.1206,7.1519,7.1831,7.1792,7.1636,7.1714,7.1714,7.1948,7.1987,7.1987,7.1987,7.1987,7.1987,7.1987,7.1987,7.1987,5.5703,5.5703,5.5703,5.6126,5.6819,5.7011,5.7473,5.8204,5.9011,5.9358,5.9396,6.0089,6.0435,6.055,6.055,6.0666,6.0804,6.0981,6.1065,6.1164,6.1747,6.2215,6.2446,6.3106,6.39,6.4616,6.4811,6.4367,6.4213,6.4599,6.4831,6.4986,6.5489,6.5992,6.5915,6.6069,6.6185,6.6185,6.6224,6.6263,6.634,6.6379,6.6379,6.634,6.6379,6.6379,6.6379,6.6379,6.6301,6.6205,6.6205,6.6264,6.6303,6.6322,6.6322,6.645,6.6532,6.6669,6.6698,6.6702,6.6739,6.677,6.6781,6.6794,6.695,6.6969,6.6956,6.6795,6.6912,6.7029,6.7264,6.7576,6.781,6.8161,6.8396,6.8708,6.8864,6.8396,6.8474,6.8552,6.8396,6.7771,6.7381,6.7146,6.7029,6.7537,6.8005,6.8396,6.8708,6.902,6.9489,6.9684,6.9762,7.0191,7.0387,7.0543,7.0816,7.1558,7.1636,7.1714,7.1831,7.1987,7.1987,7.1909,7.1987,7.1987,7.1987,7.1987,7.1987,7.1987,7.1987,7.1987,7.1987,7.2026,7.2182,5.6434,5.6434,5.6434,5.6934,5.7742,5.8204,5.8627,5.9088,5.9858,6.0242,6.0281,6.0589,6.0781,6.0781,6.0781,6.0781,6.0896,6.1343,6.1582,6.1758,6.2436,6.3152,6.3698,6.4106,6.4723,6.5286,6.5561,6.5505,6.5255,6.5353,6.5682,6.5682,6.5992,6.6147,6.6301,6.6224,6.6185,6.634,6.6688,6.7191,6.7539,6.7655,6.7655,6.7655,6.7617,6.7384,6.7036,6.692,6.665,6.6379,6.6185,6.6185,6.6244,6.6244,6.6264,6.6361,6.6903,6.6976,6.6679,6.6645,6.6771,6.6752,6.6817,6.6969,6.7342,6.7535,6.7789,6.8284,6.8284,6.8245,6.82,6.8591,6.8747,6.902,6.9333,6.945,6.9567,6.9411,6.9215,6.9333,6.9411,6.8908,6.8479,6.8474,6.8396,6.8552,6.8864,6.9059,6.9411,6.9762,7.0348,7.0972,7.105,7.1167,7.1324,7.1441,7.1363,7.1831,7.1831,7.187,7.1909,7.1987,7.2026,7.2026,7.2026,7.2026,7.2026,7.2026,7.2026,7.2026,7.1987,7.2182,7.2378,7.269,7.2924,5.7434,5.7588,5.7396,5.7819,5.8627,5.9242,5.9627,5.9935,6.0473,6.0781,6.0781,6.0781,6.0781,6.0896,6.105,6.1243,6.1204,6.2012,6.2305,6.2675,6.3276,6.3993,6.4479,6.4887,6.5411,6.6029,6.5942,6.5925,6.5986,6.6084,6.6088,6.6185,6.6147,6.6379,6.6533,6.665,6.6727,6.7152,6.7578,6.8119,6.8545,6.8661,6.87,6.8738,6.87,6.8506,6.7965,6.781,6.7423,6.7152,6.7036,6.7114,6.7075,6.7134,6.7134,6.727,6.7696,6.7736,6.7459,6.7378,6.7243,6.7286,6.736,6.7832,6.8261,6.8436,6.8552,6.9163,6.9195,6.9264,6.9455,6.9489,6.9723,6.984,7.0074,6.9996,7.0035,7.0158,7.0319,7.0518,7.0596,7.0392,7.0119,7.0079,6.9957,6.9762,6.9762,6.9801,7.0152,7.0582,7.0972,7.1597,7.1597,7.1636,7.1753,7.1909,7.1987,7.2065,7.2065,7.2065,7.2104,7.2143,7.2182,7.2143,7.226,7.269,7.308,7.2534,7.2104,7.2378,7.2612,7.2651,7.2885,7.3275,7.3822,5.8665,5.9281,5.855,5.8704,5.9435,5.9473,5.9973,6.0589,6.0742,6.0819,6.0935,6.0858,6.0935,6.1089,6.1704,6.2012,6.205,6.2858,6.3166,6.3512,6.4051,6.4576,6.4985,6.5433,6.5866,6.5982,6.6029,6.6013,6.6113,6.6312,6.6239,6.6224,6.6495,6.6804,6.7152,6.7423,6.7849,6.8236,6.8661,6.8777,6.9009,6.9048,6.9009,6.897,6.8893,6.8777,6.8738,6.87,6.8545,6.8313,6.8236,6.8236,6.8119,6.8179,6.8179,6.8256,6.8527,6.8586,6.851,6.8449,6.8707,6.8889,6.8883,6.8851,6.9204,6.9308,6.9408,6.9648,6.9918,6.9749,6.9855,7.0035,7.0518,7.0709,7.0904,7.1095,7.1178,7.1343,7.1503,7.1744,7.1623,7.1268,7.1212,7.105,7.0894,7.066,7.0621,7.0699,7.1089,7.148,7.1597,7.187,7.1909,7.1909,7.1909,7.2026,7.2104,7.226,7.2378,7.2339,7.2339,7.2378,7.2768,7.2924,7.3236,7.3666,7.3861,7.3275,7.2963,7.3119,7.3275,7.3432,7.3783,7.4251,7.4837,5.955,6.0242,5.9935,6.0012,6.0319,6.0319,6.0473,6.0742,6.0781,6.1127,6.1589,6.1589,6.1897,6.232,6.2589,6.2858,6.2974,6.3743,6.4012,6.4397,6.4897,6.532,6.5576,6.5653,6.5909,6.5986,6.6035,6.6328,6.6752,6.6785,6.7316,6.7437,6.7248,6.7617,6.8003,6.839,6.8854,6.9319,6.9589,6.9705,7.0286,7.0324,7.0324,7.0324,7.0324,7.0015,6.9667,6.9551,6.9241,6.897,6.8893,6.8932,6.897,6.8953,6.8953,6.903,6.9301,6.9512,6.9413,6.9226,6.8935,6.9049,6.9124,6.944,7.0013,7.0135,7.0514,7.077,7.0898,7.0738,7.1055,7.1289,7.1517,7.1584,7.1694,7.1924,7.2006,7.1975,7.1981,7.1908,7.1947,7.1788,7.1815,7.187,7.1714,7.1558,7.1558,7.1597,7.1831,7.1987,7.1987,7.1987,7.1987,7.2143,7.2143,7.2182,7.2221,7.2534,7.2768,7.2924,7.3041,7.3549,7.39,7.4017,7.4095,7.433,7.433,7.3939,7.3822,7.4017,7.4173,7.4369,7.4759,7.5227,7.5696,6.0242,6.0781,6.0781,6.0781,6.0781,6.0781,6.0781,6.0858,6.1127,6.1666,6.2435,6.2474,6.2743,6.3243,6.3628,6.3705,6.3935,6.4512,6.4897,6.5205,6.5513,6.5859,6.5897,6.5936,6.6076,6.6192,6.6371,6.6781,6.7551,6.76,6.815,6.8529,6.8558,6.8734,6.9009,6.9473,6.986,7.0247,7.044,7.0595,7.1214,7.1214,7.1214,7.1175,7.1137,7.0943,7.0518,7.0363,7.017,6.986,6.9705,6.9628,6.9589,6.9551,6.9551,6.9744,6.9976,7.0341,7.0187,6.9997,6.9653,6.9938,6.9959,7.0369,7.0715,7.0949,7.126,7.1685,7.1906,7.1992,7.1992,7.1875,7.1836,7.1831,7.183,7.1986,7.1981,7.1984,7.1989,7.1991,7.199,7.2028,7.2245,7.226,7.226,7.2026,7.1792,7.1792,7.187,7.1987,7.1987,7.1987,7.1987,7.2182,7.2378,7.2612,7.2885,7.3432,7.3666,7.3822,7.4095,7.4525,7.4837,7.4915,7.4954,7.5032,7.5149,7.5266,7.511,7.4915,7.5149,7.5501,7.5774,7.6203,7.6399,6.0742,6.0781,6.0819,6.0858,6.0896,6.0819,6.0858,6.105,6.1743,6.2551,6.3243,6.3281,6.3358,6.3666,6.432,6.4551,6.4705,6.5359,6.5705,6.5743,6.5782,6.5897,6.6013,6.6128,6.6474,6.6936,6.7192,6.7577,6.8398,6.8475,6.9001,6.9552,6.9687,6.9817,7.0054,7.0789,7.1214,7.1253,7.1175,7.1214,7.1253,7.1291,7.1291,7.1291,7.1291,7.1137,7.1059,7.1021,7.0866,7.0789,7.0789,7.0789,7.0827,7.0866,7.0905,7.0982,7.1059,7.1175,7.1175,7.1257,7.1125,7.1048,7.0904,7.1233,7.1602,7.176,7.1737,7.1976,7.2006,7.1986,7.1992,7.1992,7.1992,7.1992,7.1992,7.1992,7.1992,7.1992,7.1992,7.2305,7.2187,7.2108,7.2401,7.2612,7.269,7.2534,7.2143,7.2104,7.23,7.2456,7.2651,7.269,7.2729,7.2885,7.3158,7.3236,7.3549,7.4134,7.4564,7.4759,7.4876,7.511,7.5423,7.5657,7.5813,7.5891,7.6399,7.6906,7.636,7.5891,7.6399,7.6711,7.6945,7.6984,7.6945,6.0781,6.0858,6.1396,6.1666,6.1666,6.1689,6.1689,6.1781,6.2551,6.3358,6.4051,6.4166,6.4551,6.4974,6.5166,6.5397,6.5513,6.559,6.5897,6.5897,6.5936,6.6282,6.6513,6.6782,6.7128,6.7744,6.8052,6.8436,6.9283,6.9271,6.9823,7.0414,7.0551,7.0799,7.0883,7.1214,7.1291,7.1291,7.1291,7.1291,7.1291,7.1291,7.1291,7.1291,7.1291,7.1291,7.1291,7.1291,7.1291,7.1291,7.1291,7.1291,7.1291,7.1291,7.1291,7.1291,7.1291,7.1291,7.1291,7.1274,7.1355,7.1475,7.1532,7.1598,7.1718,7.1794,7.1858,7.1948,7.1987,7.1978,7.1992,7.1992,7.1992,7.1992,7.1992,7.1992,7.1992,7.1992,7.2109,7.2695,7.289,7.3203,7.3515,7.3672,7.372,7.3867,7.3671,7.3471,7.3588,7.3705,7.3861,7.3861,7.39,7.3939,7.4017,7.4095,7.4486,7.5149,7.5501,7.5696,7.5813,7.5852,7.6125,7.6438,7.6594,7.6789,7.6945,7.7062,7.6984,7.6906,7.7062,7.7101,7.7062,7.7023,7.7062,6.0973,6.132,6.1858,6.2281,6.2474,6.2521,6.2651,6.3012,6.3551,6.4243,6.4936,6.5051,6.5282,6.5743,6.5897,6.5897,6.5897,6.5897,6.6205,6.6244,6.632,6.6859,6.7321,6.7628,6.809,6.8629,6.8936,6.9283,7.009,7.009,7.0413,7.0812,7.1106,7.1101,7.1186,7.1231,7.1291,7.1291,7.1291,7.1291,7.1291,7.1291,7.1291,7.1291,7.1291,7.1291,7.1291,7.1291,7.1291,7.1291,7.1291,7.1291,7.1291,7.1291,7.1291,7.1291,7.1291,7.1291,7.1291,7.1291,7.1355,7.1455,7.1475,7.1547,7.1651,7.1743,7.1838,7.1893,7.1969,7.201,7.207,7.207,7.2461,7.2461,7.2695,7.2734,7.2851,7.293,7.3008,7.3555,7.3867,7.4297,7.4609,7.4844,7.4946,7.5091,7.5233,7.4999,7.472,7.472,7.4759,7.472,7.472,7.4642,7.4759,7.4954,7.5423,7.6125,7.632,7.6399,7.6555,7.6594,7.6906,7.7101,7.6984,7.6945,7.7023,7.7062,7.7023,7.7023,7.7062,7.7101,7.7101,7.7101,7.7101,6.132,6.205,6.2166,6.2666,6.3281,6.3445,6.3883,6.4603,6.4628,6.5089,6.5859,6.5782,6.582,6.5859,6.5897,6.5974,6.6051,6.6051,6.6513,6.6974,6.7128,6.7744,6.8205,6.8475,6.8975,6.9475,6.9783,7.0052,7.0821,7.0706,7.081,7.094,7.103,7.1106,7.1178,7.1247,7.1269,7.1291,7.1291,7.1291,7.1291,7.1291,7.1291,7.1291,7.1291,7.1291,7.1291,7.1291,7.1291,7.1291,7.1291,7.1291,7.1291,7.1291,7.1291,7.1291,7.1291,7.133,7.1523,7.1523,7.17,7.1918,7.1862,7.1758,7.1675,7.177,7.1838,7.2002,7.2125,7.2131,7.2148,7.2773,7.3359,7.3633,7.3984,7.4101,7.4258,7.4336,7.4375,7.4609,7.4805,7.5078,7.5273,7.5508,7.5859,7.5997,7.6063,7.5897,7.5579,7.5266,7.5266,7.5227,7.5227,7.5266,7.5423,7.5735,7.6008,7.6633,7.675,7.6867,7.7062,7.7101,7.7101,7.7101,7.7101,7.7101,7.7101,7.7101,7.7062,7.7101,7.7101,7.7101,7.7101,7.7101,7.7101,6.1858,6.2204,6.3358,6.4012,6.4282,6.4883,6.5307,6.5513,6.5551,6.5705,6.5897,6.5897,6.5897,6.5897,6.5897,6.6244,6.6551,6.6859,6.7359,6.7705,6.8052,6.8629,6.9052,6.9398,6.986,7.0244,7.0552,7.0591,7.0821,7.0898,7.0898,7.0925,7.0979,7.103,7.1106,7.1178,7.1286,7.1347,7.1369,7.1291,7.1291,7.1291,7.1291,7.1291,7.1291,7.1291,7.1291,7.1291,7.1291,7.1291,7.1291,7.1291,7.1291,7.1291,7.1291,7.1291,7.1369,7.1523,7.2043,7.222,7.2397,7.2865,7.3083,7.25,7.2151,7.1939,7.2011,7.2305,7.2672,7.283,7.3125,7.3633,7.4101,7.4453,7.4765,7.4961,7.5078,7.5117,7.5195,7.5547,7.5742,7.5976,7.6133,7.6289,7.6601,7.6797,7.6809,7.6605,7.6399,7.6047,7.593,7.5891,7.593,7.6008,7.6281,7.6594,7.6789,7.6984,7.7062,7.7101,7.7101,7.7101,7.7101,7.7101,7.7101,7.7101,7.7101,7.7101,7.7101,7.7101,7.7101,7.7101,7.7101,7.7101,7.7101,6.2474,6.3166,6.4166,6.4782,6.5166,6.5667,6.5897,6.5897,6.5897,6.5897,6.5897,6.5897,6.5897,6.5974,6.6244,6.6667,6.7051,6.7513,6.809,6.8744,6.8936,6.9475,6.9937,7.0167,7.0437,7.0783,7.0898,7.0821,7.0898,7.0898,7.0898,7.0898,7.0952,7.0979,7.103,7.1144,7.1472,7.1556,7.154,7.1369,7.1369,7.1369,7.1291,7.1369,7.1369,7.1369,7.1369,7.1369,7.133,7.1291,7.1291,7.1291,7.1291,7.1291,7.1601,7.1678,7.191,7.2375,7.2894,7.3109,7.3441,7.3734,7.3992,7.3491,7.3152,7.2949,7.3041,7.3183,7.3524,7.3828,7.418,7.4492,7.4805,7.5117,7.539,7.5664,7.5703,7.5703,7.6015,7.6406,7.668,7.6953,7.7148,7.7226,7.7187,7.7109,7.7052,7.699,7.6867,7.675,7.6633,7.6633,7.675,7.6867,7.7101,7.7101,7.7062,7.7062,7.7062,7.7101,7.7101,7.7101,7.7101,7.7101,7.7101,7.7101,7.7101,7.7101,7.7101,7.7101,7.7101,7.714,7.7101,7.7101,7.7101,6.3205,6.4551,6.4666,6.5166,6.582,6.5897,6.5897,6.5897,6.5897,6.5897,6.5897,6.5897,6.5974,6.6244,6.6667,6.7205,6.7744,6.8282,6.8975,6.9783,6.9783,7.0167,7.0552,7.0898,7.0783,7.086,7.0898,7.0898,7.0898,7.0898,7.0898,7.0898,7.0898,7.1002,7.1287,7.1364,7.1786,7.2438,7.2175,7.1888,7.1794,7.164,7.1485,7.164,7.1678,7.164,7.164,7.1562,7.1485,7.1523,7.1562,7.1678,7.1717,7.1756,7.2164,7.2413,7.2684,7.3203,7.3706,7.396,7.4115,7.4215,7.4121,7.4343,7.4381,7.3838,7.373,7.3904,7.4211,7.453,7.4883,7.5469,7.5898,7.6055,7.625,7.6445,7.6484,7.6484,7.6601,7.6914,7.6953,7.7226,7.7226,7.7226,7.7226,7.7226,7.722,7.7161,7.7146,7.7107,7.7107,7.7101,7.7101,7.7101,7.7101,7.7101,7.7101,7.7101,7.7101,7.7101,7.7101,7.7101,7.7101,7.7101,7.7101,7.7101,7.7101,7.7101,7.7101,7.7101,7.7101,7.7179,7.7179,7.7335,7.714,6.4193,6.4666,6.532,6.5743,6.5897,6.5897,6.5897,6.5897,6.5897,6.5897,6.5897,6.5974,6.6244,6.6744,6.7128,6.7782,6.8859,6.9167,6.986,7.0321,7.0514,7.0514,7.086,7.0898,7.0898,7.0898,7.0898,7.0898,7.0898,7.0898,7.0898,7.0937,7.1014,7.1272,7.1887,7.2006,7.2469,7.3316,7.3249,7.3103,7.3264,7.3264,7.3264,7.3209,7.317,7.3071,7.3071,7.3148,7.3226,7.3303,7.3264,7.3303,7.3303,7.3248,7.3347,7.3541,7.3612,7.4054,7.4518,7.4889,7.5044,7.5531,7.5708,7.5851,7.5644,7.4783,7.4413,7.4638,7.4918,7.5248,7.5664,7.6328,7.6836,7.6914,7.7031,7.7109,7.7226,7.7226,7.7226,7.7226,7.7226,7.7226,7.7226,7.7226,7.7226,7.7226,7.7226,7.7183,7.7165,7.7117,7.7112,7.7107,7.7101,7.7101,7.7101,7.7101,7.7101,7.7101,7.7101,7.7101,7.7101,7.7101,7.7101,7.7101,7.7101,7.7101,7.7101,7.714,7.714,7.7257,7.7531,7.7765,7.7999,7.8155,7.7687,6.4692,6.5154,6.5705,6.5897,6.5897,6.5897,6.5897,6.5897,6.5897,6.609,6.6397,6.6474,6.6705,6.7359,6.7859,6.8513,6.9706,7.009,7.0398,7.0783,7.0898,7.086,7.0898,7.0898,7.0898,7.0898,7.0898,7.0898,7.0975,7.0937,7.0975,7.136,7.1514,7.186,7.2629,7.2904,7.3304,7.4192,7.4306,7.4509,7.4672,7.4425,7.396,7.3906,7.3944,7.396,7.386,7.386,7.3883,7.3883,7.3767,7.3767,7.3728,7.3751,7.4022,7.4293,7.4541,7.4827,7.5368,7.574,7.5856,7.6266,7.6421,7.6234,7.6299,7.5585,7.5659,7.5867,7.5986,7.6292,7.6393,7.6875,7.6992,7.707,7.7109,7.7187,7.7226,7.7226,7.7226,7.7226,7.7226,7.7226,7.7226,7.7226,7.7226,7.7226,7.7226,7.7226,7.7187,7.7148,7.7126,7.7117,7.7107,7.7101,7.7101,7.7101,7.7101,7.7101,7.7101,7.7101,7.7101,7.7101,7.7101,7.7101,7.7101,7.7101,7.7101,7.7335,7.7609,7.7843,7.8194,7.8546,7.8741,7.8975,7.878,6.4928,6.5755,6.5872,6.5897,6.5897,6.5897,6.5897,6.5897,6.6013,6.6436,6.709,6.7321,6.7398,6.8013,6.8859,6.9475,7.0014,7.0475,7.0821,7.086,7.0898,7.0898,7.0898,7.0898,7.0898,7.1014,7.1129,7.1168,7.1206,7.1437,7.1898,7.2283,7.2552,7.2783,7.3427,7.3763,7.4152,7.4822,7.5208,7.5591,7.5422,7.5082,7.4618,7.4347,7.4231,7.4208,7.4208,7.4247,7.4231,7.4309,7.4502,7.4541,7.4541,7.4618,7.4811,7.5121,7.5276,7.5662,7.6088,7.6243,7.6281,7.6397,7.6397,7.6421,7.6488,7.6553,7.6594,7.6704,7.6844,7.6944,7.702,7.7068,7.7133,7.7187,7.7187,7.7226,7.7226,7.7226,7.7226,7.7226,7.7226,7.7226,7.7226,7.7226,7.7226,7.7226,7.7226,7.7226,7.7187,7.7187,7.7178,7.7169,7.7156,7.7151,7.7101,7.7101,7.7101,7.7101,7.7101,7.7101,7.7101,7.7101,7.7101,7.7101,7.7101,7.7218,7.7531,7.7843,7.8116,7.8507,7.878,7.917,7.9678,7.9873,8.0029,6.5408,6.5793,6.5872,6.5897,6.5897,6.5897,6.5897,6.6013,6.659,6.6974,6.7513,6.8667,6.9206,6.9206,6.9436,6.9937,7.0514,7.086,7.086,7.0898,7.0898,7.0898,7.0975,7.1091,7.0937,7.1168,7.1591,7.1937,7.1975,7.2552,7.3014,7.3245,7.3245,7.363,7.4322,7.462,7.4907,7.5501,7.5813,7.6057,7.6171,7.5963,7.6049,7.5933,7.5933,7.5933,7.5933,7.5933,7.5933,7.5933,7.5779,7.574,7.5662,7.5585,7.5779,7.5779,7.5933,7.6088,7.632,7.6397,7.6397,7.6397,7.6397,7.6421,7.6466,7.6527,7.6594,7.6651,7.6786,7.691,7.7004,7.7067,7.7112,7.713,7.7187,7.7187,7.7226,7.7226,7.7226,7.7226,7.7226,7.7226,7.7226,7.7226,7.7226,7.7226,7.7226,7.7226,7.7226,7.7226,7.7226,7.7187,7.7187,7.7151,7.7101,7.7101,7.7101,7.7101,7.7101,7.7101,7.7101,7.7101,7.7101,7.7335,7.7453,7.757,7.7921,7.8585,7.8897,7.9287,7.9405,7.9756,8.0381,8.0771,8.0888]},{"header":{"parameterUnit":"m.s-1","parameterCategory":1,"la1":31.0,"la2":29.5877,"lo1":-88.7671,"lo2":-86.6584,"dy":0.0162,"dx":0.0185,"nx":115,"ny":88,"refTime":"2025-03-14T06:00:00:Z","depth":0,"parameterNumber":3,"parameterNumberName":"V-component_of_WINDS"},"data":[0.0,0.0,0.0,0.0,0.0,0.0,0.0,0.0,0.0,0.0,0.0,0.0,0.0,0.0,0.0,0.0,0.0,0.0,0.0,0.0,0.0,0.0,0.0,0.0,0.0,0.0,0.0,0.0,0.0,0.0,0.0,0.0,0.0,0.0,0.0,0.0,0.0,0.0,0.0,0.0,0.0,0.0,0.0,0.0,0.0,0.0,0.0,0.0,0.0,0.0,0.0,0.0,0.0,0.0,0.0,0.0,0.0,0.0,0.0,0.0,0.0,0.0,0.0,0.0,0.0,0.0,0.0,0.0,0.0,0.0,0.0,0.0,0.0,0.0,0.0,0.0,0.0,0.0,0.0,0.0,0.0,0.0,0.0,0.0,0.0,0.0,0.0,0.0,0.0,0.0,0.0,0.0,0.0,0.0,0.0,0.0,0.0,0.0,0.0,0.0,0.0,0.0,0.0,0.0,0.0,0.0,0.0,0.0,0.0,0.0,0.0,0.0,0.0,0.0,0.0,0.0,0.0,0.0,0.0,0.0,0.0,0.0,0.0,0.0,0.0,0.0,0.0,0.0,0.0,0.0,0.0,0.0,0.0,0.0,0.0,0.0,0.0,0.0,0.0,0.0,0.0,0.0,0.0,0.0,0.0,0.0,0.0,0.0,0.0,0.0,0.0,0.0,0.0,0.0,0.0,0.0,0.0,0.0,0.0,0.0,0.0,0.0,0.0,0.0,0.0,0.0,0.0,0.0,0.0,0.0,0.0,0.0,0.0,0.0,0.0,0.0,0.0,0.0,0.0,0.0,0.0,0.0,0.0,0.0,0.0,0.0,0.0,0.0,0.0,0.0,0.0,0.0,0.0,0.0,0.0,0.0,0.0,0.0,0.0,0.0,0.0,0.0,0.0,0.0,0.0,0.0,0.0,0.0,0.0,0.0,0.0,0.0,0.0,0.0,0.0,0.0,0.0,0.0,0.0,0.0,0.0,0.0,0.0,0.0,0.0,0.0,0.0,0.0,0.0,0.0,0.0,0.0,0.0,0.0,0.0,0.0,0.0,0.0,0.0,0.0,0.0,0.0,0.0,0.0,0.0,0.0,0.0,0.0,0.0,0.0,0.0,0.0,0.0,0.0,0.0,0.0,0.0,0.0,0.0,0.0,0.0,0.0,0.0,0.0,0.0,0.0,0.0,0.0,0.0,0.0,0.0,0.0,0.0,0.0,0.0,0.0,0.0,0.0,0.0,0.0,0.0,0.0,0.0,0.0,0.0,0.0,0.0,0.0,0.0,0.0,0.0,0.0,0.0,0.0,0.0,0.0,0.0,0.0,0.0,0.0,0.0,0.0,0.0,0.0,0.0,0.0,0.0,0.0,0.0,0.0,0.0,0.0,0.0,0.0,0.0,0.0,0.0,0.0,0.0,0.0,0.0,0.0,0.0,0.0,0.0,0.0,0.0,0.0,0.0,0.0,0.0,0.0,0.0,0.0,0.0,0.0,0.0,0.0,0.0,0.0,0.0,0.0,0.0,0.0,0.0,0.0,0.0,0.0,0.0,0.0,0.0,0.0,0.0,0.0,0.0,0.0,0.0,0.0,0.0,0.0,0.0,0.0,0.0,0.0,0.0,0.0,0.0,0.0,0.0,0.0,0.0,0.0,0.0,0.0,0.0,0.0,0.0,0.0,0.0,0.0,0.0,0.0,0.0,0.0,0.0,0.0,0.0,0.0,0.0,0.0,0.0,0.0,0.0,0.0,0.0,0.0,0.0,0.0,0.0,0.0,0.0,0.0,0.0,0.0,0.0,0.0,0.0,0.0,0.0,0.0,0.0,0.0,0.0,0.0,0.0,0.0,0.0,0.0,0.0,0.0,0.0,0.0,0.0,0.0,0.0,0.0,0.0,0.0,0.0,0.0,0.0,0.0,0.0,0.0,0.0,0.0,0.0,0.0,0.0,0.0,0.0,0.0,0.0,0.0,0.0,0.0,0.0,0.0,0.0,0.0,0.0,0.0,0.0,0.0,0.0,0.0,0.0,0.0,0.0,0.0,0.0,0.0,0.0,0.0,0.0,0.0,0.0,0.0,0.0,0.0,0.0,0.0,0.0,0.0,0.0,0.0,0.0,0.0,0.0,0.0,0.0,0.0,0.0,0.0,0.0,0.0,0.0,0.0,0.0,0.0,0.0,0.0,0.0,0.0,0.0,0.0,0.0,0.0,0.0,0.0,0.0,0.0,0.0,0.0,0.0,0.0,0.0,0.0,0.0,0.0,0.0,0.0,0.0,0.0,0.0,0.0,0.0,0.0,0.0,0.0,0.0,0.0,0.0,0.0,0.0,0.0,0.0,0.0,0.0,0.0,0.0,0.0,0.0,0.0,0.0,0.0,0.0,0.0,0.0,0.0,0.0,0.0,0.0,0.0,0.0,0.0,0.0,0.0,0.0,0.0,0.0,0.0,0.0,0.0,0.0,0.0,0.0,0.0,0.0,0.0,0.0,0.0,0.0,0.0,0.0,0.0,0.0,0.0,0.0,0.0,0.0,0.0,0.0,0.0,0.0,0.0,0.0,0.0,0.0,0.0,0.0,0.0,0.0,0.0,0.0,0.0,0.0,0.0,0.0,0.0,0.0,0.0,0.0,0.0,0.0,0.0,0.0,0.0,0.0,0.0,0.0,0.0,0.0,0.0,0.0,0.0,0.0,0.0,0.0,0.0,0.0,0.0,0.0,0.0,0.0,0.0,0.0,0.0,0.0,0.0,0.0,0.0,0.0,0.0,0.0,0.0,0.0,0.0,0.0,0.0,0.0,0.0,0.0,0.0,0.0,0.0,0.0,0.0,0.0,0.0,0.0,0.0,0.0,0.0,0.0,0.0,0.0,0.0,0.0,0.0,0.0,0.0,0.0,0.0,0.0,0.0,0.0,0.0,0.0,0.0,0.0,0.0,0.0,0.0,0.0,0.0,0.0,0.0,0.0,0.0,0.0,0.0,0.0,0.0,0.0,0.0,0.0,0.0,0.0,0.0,0.0,0.0,0.0,0.0,0.0,0.0,0.0,0.0,0.0,0.0,0.0,0.0,0.0,0.0,0.0,0.0,0.0,0.0,0.0,0.0,0.0,0.0,0.0,0.0,0.0,0.0,0.0,0.0,0.0,0.0,0.0,0.0,0.0,0.0,0.0,0.0,0.0,0.0,0.0,0.0,0.0,0.0,0.0,0.0,0.0,0.0,0.0,0.0,0.0,0.0,0.0,0.0,0.0,0.0,0.0,0.0,0.0,0.0,0.0,0.0,0.0,0.0,0.0,0.0,0.0,0.0,0.0,0.0,0.0,0.0,0.0,0.0,0.0,0.0,0.0,0.0,0.0,0.0,0.0,0.0,0.0,0.0,0.0,0.0,0.0,0.0,0.0,0.0,0.0,0.0,0.0,0.0,0.0,0.0,0.0,0.0,0.0,0.0,0.0,0.0,0.0,0.0,0.0,0.0,0.0,0.0,0.0,0.0,0.0,0.0,0.0,0.0,0.0,0.0,0.0,0.0,0.0,0.0,0.0,0.0,0.0,0.0,0.0,0.0,0.0,0.0,0.0,0.0,0.0,0.0,0.0,0.0,0.0,0.0,0.0,0.0,0.0,0.0,0.0,0.0,0.0,0.0,0.0,0.0,0.0,0.0,0.0,0.0,0.0,0.0,0.0,0.0,0.0,0.0,0.0,0.0,0.0,0.0,0.0,0.0,0.0,0.0,0.0,0.0,0.0,0.0,0.0,0.0,0.0,0.0,0.0,0.0,0.0,0.0,0.0,0.0,0.0,0.0,0.0,0.0,0.0,0.0,0.0,0.0,0.0,0.0,0.0,0.0,0.0,0.0,0.0,0.0,0.0,0.0,0.0,0.0,0.0,0.0,0.0,0.0,0.0,0.0,0.0,0.0,0.0,0.0,0.0,0.0,0.0,0.0,0.0,0.0,0.0,0.0,0.0,0.0,0.0,0.0,0.0,0.0,0.0,0.0,0.0,0.0,0.0,0.0,0.0,0.0,0.0,0.0,0.0,0.0,0.0,0.0,0.0,0.0,0.0,0.0,0.0,0.0,0.0,0.0,0.0,0.0,0.0,0.0,0.0,0.0,0.0,0.0,0.0,0.0,0.0,0.0,0.0,0.0,0.0,0.0,0.0,0.0,0.0,0.0,0.0,0.0,0.0,0.0,0.0,0.0,0.0,0.0,0.0,0.0,0.0,0.0,0.0,0.0,0.0,0.0,0.0,0.0,0.0,0.0,0.0,0.0,0.0,0.0,-0.3011,0.0,0.0,0.0,0.0,0.0,0.0,0.0,0.0,0.0,0.0,0.0,0.0,0.0,0.0,0.0,0.0,0.0,0.0,0.0,0.0,0.0,0.0,0.0,0.0,0.0,0.0,0.0,0.0,0.0,0.0,0.0,0.0,0.0,0.0,0.0,0.0,0.0,0.0,0.0,0.0,0.0,0.0,0.0,0.0,0.0,0.0,0.0,0.0,0.0,0.0,0.0,0.0,0.0,0.0,0.0,0.0,0.0,0.0,0.0,0.0,0.0,0.0,0.0,0.0,0.0,0.0,0.0,0.0,0.0,0.0,0.0,0.0,0.0,0.0,0.0,0.0,0.0,0.0,0.0,0.0,0.0,0.0,0.0,0.0,0.0,0.0,0.0,0.0,0.0,0.0,0.0,0.0,0.0,0.0,0.0,0.0,0.0,0.0,0.0,0.0,0.0,0.0,0.0,0.0,0.0,0.0,0.0,0.0,0.0,0.0,-0.1839,-0.1943,-0.2166,-0.2457,-0.2737,0.0,0.0,0.0,0.0,0.0,0.0,0.0,0.0,0.0,0.0,0.0,0.0,0.0,0.0,0.0,0.0,0.0,0.0,0.0,0.0,0.0,0.0,0.0,0.0,0.0,0.0,0.0,0.0,0.0,0.0,0.0,0.0,0.0,0.0,0.0,0.0,0.0,0.0,0.0,0.0,0.0,0.0,0.0,0.0,0.0,0.0,0.0,0.0,0.0,0.0,0.0,0.0,0.0,0.0,0.0,0.0,0.0,0.0,0.0,0.0,0.0,0.0,0.0,0.0,0.0,0.0,0.0,0.0,0.0,0.0,0.0,0.0,0.0,0.0,0.0,0.0,0.0,0.0,0.0,0.0,0.0,0.0,0.0,0.0,0.0,0.0,0.0,0.0,0.0,0.0,0.0,0.0,0.0,0.0,0.0,0.0,0.0,0.0,0.0,0.0,0.0,0.0,0.0,0.0,0.0,0.0,0.0,0.0,0.0,0.0,0.0,0.0,-0.1943,-0.2161,-0.244,0.0,0.0,0.0,0.0,0.0,0.0,0.0,0.0,0.0,0.0,0.0,0.0,0.0,0.0,0.0,0.0,0.0,0.0,0.0,0.0,0.0,0.0,0.0,0.0,0.0,0.0,0.0,0.0,0.0,0.0,0.0,0.0,0.0,0.0,0.0,0.0,0.0,0.0,0.0,0.0,0.0,0.0,0.0,0.0,0.0,0.0,0.0,0.0,0.0,0.0,0.0,0.0,0.0,0.0,0.0,0.0,0.0,0.0,0.0,0.0,0.0,0.0,0.0,0.0,0.0,0.0,0.0,0.0,0.0,0.0,0.0,0.0,0.0,0.0,0.0,0.0,0.0,0.0,0.0,0.0,0.0,0.0,0.0,0.0,0.0,0.0,0.0,0.0,0.0,0.0,0.0,0.0,0.0,0.0,0.0,0.0,0.0,0.0,0.0,0.0,0.0,0.0,0.0,0.0,0.0,0.0,0.0,0.0,0.0,0.0,-0.1525,-0.1794,-0.1791,0.0,-0.202,0.0,0.0,0.0,0.0,0.0,0.0,0.0,0.0,0.0,0.0,0.0,0.0,0.0,0.0,0.0,0.0,0.0,0.0,0.0,0.0,0.0,0.0,0.0,0.0,0.0,0.0,0.0,0.0,0.0,0.0,0.0,0.0,0.0,0.0,0.0,0.0,0.0,0.0,0.0,0.0,0.0,0.0,0.0,0.0,0.0,0.0,0.0,0.0,0.0,0.0,0.0,0.0,0.0,0.0,0.0,0.0,0.0,0.0,0.0,0.0,0.0,0.0,0.0,0.0,0.0,0.0,0.0,0.0,0.0,0.0,0.0,0.0,0.0,0.0,0.0,0.0,0.0,0.0,0.0,0.0,0.0,0.0,0.0,0.0,0.0,0.0,0.0,0.0,0.0,0.0,0.0,0.0,0.0,0.0,0.0,0.0,0.0,0.0,0.0,0.0,0.0,0.0,0.0,0.0,0.0,0.0,0.0,0.0,0.0,0.0,-0.1436,-0.1525,-0.1683,-0.1735,0.0,0.0,0.0,0.0,0.0,0.0,0.0,0.0,0.0,0.0,0.0,0.0,0.0,0.0,0.0,0.0,0.0,0.0,0.0,0.0,0.0,0.0,0.0,0.0,0.0,0.0,0.0,0.0,0.0,0.0,0.0,0.0,0.0,0.0,0.0,0.0,0.0,0.0,0.0,0.0,0.0,0.0,0.0,0.0,0.0,0.0,0.0,0.0,0.0,0.0,0.0,0.0,0.0,0.0,0.0,0.0,0.0,0.0,0.0,0.0,0.0,0.0,0.0,0.0,0.0,0.0,0.0,0.0,0.0,0.0,0.0,0.0,0.0,0.0,0.0,0.0,0.0,0.0,0.0,0.0,0.0,0.0,0.0,0.0,0.0,0.0,0.0,0.0,0.0,0.0,0.0,0.0,0.0,0.0,0.0,0.0,0.0,0.0,0.0,0.0,0.0,0.0,0.0,0.0,0.0,0.0,0.0,0.0,0.0,0.0,-0.1436,0.0,-0.1434,-0.1581,-0.1635,-0.1599,0.0,0.0,0.0,0.0,0.0,0.0,0.0,0.0,0.0,0.0,0.0,0.0,0.0,0.0,0.0,0.0,0.0,0.0,0.0,0.0,0.0,0.0,0.0,0.0,0.0,0.0,0.0,0.0,0.0,0.0,0.0,0.0,0.0,0.0,0.0,0.0,0.0,0.0,0.0,0.0,0.0,0.0,0.0,0.0,0.0,0.0,0.0,0.0,0.0,0.0,0.0,0.0,0.0,0.0,0.0,0.0,0.0,0.0,0.0,0.0,0.0,0.0,0.0,0.0,0.0,0.0,0.0,0.0,0.0,0.0,0.0,0.0,0.0,0.0,0.0,0.0,0.0,0.0,0.0,0.0,0.0,0.0,0.0,0.0,0.0,0.0,0.0,0.0,0.0,0.0,0.0,0.0,0.0,0.0,0.0,0.0,0.0,0.0,0.0,0.0,0.0,0.0,0.0,0.0,0.0,0.0,0.0,0.0,0.0,-0.1436,-0.1436,-0.1434,-0.1407,-0.1377,0.0,0.0,0.0,0.0,0.0,0.0,0.0,0.0,0.0,0.0,0.0,0.0,0.0,0.0,0.0,0.0,0.0,0.0,0.0,0.0,0.0,0.0,0.0,0.0,0.0,0.0,0.0,0.0,0.0,0.0,0.0,0.0,0.0,0.0,0.0,0.0,0.0,0.0,0.0,0.0,0.0,0.0,0.0,0.0,0.0,0.0,0.0,0.0,0.0,0.0,0.0,0.0,0.0,0.0,0.0,0.0,0.0,0.0,0.0,0.0,0.0,0.0,0.0,0.0,0.0,0.0,0.0,0.0,0.0,0.0,0.0,0.0,0.0,0.0,0.0,0.0,0.0,0.0,0.0,0.0,0.0,0.0,0.0,0.0,0.0,0.0,0.0,0.0,0.0,0.0,0.0,0.0,0.0,0.0,0.0,0.0,0.0,0.0,0.0,0.0,0.0,0.0,0.0,0.0,0.0,0.0,0.0,0.0,0.0,-0.1431,-0.1436,-0.1436,-0.1434,-0.1425,-0.1396,0.0,0.0,0.0,0.0,0.0,0.0,0.0,0.0,0.0,0.0,0.0,0.0,0.0,0.0,0.0,0.0,0.0,0.0,0.0,0.0,0.0,0.0,0.0,0.0,0.0,0.0,0.0,0.0,0.0,0.0,0.0,0.0,0.0,0.0,0.0,0.0,0.0,0.0,0.0,0.0,0.0,0.0,0.0,0.0,0.0,0.0,0.0,0.0,0.0,0.0,0.0,0.0,0.0,0.0,0.0,0.0,0.0,0.0,0.0,0.0,0.0,0.0,0.0,0.0,0.0,0.0,0.0,0.0,0.0,0.0,0.0,0.0,0.0,0.0,0.0,0.0,0.0,0.0,0.0,0.0,0.0,0.0,0.0,0.0,0.0,0.0,0.0,0.0,0.0,0.0,0.0,0.0,0.0,0.0,0.0,0.0,0.0,0.0,0.0,0.0,0.0,0.0,0.0,0.0,0.0,0.0,0.0,0.0,0.0,-0.1433,0.0,-0.1436,0.0,-0.1436,-0.1408,0.0,0.0,0.0,0.0,0.0,0.0,0.0,0.0,0.0,0.0,0.0,0.0,0.0,0.0,0.0,0.0,0.0,0.0,0.0,0.0,0.0,0.0,0.0,0.0,0.0,0.0,0.0,0.0,0.0,0.0,0.0,0.0,0.0,0.0,0.0,0.0,0.0,0.0,0.0,0.0,0.0,0.0,0.0,0.0,0.0,0.0,0.0,0.0,0.0,0.0,0.0,0.0,0.0,0.0,0.0,0.0,0.0,0.0,0.0,0.0,0.0,0.0,0.0,0.0,0.0,0.0,0.0,0.0,0.0,0.0,0.0,0.0,0.0,0.0,0.0,0.0,0.0,0.0,0.0,0.0,0.0,0.0,0.0,0.0,0.0,0.0,0.0,0.0,0.0,0.0,0.0,0.0,0.0,0.0,0.0,0.0,0.0,0.0,0.0,0.0,0.0,0.0,0.0,0.0,0.0,0.0,0.0,0.0,-0.1378,-0.1433,-0.1436,-0.1436,-0.1436,-0.1436,-0.1407,0.0,0.0,0.0,0.0,0.0,0.0,0.0,0.0,0.0,0.0,0.0,0.0,0.0,0.0,0.0,0.0,0.0,0.0,0.0,0.0,0.0,0.0,0.0,0.0,0.0,0.0,0.0,0.0,0.0,0.0,0.0,0.0,0.0,0.0,0.0,0.0,0.0,0.0,0.0,0.0,0.0,0.0,0.0,0.0,0.0,0.0,0.0,0.0,0.0,0.0,0.0,0.0,0.0,0.0,0.0,0.0,0.0,0.0,0.0,0.0,0.0,0.0,0.0,0.0,0.0,0.0,0.0,0.0,0.0,0.0,0.0,0.0,0.0,0.0,0.0,0.0,0.0,0.0,0.0,0.0,0.0,0.0,0.0,0.0,0.0,0.0,0.0,0.0,0.0,0.0,0.0,0.0,0.0,0.0,0.0,0.0,0.0,0.0,0.0,0.0,0.0,0.0,0.0,0.0,0.0,0.0,0.0,0.0,0.0,-0.1434,-0.1436,-0.1436,-0.1436,-0.1436,-0.1408,0.0,0.0,0.0,0.0,0.0,0.0,0.0,0.0,0.0,0.0,0.0,0.0,0.0,0.0,0.0,0.0,0.0,0.0,0.0,0.0,0.0,0.0,0.0,0.0,0.0,0.0,0.0,0.0,0.0,0.0,0.0,0.0,0.0,0.0,0.0,0.0,0.0,0.0,0.0,0.0,0.0,0.0,0.0,0.0,0.0,0.0,0.0,0.0,0.0,0.0,0.0,0.0,0.0,0.0,0.0,0.0,0.0,0.0,0.0,0.0,0.0,0.0,0.0,0.0,0.0,0.0,0.0,0.0,0.0,0.0,0.0,0.0,0.0,0.0,0.0,0.0,0.0,0.0,0.0,0.0,0.0,0.0,0.0,0.0,0.0,0.0,0.0,0.0,0.0,0.0,0.0,0.0,0.0,0.0,0.0,0.0,0.0,0.0,0.0,0.0,0.0,0.0,0.0,0.0,0.0,0.0,0.0,0.0,0.0,-0.1452,-0.1452,-0.1457,-0.147,-0.1459,-0.1429,-0.1382,0.0,0.0,0.0,0.0,0.0,0.0,0.0,0.0,0.0,0.0,0.0,0.0,0.0,0.0,0.0,0.0,0.0,0.0,0.0,0.0,0.0,0.0,0.0,0.0,0.0,0.0,0.0,0.0,0.0,0.0,0.0,0.0,0.0,0.0,0.0,0.0,0.0,0.0,0.0,0.0,0.0,0.0,0.0,0.0,0.0,0.0,0.0,0.0,0.0,0.0,0.0,0.0,0.0,0.0,0.0,0.0,0.0,0.0,0.0,0.0,0.0,0.0,0.0,0.0,0.0,0.0,0.0,0.0,0.0,0.0,0.0,0.0,0.0,0.0,0.0,0.0,0.0,0.0,0.0,0.0,0.0,0.0,0.0,0.0,0.0,0.0,0.0,0.0,0.0,0.0,0.0,0.0,0.0,0.0,0.0,0.0,0.0,0.0,0.0,0.0,0.0,0.0,0.0,0.0,0.0,0.0,0.0,0.0,-0.1485,-0.1486,-0.1498,-0.1524,-0.1495,-0.1467,0.0,0.0,0.0,0.0,0.0,0.0,0.0,0.0,0.0,0.0,0.0,0.0,0.0,0.0,0.0,0.0,0.0,0.0,0.0,0.0,0.0,0.0,0.0,0.0,0.0,0.0,0.0,0.0,0.0,0.0,0.0,0.0,0.0,0.0,0.0,0.0,0.0,0.0,0.0,0.0,0.0,0.0,0.0,0.0,0.0,0.0,0.0,0.0,0.0,0.0,0.0,0.0,0.0,0.0,0.0,0.0,0.0,0.0,0.0,0.0,0.0,0.0,0.0,0.0,0.0,0.0,0.0,0.0,0.0,0.0,0.0,0.0,0.0,0.0,0.0,0.0,0.0,0.0,0.0,0.0,0.0,0.0,0.0,0.0,0.0,0.0,0.0,0.0,0.0,0.0,0.0,0.0,0.0,0.0,0.0,0.0,0.0,0.0,0.0,0.0,0.0,0.0,0.0,0.0,0.0,0.0,0.0,0.0,0.0,-0.1545,-0.1547,-0.154,-0.1527,-0.1497,-0.1467,0.0,0.0,0.0,0.0,0.0,0.0,0.0,0.0,0.0,0.0,0.0,0.0,0.0,0.0,0.0,0.0,0.0,0.0,0.0,0.0,0.0,0.0,0.0,0.0,0.0,0.0,0.0,0.0,0.0,0.0,0.0,0.0,0.0,0.0,0.0,0.0,0.0,0.0,0.0,0.0,0.0,0.0,0.0,0.0,0.0,0.0,0.0,0.0,0.0,0.0,0.0,0.0,0.0,0.0,0.0,0.0,0.0,0.0,0.0,0.0,0.0,0.0,0.0,0.0,0.0,0.0,0.0,0.0,0.0,0.0,0.0,0.0,0.0,0.0,0.0,0.0,0.0,0.0,0.0,0.0,0.0,0.0,0.0,0.0,0.0,0.0,0.0,0.0,0.0,0.0,0.0,0.0,0.0,0.0,0.0,0.0,0.0,0.0,0.0,0.0,0.0,0.0,0.0,0.0,0.0,0.0,0.0,0.0,-0.153,-0.159,-0.1603,-0.1602,-0.1484,-0.1542,-0.1505,0.0,0.0,0.0,0.0,0.0,0.0,0.0,0.0,0.0,0.0,0.0,0.0,0.0,0.0,0.0,0.0,0.0,0.0,0.0,0.0,0.0,0.0,0.0,0.0,0.0,0.0,0.0,0.0,0.0,0.0,0.0,0.0,0.0,0.0,0.0,0.0,0.0,0.0,0.0,0.0,0.0,0.0,0.0,0.0,0.0,0.0,0.0,0.0,0.0,0.0,0.0,0.0,0.0,0.0,0.0,0.0,0.0,0.0,0.0,0.0,0.0,0.0,0.0,0.0,0.0,0.0,0.0,0.0,0.0,0.0,0.0,0.0,0.0,0.0,0.0,0.0,0.0,0.0,0.0,0.0,0.0,0.0,0.0,0.0,0.0,0.0,0.0,0.0,0.0,0.0,0.0,0.0,0.0,0.0,0.0,0.0,0.0,0.0,0.0,0.0,0.0,0.0,0.0,0.0,0.0,0.0,0.0,0.0,-0.1466,-0.1621,-0.1651,-0.1666,-0.166,-0.1606,-0.156,0.0,0.0,0.0,0.0,0.0,0.0,0.0,0.0,0.0,0.0,0.0,0.0,0.0,0.0,0.0,0.0,0.0,0.0,0.0,0.0,0.0,0.0,0.0,0.0,0.0,0.0,0.0,0.0,0.0,0.0,0.0,0.0,0.0,0.0,0.0,0.0,0.0,0.0,0.0,0.0,0.0,0.0,0.0,0.0,0.0,0.0,0.0,0.0,0.0,0.0,0.0,0.0,0.0,0.0,0.0,0.0,0.0,0.0,0.0,0.0,0.0,0.0,0.0,0.0,0.0,0.0,0.0,0.0,0.0,0.0,0.0,0.0,0.0,0.0,0.0,0.0,0.0,0.0,0.0,0.0,0.0,0.0,0.0,0.0,0.0,0.0,0.0,0.0,0.0,0.0,0.0,0.0,0.0,0.0,0.0,0.0,0.0,0.0,0.0,0.0,0.0,0.0,0.0,0.0,0.0,0.0,0.0,0.0,-0.1111,-0.1652,-0.1682,-0.1686,-0.1662,-0.1626,-0.1581,0.0,0.0,0.0,0.0,0.0,0.0,0.0,0.0,0.0,0.0,0.0,0.0,0.0,0.0,0.0,0.0,0.0,0.0,0.0,0.0,0.0,0.0,0.0,0.0,0.0,0.0,0.0,0.0,0.0,0.0,0.0,0.0,0.0,0.0,0.0,0.0,0.0,0.0,0.0,0.0,0.0,0.0,0.0,0.0,0.0,0.0,0.0,0.0,-0.8031,0.0,0.0,0.0,0.0,0.0,0.0,0.0,0.0,0.0,0.0,0.0,0.0,0.0,0.0,0.0,0.0,0.0,0.0,0.0,0.0,0.0,0.0,0.0,0.0,0.0,0.0,0.0,0.0,0.0,0.0,0.0,0.0,0.0,0.0,0.0,0.0,0.0,0.0,0.0,0.0,0.0,0.0,0.0,0.0,0.0,0.0,0.0,0.0,0.0,0.0,0.0,0.0,0.0,0.0,0.0,0.0,0.0,0.0,0.0,-0.0921,-0.1367,-0.1605,-0.1714,-0.1789,-0.1666,-0.1617,0.0,0.0,0.0,0.0,0.0,0.0,0.0,0.0,0.0,0.0,0.0,0.0,0.0,0.0,0.0,0.0,0.0,0.0,0.0,0.0,0.0,0.0,0.0,0.0,0.0,0.0,0.0,0.0,0.0,0.0,0.0,0.0,0.0,0.0,0.0,0.0,0.0,0.0,0.0,0.0,0.0,0.0,0.0,0.0,0.0,0.0,0.0,0.0,0.0,0.0,0.0,0.0,0.0,0.0,0.0,0.0,0.0,0.0,0.0,0.0,0.0,0.0,0.0,0.0,0.0,0.0,0.0,0.0,0.0,0.0,0.0,0.0,0.0,0.0,0.0,0.0,0.0,0.0,0.0,0.0,0.0,0.0,0.0,0.0,0.0,0.0,0.0,0.0,0.0,0.0,0.0,0.0,0.0,0.0,0.0,0.0,0.0,0.0,0.0,0.0,0.0,0.0,0.0,0.0,0.0,0.0,0.0,-0.0599,-0.0725,-0.0963,-0.1416,-0.174,-0.1812,-0.1704,-0.1648,-0.1532,0.0,0.0,0.0,0.0,0.0,0.0,0.0,0.0,0.0,0.0,0.0,0.0,0.0,0.0,0.0,0.0,0.0,0.0,0.0,0.0,0.0,0.0,0.0,0.0,0.0,0.0,0.0,0.0,0.0,0.0,0.0,0.0,0.0,0.0,0.0,0.0,0.0,0.0,-0.7588,-0.7917,0.0,0.0,0.0,0.0,0.0,0.0,0.0,0.0,-0.8092,0.0,0.0,0.0,0.0,0.0,0.0,0.0,0.0,0.0,0.0,0.0,0.0,0.0,0.0,0.0,0.0,0.0,0.0,0.0,0.0,0.0,0.0,0.0,0.0,0.0,0.0,0.0,0.0,0.0,0.0,0.0,0.0,0.0,0.0,0.0,0.0,0.0,0.0,0.0,0.0,0.0,0.0,0.0,0.0,0.0,0.0,0.0,0.0,0.0,0.0,0.0,0.0,0.0,0.0,0.0,0.0,-0.0684,-0.0309,-0.032,-0.0871,-0.1439,-0.1761,-0.1813,-0.1704,-0.1648,-0.1534,0.0,0.0,0.0,0.0,0.0,0.0,0.0,0.0,0.0,0.0,0.0,0.0,0.0,0.0,0.0,0.0,0.0,0.0,0.0,0.0,0.0,0.0,0.0,0.0,0.0,0.0,0.0,0.0,0.0,0.0,0.0,0.0,0.0,0.0,0.0,0.0,0.0,0.0,0.0,-0.8011,-0.8289,0.0,0.0,0.0,0.0,0.0,0.0,0.0,0.0,-0.8228,0.0,0.0,0.0,0.0,0.0,0.0,0.0,0.0,0.0,0.0,0.0,0.0,0.0,0.0,0.0,0.0,0.0,0.0,0.0,0.0,0.0,0.0,0.0,0.0,0.0,0.0,0.0,0.0,0.0,0.0,0.0,0.0,0.0,0.0,0.0,0.0,0.0,0.0,0.0,0.0,0.0,0.0,0.0,0.0,0.0,0.0,0.0,0.0,0.0,0.0,0.0,0.0,0.0,0.0,0.0,-0.1083,-0.0311,-0.0323,-0.0875,-0.1446,-0.1767,-0.1813,-0.1704,-0.1648,0.0,0.0,0.0,0.0,0.0,0.0,0.0,0.0,0.0,0.0,0.0,0.0,0.0,0.0,0.0,0.0,0.0,0.0,0.0,0.0,0.0,0.0,0.0,0.0,0.0,0.0,0.0,0.0,0.0,0.0,0.0,0.0,0.0,0.0,0.0,0.0,0.0,0.0,0.0,0.0,-0.814,-0.8431,-0.8581,0.0,0.0,0.0,0.0,0.0,0.0,-0.8425,-0.8357,0.0,0.0,0.0,0.0,0.0,0.0,0.0,0.0,0.0,0.0,0.0,0.0,0.0,0.0,0.0,0.0,0.0,0.0,0.0,0.0,0.0,0.0,0.0,0.0,0.0,0.0,0.0,0.0,0.0,0.0,0.0,0.0,0.0,0.0,0.0,0.0,0.0,0.0,0.0,0.0,0.0,0.0,0.0,0.0,0.0,0.0,0.0,0.0,0.0,0.0,0.0,0.0,0.0,0.0,0.0,-0.1384,-0.052,-0.0323,-0.0879,-0.1448,-0.1765,-0.1813,-0.1704,-0.1648,0.0,0.0,0.0,0.0,0.0,0.0,0.0,0.0,0.0,0.0,0.0,0.0,0.0,0.0,0.0,0.0,0.0,0.0,0.0,0.0,0.0,0.0,0.0,0.0,0.0,0.0,0.0,0.0,0.0,0.0,0.0,0.0,0.0,0.0,0.0,0.0,0.0,0.0,0.0,0.0,0.0,-0.8547,-0.873,-0.8757,0.0,0.0,0.0,0.0,-0.8615,-0.8594,0.0,0.0,0.0,0.0,0.0,0.0,0.0,0.0,0.0,0.0,0.0,0.0,0.0,0.0,0.0,0.0,0.0,0.0,0.0,0.0,0.0,0.0,0.0,0.0,0.0,0.0,0.0,0.0,0.0,0.0,0.0,0.0,0.0,0.0,0.0,0.0,0.0,0.0,0.0,0.0,0.0,0.0,0.0,0.0,0.0,0.0,0.0,0.0,0.0,0.0,0.0,0.0,0.0,0.0,0.0,0.0,-0.1309,-0.0419,-0.0325,-0.0893,-0.1457,-0.1765,-0.1813,-0.1704,-0.1648,0.0,0.0,0.0,0.0,0.0,0.0,0.0,0.0,0.0,0.0,0.0,0.0,0.0,0.0,0.0,0.0,0.0,0.0,0.0,0.0,0.0,0.0,0.0,0.0,0.0,0.0,0.0,0.0,0.0,0.0,0.0,0.0,0.0,0.0,0.0,0.0,0.0,0.0,0.0,0.0,0.0,-0.8587,-0.8872,-0.8913,-0.896,0.0,0.0,-0.9076,-0.9076,-0.8967,0.0,0.0,0.0,0.0,0.0,0.0,0.0,0.0,0.0,0.0,0.0,0.0,0.0,0.0,0.0,0.0,0.0,0.0,0.0,0.0,0.0,0.0,0.0,0.0,0.0,0.0,0.0,0.0,0.0,0.0,0.0,0.0,0.0,0.0,0.0,0.0,0.0,0.0,0.0,0.0,0.0,0.0,0.0,0.0,0.0,0.0,0.0,0.0,0.0,0.0,0.0,0.0,0.0,0.0,0.0,-0.0972,-0.0606,-0.0209,-0.0108,-0.0448,-0.1346,-0.1765,-0.1812,-0.1704,-0.1648,0.0,0.0,0.0,0.0,0.0,0.0,0.0,0.0,0.0,0.0,0.0,0.0,0.0,0.0,0.0,0.0,0.0,0.0,0.0,0.0,0.0,0.0,0.0,0.0,0.0,0.0,0.0,0.0,0.0,0.0,0.0,0.0,0.0,0.0,0.0,0.0,0.0,0.0,0.0,0.0,0.0,0.0,-0.8686,-0.8798,0.0,0.0,0.0,-0.9286,-0.9279,0.0,0.0,0.0,0.0,0.0,0.0,0.0,0.0,0.0,0.0,0.0,0.0,0.0,0.0,0.0,0.0,0.0,0.0,0.0,0.0,0.0,0.0,0.0,0.0,0.0,0.0,0.0,0.0,0.0,0.0,0.0,0.0,0.0,0.0,0.0,0.0,0.0,0.0,0.0,0.0,0.0,0.0,0.0,0.0,0.0,0.0,0.0,0.0,0.0,0.0,0.0,0.0,0.0,0.0,0.0,0.0,0.0,0.0,0.0,0.0,0.0,-0.1009,-0.1655,-0.1813,-0.1704,0.0,0.0,0.0,0.0,0.0,0.0,0.0,0.0,0.0,0.0,0.0,0.0,0.0,0.0,0.0,0.0,0.0,0.0,0.0,0.0,0.0,0.0,0.0,0.0,0.0,0.0,0.0,-0.3325,0.0,0.0,0.0,0.0,0.0,0.0,0.0,0.0,0.0,0.0,0.0,0.0,0.0,0.0,-0.809,-0.8665,-0.8826,-0.9046,0.0,0.0,-0.9442,-0.9435,-0.9313,-0.915,0.0,0.0,0.0,0.0,0.0,0.0,0.0,0.0,0.0,0.0,0.0,0.0,0.0,0.0,0.0,0.0,0.0,0.0,0.0,0.0,0.0,0.0,0.0,0.0,0.0,0.0,0.0,0.0,0.0,0.0,0.0,0.0,0.0,0.0,0.0,0.0,0.0,0.0,0.0,0.0,0.0,0.0,0.0,0.0,0.0,0.0,0.0,0.0,0.0,0.0,0.0,0.0,0.0,0.0,0.0,0.0,0.0,0.0,0.0,-0.0673,-0.1215,-0.1816,-0.1705,-0.1648,0.0,0.0,0.0,0.0,0.0,0.0,0.0,0.0,0.0,0.0,0.0,0.0,0.0,0.0,0.0,0.0,0.0,0.0,0.0,0.0,0.0,0.0,0.0,0.0,0.0,0.0,0.0,0.0,0.0,0.0,0.0,0.0,0.0,0.0,0.0,0.0,0.0,0.0,0.0,0.0,0.0,-0.8196,-0.8678,-0.8826,-0.9085,0.0,0.0,-0.9591,-0.9598,-0.9469,-0.9273,-0.8988,0.0,0.0,0.0,0.0,0.0,0.0,0.0,0.0,0.0,0.0,0.0,0.0,0.0,0.0,0.0,0.0,0.0,0.0,0.0,0.0,0.0,0.0,0.0,0.0,0.0,0.0,0.0,0.0,0.0,0.0,0.0,0.0,0.0,0.0,0.0,0.0,0.0,0.0,0.0,0.0,0.0,0.0,0.0,0.0,0.0,0.0,0.0,0.0,0.0,0.0,0.0,0.0,0.0,-0.0391,0.0,0.0,0.0,0.0,-0.0561,-0.1215,-0.1816,-0.1705,-0.1648,0.0,0.0,0.0,0.0,0.0,0.0,0.0,0.0,0.0,0.0,0.0,0.0,0.0,0.0,0.0,0.0,0.0,0.0,0.0,0.0,0.0,0.0,0.0,0.0,0.0,0.0,0.0,0.0,-0.3531,-0.393,-0.4529,0.0,0.0,0.0,0.0,0.0,0.0,0.0,0.0,0.0,0.0,-0.722,-0.7991,-0.8438,0.0,0.0,-0.9761,-0.9876,-0.9876,-0.968,-0.9449,-0.9245,-0.9015,0.0,0.0,0.0,0.0,0.0,0.0,0.0,0.0,0.0,0.0,0.0,0.0,0.0,0.0,0.0,0.0,0.0,0.0,0.0,0.0,0.0,0.0,0.0,0.0,0.0,0.0,0.0,0.0,0.0,0.0,0.0,0.0,0.0,0.0,0.0,0.0,0.0,0.0,0.0,0.0,0.0,0.0,0.0,0.0,0.0,0.0,0.0,0.0,0.0,0.0,0.0,0.0,0.0,0.0,0.0,0.0,0.0,-0.0561,-0.1218,-0.1831,-0.171,-0.1656,0.0,0.0,0.0,0.0,0.0,0.0,0.0,0.0,0.0,0.0,0.0,0.0,0.0,0.0,0.0,0.0,0.0,0.0,0.0,0.0,0.0,0.0,0.0,0.0,0.0,0.0,0.0,0.0,-0.33,-0.3766,-0.4197,0.0,0.0,0.0,0.0,0.0,0.0,0.0,0.0,0.0,0.0,-0.6546,-0.735,-0.8038,-0.8693,-0.9237,-0.958,-0.9804,-0.9804,-0.968,-0.9571,-0.9469,0.0,0.0,0.0,0.0,0.0,0.0,0.0,0.0,0.0,0.0,0.0,0.0,0.0,0.0,0.0,0.0,0.0,0.0,0.0,0.0,0.0,0.0,0.0,0.0,0.0,0.0,0.0,0.0,0.0,0.0,0.0,0.0,0.0,0.0,0.0,0.0,0.0,0.0,0.0,0.0,0.0,0.0,0.0,0.0,0.0,0.0,0.0,0.0,0.0,0.0,0.0,0.0,0.0,0.0,0.0,0.0,0.0,-0.0,-0.0561,-0.1223,-0.1749,-0.172,-0.1675,-0.1614,0.0,0.0,0.0,0.0,0.0,0.0,0.0,0.0,0.0,0.0,0.0,0.0,0.0,0.0,0.0,0.0,0.0,0.0,0.0,0.0,0.0,0.0,0.0,0.0,0.0,0.0,-0.2611,-0.3172,-0.35,0.0,0.0,0.0,0.0,0.0,0.0,0.0,0.0,0.0,0.0,-0.552,-0.6291,-0.6733,-0.7604,-0.8226,-0.8718,-0.9142,-0.9561,-0.9561,-0.9566,-0.9612,0.0,0.0,0.0,0.0,0.0,0.0,0.0,0.0,0.0,0.0,0.0,0.0,0.0,0.0,0.0,0.0,0.0,0.0,0.0,0.0,0.0,0.0,0.0,0.0,0.0,0.0,0.0,0.1675,0.1663,0.0,0.0,0.0,0.0,0.0,0.0,0.0,0.0,0.0,0.0,0.0,0.0,0.0,0.0,0.0,0.0,0.0,0.0,0.0,0.0,0.0,0.0,0.0,0.0,0.0,0.0,0.0,0.0,-0.0439,-0.1121,-0.1009,-0.1224,-0.175,-0.172,-0.1667,-0.159,0.0,0.0,0.0,0.0,0.0,0.0,0.0,0.0,0.0,0.0,0.0,0.0,0.0,0.0,0.0,0.0,0.0,0.0,0.0,0.0,0.0,0.0,0.0,0.0,0.0,-0.1989,0.0,0.0,0.0,0.0,0.0,0.0,0.0,0.0,0.0,0.0,0.0,-0.4522,-0.4195,-0.4801,-0.5437,-0.6222,-0.6832,-0.7571,0.0,0.0,0.0,0.0,0.0,0.0,0.0,0.0,0.0,0.0,0.0,0.0,0.0,0.0,-0.9503,-0.9211,-0.9157,-0.9137,-0.9089,0.0,0.0,0.0,0.0,0.0,0.0,0.0,0.0,0.0,0.0,0.0,0.0,0.0,0.0,0.2494,0.0,0.1963,0.0,0.0,0.0,0.0,0.0,0.0,0.0,0.0,0.0,0.0,0.0,0.0,0.0,0.0,0.0,0.0,0.0,0.0,0.0,0.0,0.0,0.0,0.0,0.0,0.0,0.0,0.0,-0.0552,-0.1681,-0.1458,-0.145,-0.1765,-0.1726,-0.1667,-0.159,-0.152,-0.1468,0.0,0.0,0.0,0.0,0.0,0.0,0.0,0.0,0.0,0.0,0.0,0.0,0.0,0.0,0.0,0.0,0.0,0.0,0.0,0.0,0.0,0.0,0.0,-0.1679,0.0,0.0,0.0,0.0,0.0,0.0,0.0,0.0,0.0,-0.4814,-0.4354,-0.396,-0.3838,-0.4181,-0.4787,-0.5437,0.0,0.0,0.0,0.0,0.0,0.0,0.0,-0.9686,-0.9869,-0.9842,-0.9842,-0.9842,-0.9917,-1.0012,-1.0114,0.0,0.0,-0.9673,-0.9618,-0.9598,-0.9544,-0.9578,-0.9646,-0.9741,-0.9808,-0.9869,0.0,0.0,0.0,0.0,0.0,0.0,0.0,0.0,0.3171,0.2962,0.0,0.273,0.0,0.0,0.0,0.0,0.0,0.0,0.0,0.0,0.0,0.0,0.0,0.0,0.0,0.0,0.0,0.0,0.0,0.0,0.0,0.0,0.0,0.0,0.0,0.0,0.0,0.0,0.0,-0.0553,-0.1682,-0.1795,-0.1795,-0.1791,-0.1735,-0.1678,-0.1621,-0.1588,-0.1531,-0.1445,-0.1436,0.0,0.0,0.0,0.0,0.0,0.0,0.0,0.0,0.0,0.0,0.0,0.0,0.0,0.0,0.0,0.0,0.0,0.0,0.0,0.0,-0.1596,0.0,0.0,0.0,0.0,0.0,0.0,0.0,0.0,0.0,0.0,-0.4155,-0.3827,-0.3548,-0.3831,0.0,0.0,0.0,0.0,-0.595,-0.6435,-0.7304,-0.8024,-0.8802,-0.9343,-0.9761,-1.027,0.0,0.0,-1.0283,-1.029,-1.0297,-1.0297,-1.0304,-1.0249,-1.01,-1.0053,-0.9998,-0.9869,-0.9944,-1.0046,-1.0073,-1.0168,-1.027,0.4532,0.0,0.0,0.0,0.0,0.3642,0.3852,0.4344,0.4223,0.4118,0.3932,0.3628,0.0,0.0,0.0,0.0,0.0,0.0,0.0,0.0,0.0,0.0,0.0,0.0,0.0,0.0,0.0,0.0,0.0,0.0,0.0,0.0,0.0,0.0,0.0,0.0,0.0,0.0,-0.0447,-0.0791,-0.1121,-0.1589,-0.1806,-0.1764,-0.1746,-0.171,-0.1651,-0.162,-0.1581,-0.1534,-0.147,0.0,0.0,0.0,0.0,0.0,0.0,0.0,0.0,0.0,0.0,0.0,0.0,0.0,0.0,0.0,0.0,0.0,0.0,0.0,-0.1451,-0.1554,-0.1661,0.0,0.0,0.0,0.0,0.0,0.0,0.0,0.0,0.0,-0.3823,-0.3605,-0.3261,0.0,0.0,-0.3591,-0.431,-0.4467,-0.5162,-0.6305,-0.696,0.0,-0.8688,-0.9293,-0.9619,-1.0169,-1.0365,-1.0432,-1.0432,-1.0521,-1.0595,-1.0588,-1.0595,-1.0575,-1.0527,-1.0223,-1.0082,-1.0161,-1.0188,-1.0249,-1.0344,-1.0405,-1.0466,0.5606,0.4667,0.4025,0.4,0.4281,0.4375,0.4589,0.5006,0.4966,0.4875,0.4714,0.4395,0.3905,0.3525,0.2476,0.0,0.0,0.0,0.0,0.0,0.0,0.0,0.0,0.0,0.0,0.0,0.0,0.0,0.0,0.0,0.0,0.0,0.0,0.0,0.0,0.0,0.0,0.0,-0.0568,-0.0918,-0.0916,-0.1492,-0.1817,-0.177,-0.1756,-0.1727,-0.1681,-0.1651,-0.1615,-0.1573,-0.1508,-0.146,0.0,0.0,0.0,0.0,0.0,0.0,0.0,0.0,0.0,0.0,0.0,-0.1321,0.0,0.0,0.0,0.0,-0.1411,-0.1355,-0.1494,-0.1498,0.0,0.0,0.0,0.0,0.0,0.0,0.0,-0.2459,-0.2625,-0.2937,-0.3314,-0.3242,-0.289,-0.2261,-0.2564,-0.3134,-0.3687,0.0,-0.4397,-0.564,-0.6317,-0.7231,-0.8492,-0.9144,-0.977,-1.0344,-1.0521,-1.0582,-1.0588,-1.0663,-1.0717,-1.0717,-1.0717,-1.0717,-1.0717,-1.0484,-1.0384,-1.0466,-1.046,-1.0487,-1.0568,-1.0629,-1.0704,0.6237,0.5922,0.5147,0.4975,0.5065,0.5065,0.5216,0.5586,0.5494,0.5504,0.5494,0.4919,0.4594,0.4208,0.2489,0.0,0.1575,0.0591,0.0,0.0101,0.0103,0.0,0.0,0.0,0.0,0.0,0.0,0.0,0.0,0.0,0.0,0.0,0.0,0.0,0.0,0.0,0.0,0.0,-0.0687,-0.1046,-0.1061,-0.1509,-0.1827,-0.18,-0.177,-0.1738,-0.1705,-0.168,-0.1637,-0.1579,-0.1546,-0.1502,-0.1446,0.0,0.0,0.0,0.0,0.0,0.0,0.0,0.0,0.0,0.0,0.0,0.0,0.0,0.0,0.0,-0.136,0.0,-0.153,-0.1534,0.0,0.0,0.0,-0.1639,-0.167,-0.1966,-0.2138,-0.2143,0.0,0.0,-0.2719,-0.2666,-0.2457,-0.22,-0.2357,-0.2643,-0.3039,-0.347,-0.4037,-0.4705,-0.5781,-0.6853,-0.8312,-0.925,-0.9908,-1.0565,-1.0717,-1.0711,-1.0711,-1.0717,-1.0717,-1.0744,-1.0744,-1.0751,-1.0751,-1.0732,-1.0644,-1.0778,-1.0758,-1.0758,-1.0772,-1.0867,-1.0948,0.6337,0.6232,0.608,0.5862,0.5763,0.5763,0.5877,0.6195,0.6168,0.6075,0.5902,0.5678,0.507,0.398,0.3188,0.2496,0.2005,0.1526,0.1231,0.1341,0.1367,0.0848,0.0,0.0,0.0,0.0,0.0,0.0,0.0,0.0,0.0,0.0,0.0,0.0,0.0,0.0,0.0,0.0,-0.0706,-0.1196,-0.1678,-0.1751,-0.1836,-0.1829,-0.18,-0.1759,-0.1707,-0.1697,-0.1666,-0.1609,-0.1577,-0.1543,-0.1506,-0.1453,0.0,0.0,0.0,0.0,0.0,0.0,0.0,0.0,0.0,-0.1391,-0.1412,0.0,-0.1468,0.0,-0.1506,-0.1536,-0.1689,-0.1595,0.0,0.0,-0.17,-0.173,-0.176,-0.1802,-0.1847,-0.2012,-0.2181,-0.2233,-0.2162,-0.2205,-0.2239,-0.2262,-0.2273,-0.2411,-0.2682,-0.3088,-0.3631,-0.4705,-0.5644,-0.6853,-0.8056,-0.9256,-1.006,-1.0326,-1.0585,-1.0717,-1.0717,-1.0717,-1.0758,-1.0867,-1.0894,-1.0934,-1.1029,-1.0946,-1.0816,-1.1063,-1.1056,-1.1056,-1.1056,-1.1084,-1.1111,0.66,0.66,0.66,0.6497,0.6287,0.6183,0.6237,0.6437,0.6437,0.6337,0.6142,0.5942,0.5236,0.4332,0.3833,0.3344,0.2862,0.2271,0.1978,0.1996,0.2354,0.1943,0.0755,0.0544,0.0437,0.0436,0.0109,0.0,0.0,0.0,0.0,0.0,0.0,0.0,0.0,0.0,0.0,0.0,-0.0602,-0.1337,-0.193,-0.1884,-0.1854,-0.184,-0.181,-0.1767,-0.1707,-0.1704,-0.1677,-0.162,-0.1588,-0.1564,-0.1547,-0.1501,-0.1461,0.0,0.0,0.0,0.0,0.0,0.0,0.0,0.0,0.0,0.0,0.0,-0.1519,-0.1465,-0.1469,-0.1591,-0.1651,-0.1667,-0.1695,-0.174,-0.1772,-0.1802,-0.1832,-0.1862,-0.1899,-0.1945,-0.1977,-0.2018,-0.2076,-0.2099,-0.2121,-0.215,-0.2155,-0.229,-0.2425,-0.2827,-0.3497,-0.4303,-0.5376,-0.6715,-0.8056,-0.9123,-0.9788,-0.9927,-1.0326,-1.0459,-1.0452,-1.0585,-1.0772,-1.0914,-1.0948,-1.0995,-1.1131,-1.108,-1.0975,-1.1267,-1.1321,-1.1314,-1.1192,-1.1219,-1.1267,0.6801,0.6801,0.6801,0.6801,0.6785,0.6573,0.6475,0.6458,0.6442,0.6442,0.6364,0.5871,0.5372,0.4968,0.4365,0.4099,0.3846,0.3023,0.2632,0.2568,0.3268,0.3074,0.1977,0.134,0.1125,0.1013,0.0451,0.0228,0.0115,0.0,0.0,0.0,0.0,0.0,0.0,0.0,0.0,0.0,-0.0614,-0.135,-0.1937,-0.1903,-0.1873,-0.1846,-0.1813,-0.1765,-0.1708,-0.1704,-0.1677,-0.162,-0.1591,-0.1576,-0.157,-0.1546,-0.1519,0.0,-0.1393,0.0,0.0,0.0,0.0,0.0,0.0,0.0,0.0,-0.1545,-0.157,-0.1522,-0.153,-0.1553,-0.1711,-0.1853,-0.1884,-0.1804,-0.1834,-0.1862,-0.1889,-0.1921,-0.1952,-0.1979,-0.2009,-0.2052,-0.2099,-0.2112,-0.2127,-0.215,-0.2155,-0.2155,-0.229,-0.2692,-0.3228,-0.3768,-0.4977,-0.6447,-0.7917,-0.8584,-0.8984,-0.9522,-0.9794,-1.006,-1.0193,-1.0478,-1.0665,-1.0941,-1.1009,-1.107,-1.1192,-1.1194,-1.1275,-1.1423,-1.1511,-1.1518,-1.1321,-1.1335,-1.1416,0.6801,0.6801,0.6801,0.6801,0.6796,0.6647,0.6572,0.6578,0.648,0.6491,0.6589,0.6375,0.6103,0.5689,0.5164,0.4853,0.4556,0.4303,0.4016,0.3594,0.3987,0.3572,0.2792,0.2383,0.2058,0.1719,0.1625,0.1287,0.0821,0.0235,0.0,0.0,0.0,0.0,0.0,0.0,0.0,0.0,-0.0617,-0.1356,-0.1966,-0.1914,-0.1883,-0.1876,-0.1824,0.0,-0.1708,-0.1704,-0.1678,-0.1621,-0.1611,0.0,0.0,0.0,0.0,0.0,0.0,0.0,0.0,0.0,0.0,0.0,-0.1617,-0.162,-0.1603,-0.1643,-0.1675,-0.1581,-0.1603,-0.174,-0.1886,-0.1918,-0.1835,-0.1865,-0.1896,-0.1917,-0.1924,-0.197,-0.2005,-0.2011,-0.2059,-0.2095,-0.2109,-0.2129,-0.2147,-0.2154,-0.2155,-0.2155,-0.2155,-0.2558,-0.3096,-0.3768,-0.4973,-0.618,-0.7254,-0.765,-0.8051,-0.8584,-0.9117,-0.9522,-1.0073,-1.029,-1.067,-1.096,-1.1226,-1.1348,-1.1497,-1.1558,-1.1565,-1.1579,-1.1599,-1.1606,-1.1545,-1.1552,-1.1579,0.6975,0.0,0.6975,0.6975,0.0,0.6915,0.6855,0.679,0.6665,0.6654,0.6714,0.6453,0.6373,0.6167,0.5744,0.5558,0.5388,0.5331,0.5049,0.4867,0.4801,0.4392,0.3743,0.3431,0.3114,0.2676,0.2346,0.201,0.1431,0.1073,0.0838,0.0483,0.0486,0.0488,0.0488,0.0123,0.0,0.0,-0.037,-0.0988,-0.1975,-0.1932,-0.19,-0.1885,-0.1842,0.0,0.0,0.0,0.0,0.0,0.0,0.0,0.0,0.0,0.0,-0.1515,-0.1513,-0.1614,-0.1614,-0.1629,-0.1644,-0.1659,-0.1701,-0.1708,-0.1663,-0.1701,-0.1733,-0.1639,-0.1665,-0.1806,-0.1952,-0.1984,-0.1891,-0.1909,-0.1948,-0.1974,-0.1978,-0.2014,-0.2046,-0.2063,-0.209,-0.2114,-0.2129,-0.2143,-0.2154,-0.2155,-0.2155,-0.2155,-0.229,-0.2425,-0.2963,-0.3905,-0.4574,-0.5513,-0.6585,-0.6719,-0.6982,-0.765,-0.8184,-0.8606,-0.9344,-0.9673,-1.0048,-1.0803,-1.1061,-1.116,-1.1579,-1.1619,-1.1619,-1.1619,-1.1619,-1.1619,-1.1619,-1.1619,-1.1619,0.7265,0.7154,0.7154,0.7154,0.7149,0.7166,0.7122,0.7008,0.0,0.0,0.0,0.6637,0.6536,0.6536,0.6221,0.6168,0.6141,0.6032,0.5859,0.5824,0.5601,0.5314,0.4707,0.4491,0.4187,0.3546,0.3083,0.2629,0.2181,0.2181,0.1829,0.1233,0.1235,0.1235,0.1112,0.0494,0.0123,0.0,0.0,-0.0617,-0.1729,-0.1947,-0.1919,-0.1894,-0.1858,-0.1814,-0.176,-0.1752,-0.1735,-0.1705,-0.1704,-0.1704,-0.1704,-0.1704,-0.1704,-0.1598,-0.1601,-0.1605,-0.1712,-0.1722,-0.1731,-0.1735,-0.1782,-0.179,-0.174,-0.176,-0.1783,-0.1696,-0.1723,-0.1866,-0.2009,-0.2041,-0.1941,-0.1947,-0.1989,-0.2019,-0.2027,-0.2053,-0.208,-0.2105,-0.2113,-0.2127,-0.215,-0.2154,-0.2155,-0.2155,-0.2155,-0.2155,-0.229,-0.2425,-0.2963,-0.377,-0.4037,-0.4574,-0.5647,-0.5781,-0.5912,-0.6447,-0.7,-0.7579,-0.8335,-0.8938,-0.9596,-1.0345,-1.0696,-1.0915,-1.1449,-1.1476,-1.1619,-1.1619,-1.1619,-1.1619,-1.1619,-1.1619,-1.1619,0.7382,0.7154,0.7154,0.7154,0.7154,0.7249,0.7243,0.7122,0.7008,0.6959,0.6964,0.7062,0.71,0.7105,0.6774,0.6569,0.6579,0.6362,0.626,0.6274,0.6163,0.5877,0.5394,0.5358,0.4965,0.4205,0.3894,0.3556,0.3198,0.2827,0.2339,0.1849,0.1851,0.1851,0.1853,0.1236,0.0617,0.0,0.0,-0.037,-0.1111,-0.1703,-0.1929,-0.1922,-0.187,-0.1824,-0.179,-0.1764,-0.1735,-0.1705,-0.1704,-0.1704,-0.1704,-0.1707,-0.1704,-0.1705,-0.1729,-0.1742,-0.1854,-0.1903,-0.1832,-0.1857,-0.1869,-0.1869,-0.1862,-0.1864,-0.1869,-0.1873,-0.1899,-0.1919,-0.2047,-0.2074,-0.1979,-0.2,-0.2014,-0.2029,-0.2054,-0.2084,-0.2105,-0.2112,-0.2133,-0.2148,-0.2153,-0.2155,-0.2155,-0.2155,-0.2155,-0.2155,-0.229,-0.2425,-0.2694,-0.2963,-0.323,-0.3633,-0.444,-0.4574,-0.4708,-0.4705,-0.5836,-0.6838,-0.7698,-0.8516,-0.9198,-0.9683,-1.0203,-1.0562,-1.1044,-1.1345,-1.1482,-1.1619,-1.1619,-1.1619,-1.1619,-1.1619,-1.1619,0.7493,0.7154,0.7154,0.7154,0.7154,0.7154,0.7154,0.7149,0.71,0.7078,0.7084,0.7133,0.7154,0.7154,0.7043,0.6937,0.6932,0.6826,0.6826,0.6831,0.6669,0.6526,0.6281,0.6147,0.5646,0.5122,0.4913,0.4438,0.3946,0.3576,0.3207,0.2837,0.259,0.2467,0.2344,0.1975,0.1604,0.1111,0.037,-0.0123,-0.0494,-0.1471,-0.1948,-0.1932,-0.1903,-0.1876,-0.1846,-0.1831,-0.1817,-0.1804,-0.1802,-0.1802,-0.1802,-0.1802,-0.1802,-0.1804,-0.1702,-0.1823,-0.1937,-0.1966,-0.1879,-0.1907,-0.191,-0.1918,-0.1934,-0.1919,-0.191,-0.1911,-0.1937,-0.1955,-0.1956,-0.1982,-0.2005,-0.2016,-0.2046,-0.2074,-0.2089,-0.2116,-0.2133,-0.2135,-0.2146,-0.2154,-0.2155,-0.2155,-0.2155,-0.2155,-0.2155,-0.2155,-0.2155,-0.229,-0.2425,-0.2694,-0.2828,-0.3096,-0.3633,-0.3765,-0.3912,-0.4343,-0.4919,-0.5797,-0.67,-0.7517,-0.814,-0.8775,-0.9407,-0.9873,-1.0317,-1.105,-1.1338,-1.1332,-1.1476,-1.1619,-1.1619,-1.1619,-1.1619,0.7493,0.7265,0.7265,0.7154,0.7154,0.7154,0.7154,0.7154,0.7154,0.7154,0.7154,0.7154,0.7154,0.7154,0.7154,0.7154,0.7154,0.7154,0.7171,0.7203,0.7069,0.6955,0.697,0.6703,0.631,0.6031,0.5667,0.5176,0.4684,0.4315,0.3946,0.3702,0.333,0.3083,0.2837,0.2837,0.259,0.2219,0.1111,0.037,-0.0,-0.1112,-0.1842,-0.1944,-0.1934,-0.1919,-0.1898,-0.1889,-0.1885,-0.1885,-0.1885,-0.1885,-0.1885,-0.1885,-0.1885,-0.1768,-0.1774,-0.1899,-0.2025,-0.1906,-0.1917,-0.1939,-0.1941,-0.1951,-0.1971,-0.1955,-0.1941,-0.1944,-0.1962,-0.1975,-0.1977,-0.1994,-0.2011,-0.202,-0.2065,-0.2097,-0.211,-0.2136,-0.2155,-0.2155,-0.2155,-0.2155,-0.2155,-0.2155,-0.2155,-0.2155,-0.2155,-0.2155,-0.2155,-0.2155,-0.229,-0.2425,-0.2559,-0.2694,-0.2961,-0.3105,-0.3394,-0.3979,-0.4282,-0.4893,-0.5679,-0.629,-0.69,-0.7539,-0.843,-0.9013,-0.959,-1.0323,-1.09,-1.09,-1.1188,-1.1476,-1.1619,-1.1619,-1.1619,0.7826,0.7493,0.7271,0.7154,0.7154,0.7154,0.7154,0.7154,0.7154,0.7154,0.7154,0.7154,0.7154,0.7154,0.7154,0.7154,0.716,0.7154,0.7214,0.7312,0.7215,0.7227,0.7184,0.709,0.6793,0.6394,0.6035,0.5667,0.5298,0.4933,0.4687,0.4315,0.3946,0.3822,0.382,0.3579,0.3332,0.3207,0.2344,0.1234,0.0,-0.0494,-0.1235,-0.1973,-0.1945,-0.193,-0.1926,-0.19,-0.1885,-0.1885,-0.1887,-0.1887,-0.1887,-0.1887,-0.1887,-0.1888,-0.1911,-0.1939,-0.1963,-0.1969,-0.1967,-0.1973,-0.1971,-0.1971,-0.1977,-0.1974,-0.1971,-0.1971,-0.1974,-0.1977,-0.1977,-0.1981,-0.1994,-0.2018,-0.205,-0.2079,-0.2106,-0.2136,-0.2155,-0.2155,-0.2155,-0.2155,-0.2155,-0.2155,-0.2155,-0.2155,-0.2155,-0.2155,-0.2155,-0.2155,-0.2155,-0.229,-0.229,-0.2291,-0.2429,-0.2587,-0.2743,-0.2619,-0.3365,-0.412,-0.4726,-0.5486,-0.6108,-0.654,-0.7272,-0.8,-0.8579,-0.9163,-0.974,-1.0317,-1.075,-1.1038,-1.1476,-1.1619,-1.1619,0.8152,0.7826,0.7604,0.7382,0.7265,0.7154,0.7154,0.7154,0.7154,0.7154,0.7165,0.723,0.722,0.7154,0.7154,0.7192,0.7258,0.7263,0.7328,0.7442,0.7402,0.7487,0.7454,0.7412,0.722,0.7016,0.6653,0.6407,0.6285,0.5912,0.5667,0.5295,0.5172,0.4926,0.4803,0.4684,0.4438,0.3946,0.3451,0.2476,0.1248,0.0248,-0.0864,-0.1852,-0.1964,-0.1958,-0.1958,-0.1945,-0.1939,-0.194,-0.194,-0.194,-0.194,-0.194,-0.1939,-0.194,-0.1951,-0.1963,-0.1975,-0.1977,-0.1977,-0.1977,-0.1977,-0.1977,-0.1977,-0.1977,-0.1977,-0.1977,-0.1977,-0.1977,-0.1978,-0.199,-0.2007,-0.202,-0.2045,-0.2076,-0.2106,-0.212,-0.2133,-0.2151,-0.2155,-0.2155,-0.2155,-0.2155,-0.2155,-0.2155,-0.2155,-0.2155,-0.2155,-0.2155,-0.2155,-0.2157,-0.2169,-0.2181,-0.2183,-0.2328,-0.2491,-0.2666,-0.2979,-0.3435,-0.3902,-0.4643,-0.5244,-0.5389,-0.6261,-0.6986,-0.7566,-0.829,-0.8863,-0.959,-1.0462,-1.1044,-1.1188,-1.1476,-1.1619,0.8457,0.8152,0.7821,0.7483,0.7252,0.7252,0.7252,0.7252,0.7252,0.7258,0.7263,0.735,0.7339,0.7263,0.7252,0.7301,0.7377,0.7268,0.7338,0.7568,0.7541,0.7714,0.7758,0.7585,0.7505,0.7388,0.7143,0.7025,0.6903,0.6653,0.6403,0.6158,0.6158,0.6031,0.579,0.5667,0.5298,0.481,0.4206,0.3491,0.2517,0.1254,-0.0125,-0.1368,-0.1863,-0.1985,-0.1977,-0.1977,-0.1977,-0.1977,-0.1977,-0.1977,-0.1977,-0.1977,-0.1977,-0.1977,-0.1977,-0.1977,-0.1977,-0.1977,-0.1977,-0.1977,-0.1977,-0.1977,-0.1977,-0.1977,-0.1977,-0.1977,-0.1977,-0.1977,-0.1979,-0.1994,-0.2005,-0.2009,-0.2039,-0.2074,-0.2093,-0.2108,-0.2132,-0.2151,-0.2155,-0.2155,-0.2155,-0.2155,-0.2155,-0.2155,-0.2155,-0.2155,-0.2157,-0.2162,-0.2169,-0.2168,-0.2193,-0.2206,-0.2204,-0.2221,-0.2526,-0.2697,-0.2868,-0.2888,-0.3203,-0.3935,-0.4374,-0.4517,-0.5389,-0.597,-0.6406,-0.7127,-0.7996,-0.9013,-0.9885,-1.0612,-1.1044,-1.1188,-1.1476,0.8775,0.8768,0.8194,0.7713,0.7259,0.7375,0.7497,0.7475,0.7491,0.7497,0.7486,0.7502,0.7508,0.7497,0.7497,0.7508,0.7508,0.7391,0.7455,0.7687,0.7703,0.7758,0.7861,0.7872,0.775,0.7505,0.7388,0.7266,0.6903,0.6903,0.6903,0.6898,0.6898,0.6775,0.6653,0.6171,0.5921,0.5686,0.4755,0.4036,0.3791,0.2685,0.1277,-0.0,-0.126,-0.2005,-0.1982,-0.1978,-0.1978,-0.1977,-0.1977,-0.1977,-0.1977,-0.1978,-0.1978,-0.1978,-0.1978,-0.1979,-0.1981,-0.1981,-0.1979,-0.1978,-0.1978,-0.1977,-0.1977,-0.1977,-0.1977,-0.1977,-0.1977,-0.1977,-0.1979,-0.1982,-0.1984,-0.1988,-0.2031,-0.206,-0.2069,-0.2117,-0.2148,-0.2155,-0.2155,-0.2155,-0.2155,-0.2155,-0.2155,-0.2155,-0.2155,-0.2155,-0.2158,-0.2177,-0.2192,-0.22,-0.2218,-0.2234,-0.2214,-0.2238,-0.2274,-0.2441,-0.2458,-0.2474,-0.2768,-0.3063,-0.3209,-0.3646,-0.4374,-0.4953,-0.5244,-0.6112,-0.7127,-0.8145,-0.9013,-0.974,-1.0462,-1.09,-1.1188,0.8865,0.8561,0.8329,0.7863,0.7402,0.7519,0.7635,0.7758,0.7519,0.7519,0.7535,0.76,0.7638,0.7638,0.7714,0.7703,0.7638,0.7514,0.7578,0.7801,0.7812,0.7834,0.7867,0.7872,0.7872,0.775,0.775,0.7627,0.7505,0.7505,0.7505,0.7505,0.7505,0.7388,0.7276,0.7088,0.6749,0.626,0.5709,0.5134,0.4532,0.3781,0.2737,0.1428,-0.0257,-0.1398,-0.2004,-0.2003,-0.1996,-0.1978,-0.1977,-0.1977,-0.1978,-0.1994,-0.2003,-0.2005,-0.2022,-0.2033,-0.203,-0.2014,-0.2004,-0.2003,-0.1986,-0.1978,-0.1977,-0.1977,-0.1977,-0.1978,-0.1978,-0.1982,-0.1996,-0.1988,-0.1984,-0.2003,-0.2022,-0.2053,-0.2086,-0.2113,-0.2132,-0.215,-0.2155,-0.2155,-0.2155,-0.2155,-0.2155,-0.2155,-0.2155,-0.2155,-0.2159,-0.2181,-0.2203,-0.2208,-0.2241,-0.2271,-0.2263,-0.2273,-0.2294,-0.2312,-0.2327,-0.233,-0.2478,-0.2771,-0.3063,-0.3063,-0.3646,-0.4228,-0.4662,-0.568,-0.6547,-0.7276,-0.8145,-0.9013,-0.9735,-1.0317,-1.0756,0.9163,0.8573,0.8573,0.8219,0.7633,0.7633,0.7751,0.7875,0.7751,0.7633,0.7649,0.772,0.7758,0.7769,0.7839,0.7834,0.7758,0.7637,0.7675,0.7867,0.7872,0.7872,0.7872,0.7872,0.7872,0.7872,0.7872,0.7872,0.7872,0.7872,0.7872,0.7872,0.7872,0.7771,0.7691,0.7645,0.7316,0.6855,0.6434,0.5866,0.526,0.4631,0.3978,0.2782,0.1183,-0.0518,-0.1908,-0.2033,-0.2024,-0.2008,-0.2005,-0.2004,-0.2007,-0.2023,-0.2033,-0.2035,-0.2052,-0.2193,-0.2063,-0.2045,-0.2034,-0.2033,-0.2018,-0.2004,-0.2005,-0.2005,-0.2005,-0.2004,-0.2005,-0.2015,-0.2151,-0.2142,-0.2014,-0.2031,-0.2041,-0.2063,-0.2104,-0.2117,-0.2133,-0.215,-0.2155,-0.2155,-0.2155,-0.2155,-0.2155,-0.2155,-0.2162,-0.2169,-0.2173,-0.2204,-0.2229,-0.2233,-0.2274,-0.2298,-0.23,-0.2305,-0.2309,-0.2324,-0.2328,-0.2331,-0.2333,-0.2624,-0.2771,-0.2771,-0.3063,-0.3646,-0.4374,-0.5244,-0.5825,-0.6406,-0.7276,-0.8145,-0.9013,-0.9885,-1.0323,0.9444,0.8952,0.8854,0.8459,0.7839,0.7839,0.7861,0.7845,0.785,0.7834,0.7828,0.7861,0.785,0.7867,0.7867,0.7867,0.7856,0.785,0.7856,0.7872,0.7872,0.7872,0.7872,0.7872,0.7872,0.7872,0.7872,0.7872,0.7872,0.7872,0.7872,0.7877,0.7888,0.7948,0.8057,0.7833,0.7628,0.7463,0.6788,0.6321,0.6193,0.5335,0.4696,0.4166,0.2816,0.0927,-0.181,-0.1936,-0.1932,-0.2059,-0.2059,-0.2063,-0.2057,-0.2063,-0.2064,-0.2064,-0.2196,-0.2197,-0.2197,-0.2196,-0.2064,-0.2063,-0.2061,-0.2054,-0.2053,-0.2054,-0.2054,-0.2053,-0.2054,-0.2061,-0.2061,-0.219,-0.219,-0.2067,-0.2084,-0.2102,-0.2116,-0.2136,-0.2154,-0.2155,-0.2155,-0.2155,-0.2155,-0.2155,-0.2157,-0.2163,-0.218,-0.2196,-0.2203,-0.2244,-0.2281,-0.229,-0.2304,-0.232,-0.2327,-0.2333,-0.2331,-0.2333,-0.2333,-0.2333,-0.2333,-0.2478,-0.2478,-0.2478,-0.2771,-0.3354,-0.35,-0.4371,-0.4953,-0.5535,-0.6406,-0.7276,-0.8145,-0.9018,-0.9613,0.9579,0.9092,0.8976,0.8488,0.7994,0.7872,0.7872,0.7872,0.7872,0.7872,0.7872,0.7872,0.7872,0.7872,0.7872,0.7872,0.7872,0.7872,0.7872,0.7872,0.7872,0.7872,0.7872,0.7872,0.7872,0.7872,0.7872,0.7872,0.7872,0.7877,0.791,0.7981,0.7997,0.8062,0.8176,0.8135,0.807,0.7842,0.7685,0.7341,0.6805,0.6301,0.5647,0.4977,0.4171,0.2677,0.0929,-0.0394,-0.1433,-0.2067,-0.2064,-0.2064,-0.2068,-0.2084,-0.2095,-0.2097,-0.2116,-0.226,-0.2257,-0.2106,-0.2095,-0.2091,-0.2078,-0.2065,-0.2064,-0.2067,-0.2067,-0.2065,-0.2064,-0.2071,-0.209,-0.2226,-0.2226,-0.2094,-0.2104,-0.2119,-0.2135,-0.2148,-0.2154,-0.2155,-0.2155,-0.2155,-0.2155,-0.2157,-0.2165,-0.2184,-0.2196,-0.2208,-0.2233,-0.2266,-0.2289,-0.2293,-0.2315,-0.2333,-0.2333,-0.2333,-0.2333,-0.2333,-0.2333,-0.2333,-0.2333,-0.2333,-0.2333,-0.2333,-0.2625,-0.2917,-0.3063,-0.35,-0.4083,-0.4662,-0.5535,-0.6406,-0.7276,-0.8015,-0.8765,0.9579,0.9335,0.9092,0.8604,0.7989,0.8116,0.8238,0.8238,0.8238,0.8238,0.8238,0.8122,0.8122,0.8116,0.7994,0.7872,0.7872,0.7872,0.7872,0.7872,0.7872,0.7872,0.7872,0.7872,0.7872,0.7883,0.7915,0.7937,0.7943,0.7986,0.8046,0.8111,0.8122,0.8182,0.8296,0.8372,0.8301,0.8217,0.8153,0.7922,0.7388,0.6987,0.6585,0.5781,0.5245,0.4303,0.2957,0.1466,-0.0,-0.1313,-0.1966,-0.2098,-0.2099,-0.2116,-0.2125,-0.2129,-0.2142,-0.2154,-0.2153,-0.2135,-0.2127,-0.2123,-0.2109,-0.2098,-0.2098,-0.2098,-0.2098,-0.2098,-0.2099,-0.2106,-0.2254,-0.226,-0.2125,-0.2127,-0.2127,-0.2135,-0.2153,-0.2155,-0.2155,-0.2155,-0.2155,-0.2159,-0.2169,-0.2173,-0.2184,-0.221,-0.2226,-0.2236,-0.2263,-0.2288,-0.2298,-0.2308,-0.2322,-0.2331,-0.2333,-0.2333,-0.2333,-0.2333,-0.2333,-0.2333,-0.2333,-0.2333,-0.2333,-0.2333,-0.2478,-0.2478,-0.2771,-0.3063,-0.35,-0.408,-0.4517,-0.5389,-0.6264,-0.7035,-0.765,0.9579,0.9335,0.9335,0.8842,0.8227,0.8604,0.8854,0.8976,0.8854,0.8854,0.8732,0.8494,0.8488,0.8366,0.8116,0.7994,0.7994,0.7994,0.7994,0.7872,0.7872,0.7877,0.7899,0.7905,0.7915,0.7943,0.8019,0.8062,0.8068,0.8155,0.8242,0.8242,0.8247,0.8307,0.8405,0.8426,0.8486,0.8429,0.8318,0.8189,0.8056,0.7655,0.7259,0.6723,0.6183,0.5376,0.4437,0.3222,0.1746,-0.0403,-0.1475,-0.2012,-0.2151,-0.2154,-0.2151,-0.215,-0.2154,-0.2155,-0.2155,-0.2151,-0.215,-0.215,-0.2147,-0.2155,-0.2146,-0.2142,-0.2143,-0.2144,-0.2146,-0.215,-0.2151,-0.2151,-0.2153,-0.2157,-0.2153,-0.2154,-0.2157,-0.2159,-0.2165,-0.2166,-0.2163,-0.217,-0.22,-0.2202,-0.2217,-0.2243,-0.2267,-0.2279,-0.2294,-0.2311,-0.2327,-0.2331,-0.2331,-0.2331,-0.2333,-0.2333,-0.2333,-0.2333,-0.2333,-0.2333,-0.2333,-0.2333,-0.2333,-0.2333,-0.2333,-0.2333,-0.2478,-0.2771,-0.2917,-0.3207,-0.3789,-0.4517,-0.5271,-0.6047,-0.67,0.97,0.97,0.9457,0.9342,0.922,0.9098,0.9105,0.9483,0.9105,0.8976,0.8854,0.8854,0.8732,0.8732,0.861,0.8488,0.8366,0.8244,0.8122,0.7872,0.7872,0.7926,0.7992,0.8008,0.8051,0.8122,0.8166,0.8187,0.8187,0.8236,0.8291,0.8367,0.8372,0.8557,0.8524,0.8535,0.8557,0.8584,0.859,0.8462,0.8462,0.8066,0.8061,0.7932,0.6996,0.6325,0.5785,0.4303,0.2556,0.0808,-0.0404,-0.1481,-0.2021,-0.2155,-0.2155,-0.2155,-0.2155,-0.2155,-0.2155,-0.2155,-0.2155,-0.2155,-0.2155,-0.2155,-0.2155,-0.2155,-0.2155,-0.2155,-0.2155,-0.2157,-0.2155,-0.2157,-0.2165,-0.2181,-0.2173,-0.2168,-0.2183,-0.2188,-0.2196,-0.2217,-0.2218,-0.2223,-0.223,-0.2236,-0.2245,-0.2271,-0.2288,-0.23,-0.2313,-0.2322,-0.2333,-0.2333,-0.2333,-0.2333,-0.2333,-0.2333,-0.2333,-0.2333,-0.2333,-0.2333,-0.2333,-0.2333,-0.2333,-0.2333,-0.2333,-0.2333,-0.2333,-0.2478,-0.2478,-0.2485,-0.309,-0.384,-0.4599,-0.5224,-0.5889,0.9822,0.9822,0.9579,0.9585,0.9707,0.9464,0.9464,0.9714,0.9464,0.9214,0.922,0.9098,0.9098,0.9092,0.8976,0.8854,0.861,0.8488,0.8273,0.8206,0.8132,0.804,0.8062,0.8095,0.8171,0.8231,0.8291,0.8307,0.8323,0.8356,0.8426,0.8475,0.8624,0.8657,0.8573,0.859,0.859,0.8595,0.8633,0.8666,0.8666,0.8585,0.8476,0.8476,0.7655,0.7106,0.6566,0.5198,0.3541,0.1891,0.0538,-0.0404,-0.1212,-0.1885,-0.2155,-0.2155,-0.2155,-0.2155,-0.2155,-0.2155,-0.2155,-0.2155,-0.2155,-0.2155,-0.2155,-0.2155,-0.2155,-0.2155,-0.2165,-0.2173,-0.2176,-0.2184,-0.22,-0.2214,-0.2203,-0.22,-0.2218,-0.2218,-0.2226,-0.224,-0.2245,-0.2252,-0.2262,-0.2264,-0.2279,-0.2298,-0.2308,-0.2319,-0.2327,-0.2331,-0.2333,-0.2333,-0.2333,-0.2333,-0.2333,-0.2333,-0.2333,-0.2333,-0.2333,-0.2333,-0.2337,-0.2335,-0.2333,-0.2333,-0.2333,-0.2334,-0.2337,-0.2342,-0.2354,-0.2513,-0.283,-0.3145,-0.3906,-0.4386,-0.5047,0.9822,0.9822,0.9822,0.9822,0.9822,0.9822,0.9822,0.9822,0.97,0.97,0.97,0.9457,0.9335,0.9335,0.922,0.8983,0.9007,0.8775,0.86,0.8449,0.8292,0.8204,0.8144,0.822,0.8274,0.8312,0.8394,0.8426,0.8448,0.853,0.8573,0.8568,0.8573,0.8584,0.8595,0.8606,0.8606,0.8644,0.8736,0.8785,0.8802,0.8867,0.8761,0.8623,0.8628,0.7936,0.7109,0.6136,0.4842,0.2704,0.1757,0.0813,0.0,-0.1218,-0.2032,-0.217,-0.2174,-0.2173,-0.2168,-0.2173,-0.2169,-0.2172,-0.217,-0.2163,-0.2172,-0.2174,-0.2174,-0.2176,-0.2189,-0.2202,-0.2208,-0.223,-0.2245,-0.2251,-0.2251,-0.2255,-0.2253,-0.2252,-0.2251,-0.2253,-0.2256,-0.227,-0.2285,-0.2297,-0.2304,-0.2315,-0.2323,-0.2326,-0.2331,-0.2333,-0.2333,-0.2333,-0.2333,-0.2333,-0.2333,-0.2333,-0.2333,-0.2333,-0.2333,-0.2334,-0.2343,-0.2342,-0.2335,-0.2334,-0.2342,-0.2346,-0.2348,-0.2357,-0.2376,-0.2541,-0.271,-0.2875,-0.3192,-0.3527,-0.4183,0.9822,0.9822,0.9822,0.9822,0.9822,0.9822,0.9822,0.9822,0.9822,0.9822,0.9822,0.97,0.97,0.9707,0.9599,0.9516,0.9379,0.9274,0.9212,0.8707,0.8447,0.8361,0.8339,0.8372,0.8421,0.8481,0.853,0.8546,0.8562,0.8562,0.859,0.859,0.86,0.859,0.86,0.8693,0.8731,0.8753,0.8851,0.891,0.8916,0.8948,0.8836,0.8831,0.897,0.8542,0.7697,0.6996,0.614,0.5005,0.3332,0.1944,0.1247,0.0139,-0.0971,-0.1802,-0.2222,-0.2223,-0.2225,-0.2221,-0.2225,-0.2219,-0.2218,-0.2226,-0.2226,-0.2222,-0.2223,-0.2226,-0.2232,-0.2236,-0.2241,-0.2264,-0.2278,-0.2283,-0.2297,-0.2309,-0.2309,-0.2294,-0.229,-0.2304,-0.2309,-0.2315,-0.2322,-0.232,-0.2326,-0.2333,-0.2333,-0.2333,-0.2333,-0.2333,-0.2333,-0.2333,-0.2333,-0.2333,-0.2333,-0.2334,-0.2338,-0.2342,-0.2343,-0.2352,-0.236,-0.2358,-0.2356,-0.2354,-0.2356,-0.236,-0.2368,-0.2391,-0.2414,-0.2425,-0.2588,-0.2756,-0.2928,-0.311,-0.3276,0.9822,0.9822,0.9822,0.9822,0.9822,0.9822,0.9822,0.9822,0.9822,0.9822,0.9822,0.9822,0.9856,0.9924,0.993,0.9888,0.9896,0.9602,0.9282,0.8857,0.8568,0.8492,0.8497,0.8497,0.8535,0.8584,0.8584,0.859,0.859,0.859,0.859,0.8595,0.8638,0.8677,0.8687,0.8791,0.8851,0.8878,0.8976,0.9035,0.9041,0.9095,0.9117,0.9117,0.9264,0.8975,0.8272,0.7983,0.7274,0.6417,0.4988,0.3541,0.2386,0.1542,0.0421,-0.0842,-0.1965,-0.2245,-0.2245,-0.2245,-0.2244,-0.2247,-0.2245,-0.2245,-0.2245,-0.2245,-0.2245,-0.2249,-0.2258,-0.2271,-0.2285,-0.2297,-0.2309,-0.2312,-0.2323,-0.2333,-0.233,-0.2319,-0.2315,-0.233,-0.233,-0.233,-0.2333,-0.2333,-0.2333,-0.2333,-0.2333,-0.2333,-0.2333,-0.2333,-0.2333,-0.2333,-0.2333,-0.2333,-0.2333,-0.2337,-0.2343,-0.2352,-0.2361,-0.2376,-0.2393,-0.2387,-0.238,-0.2383,-0.2386,-0.2393,-0.2403,-0.2428,-0.2444,-0.2453,-0.2617,-0.2636,-0.2805,-0.2814,-0.2819,0.9822,0.9822,0.9822,0.9822,0.9822,0.9822,0.9822,0.9822,0.9849,0.9876,0.9869,0.9876,0.9998,1.0059,1.008,1.0175,1.0062,0.9676,0.9353,0.9109,0.8657,0.8562,0.8568,0.8573,0.8595,0.8611,0.8595,0.859,0.859,0.8606,0.8638,0.8644,0.8742,0.8791,0.8823,0.891,0.8981,0.8997,0.9095,0.9155,0.9166,0.9237,0.9269,0.9275,0.9269,0.9125,0.8832,0.8554,0.8136,0.728,0.6841,0.561,0.4117,0.282,0.1973,0.0424,-0.0849,-0.1417,-0.1703,-0.1841,-0.1981,-0.2118,-0.226,-0.2262,-0.2263,-0.2266,-0.2267,-0.2273,-0.2285,-0.2305,-0.2328,-0.2328,-0.233,-0.2331,-0.2333,-0.2333,-0.2333,-0.2333,-0.2331,-0.2331,-0.2333,-0.2333,-0.2333,-0.2333,-0.2333,-0.2333,-0.2333,-0.2333,-0.2333,-0.2334,-0.2334,-0.2333,-0.2333,-0.2346,-0.2348,-0.2353,-0.2358,-0.2375,-0.2384,-0.2402,-0.2423,-0.2423,-0.2418,-0.2417,-0.242,-0.2427,-0.2438,-0.2458,-0.2472,-0.2478,-0.2487,-0.2655,-0.2507,-0.2512,-0.2514,0.9822,0.9822,0.9822,0.9822,0.9822,0.9822,0.9829,0.9842,0.9964,1.0012,1.0025,1.0141,1.0195,1.0236,1.0243,1.0324,1.0337,0.9939,0.9606,0.9347,0.8984,0.859,0.8606,0.8611,0.8649,0.8687,0.8666,0.8622,0.8638,0.8682,0.8736,0.8764,0.8861,0.8921,0.8954,0.9035,0.9101,0.9111,0.9204,0.9253,0.9264,0.928,0.9302,0.9302,0.9302,0.9302,0.9157,0.8874,0.8584,0.844,0.7711,0.711,0.6066,0.4472,0.3031,0.2021,0.1154,0.0432,-0.0288,-0.0723,-0.1448,-0.2028,-0.2168,-0.2169,-0.2313,-0.2313,-0.2307,-0.2312,-0.2316,-0.2327,-0.2331,-0.2333,-0.2333,-0.2333,-0.2333,-0.2333,-0.2333,-0.2333,-0.2333,-0.2333,-0.2333,-0.2333,-0.2333,-0.2333,-0.2333,-0.2333,-0.2333,-0.2333,-0.2333,-0.2335,-0.2338,-0.2335,-0.2333,-0.235,-0.2367,-0.2373,-0.2382,-0.2405,-0.2418,-0.2432,-0.2448,-0.2458,-0.2459,-0.2453,-0.2454,-0.2459,-0.2473,-0.2488,-0.2495,-0.2497,-0.2506,-0.2514,-0.2514,-0.2514,-0.2514,0.9822,0.9822,0.9822,0.9822,0.9836,0.991,0.9937,0.9964,1.01,1.0168,1.0188,1.0249,1.0324,1.0371,1.0392,1.0473,1.0471,1.0148,0.9927,0.9661,0.9123,0.8762,0.8671,0.8682,0.8758,0.8818,0.8802,0.8769,0.878,0.8834,0.8861,0.8894,0.8986,0.9046,0.9073,0.916,0.9209,0.9237,0.9275,0.9302,0.9302,0.9302,0.9302,0.9302,0.9302,0.9302,0.9302,0.9157,0.8874,0.8729,0.829,0.8005,0.7276,0.6257,0.4805,0.3787,0.3207,0.2477,0.1457,0.0729,-0.0146,-0.1311,-0.1458,-0.175,-0.2187,-0.2331,-0.2333,-0.2333,-0.2333,-0.2333,-0.2333,-0.2334,-0.2333,-0.2333,-0.2334,-0.2335,-0.2334,-0.2334,-0.2337,-0.2339,-0.2338,-0.2338,-0.2333,-0.2333,-0.2333,-0.2333,-0.2334,-0.2337,-0.2338,-0.2348,-0.2357,-0.236,-0.2361,-0.2379,-0.2395,-0.2401,-0.2413,-0.2435,-0.245,-0.2462,-0.2474,-0.2484,-0.2487,-0.2484,-0.2488,-0.2487,-0.2495,-0.2503,-0.251,-0.2514,-0.2514,-0.2514,-0.2514,-0.2514,-0.2514,0.9822,0.9822,0.9822,0.9836,0.9883,0.9992,1.0066,1.012,1.0256,1.0324,1.0324,1.0365,1.0446,1.0514,1.0548,1.0609,1.0717,1.0326,1.006,0.98,0.943,0.9221,0.9019,0.8949,0.9004,0.9109,0.8981,0.8976,0.8932,0.897,0.8986,0.9019,0.9111,0.9166,0.9188,0.9247,0.9296,0.9302,0.9302,0.9302,0.9302,0.9302,0.9302,0.9302,0.9302,0.9302,0.9302,0.9302,0.9157,0.8868,0.8724,0.8584,0.815,0.7711,0.6837,0.568,0.5247,0.4374,0.3498,0.2186,0.1311,0.0146,-0.0146,-0.0874,-0.175,-0.2041,-0.2333,-0.2333,-0.2333,-0.2333,-0.2334,-0.2339,-0.2342,-0.2346,-0.235,-0.2353,-0.2358,-0.2361,-0.2364,-0.2361,-0.235,-0.2345,-0.2342,-0.2335,-0.2335,-0.2352,-0.2353,-0.2365,-0.2369,-0.238,-0.2388,-0.2393,-0.2399,-0.2416,-0.2427,-0.2432,-0.2447,-0.247,-0.2478,-0.2487,-0.2497,-0.2508,-0.2507,-0.2502,-0.2504,-0.2504,-0.2512,-0.2514,-0.2514,-0.2514,-0.2514,-0.2514,-0.2514,-0.2514,-0.2514,0.9822,0.9822,0.9822,0.9897,1.0019,1.0053,1.0134,1.0263,1.0405,1.0466,1.0473,1.0595,1.0656,1.0677,1.0677,1.0697,1.0585,1.0478,1.0219,1.0098,0.9918,0.9715,0.9751,0.9572,0.955,0.9513,0.9253,0.9046,0.9024,0.9079,0.9111,0.9133,0.9204,0.9275,0.9264,0.9285,0.9302,0.9302,0.9307,0.9313,0.9323,0.9329,0.9329,0.9323,0.9329,0.9329,0.9329,0.9329,0.9318,0.9157,0.9157,0.9018,0.8729,0.8879,0.8584,0.7865,0.714,0.6566,0.5835,0.4226,0.2768,0.1894,0.1457,0.0583,-0.0584,-0.1754,-0.2192,-0.2333,-0.2337,-0.2341,-0.2349,-0.236,-0.2368,-0.238,-0.2388,-0.2399,-0.2405,-0.2388,-0.2391,-0.2394,-0.2388,-0.2367,-0.2353,-0.2345,-0.2341,-0.2358,-0.2375,-0.2388,-0.2399,-0.241,-0.2427,-0.2433,-0.2436,-0.2451,-0.2458,-0.2463,-0.2473,-0.2499,-0.2502,-0.2504,-0.2508,-0.2514,-0.2514,-0.2511,-0.2514,-0.2514,-0.2514,-0.2514,-0.2514,-0.2514,-0.2514,-0.2514,-0.2514,-0.2515,-0.2521,0.9951,0.9951,0.9951,1.0039,1.0181,1.0263,1.0337,1.0419,1.0555,1.0622,1.0629,1.0683,1.0717,1.0717,1.0717,1.0717,1.0738,1.0678,1.0443,1.0335,1.0308,1.0285,1.0089,1.001,1.0106,1.0048,0.9798,0.9644,0.9462,0.933,0.9231,0.9231,0.9275,0.9296,0.9318,0.9307,0.9302,0.9323,0.9372,0.9443,0.9492,0.9508,0.9508,0.9508,0.9503,0.947,0.9421,0.9405,0.9367,0.9329,0.9302,0.9302,0.9163,0.9163,0.9018,0.8884,0.8659,0.8075,0.6861,0.5538,0.4376,0.3352,0.2771,0.1754,0.0441,-0.0737,-0.1775,-0.2235,-0.2235,-0.2234,-0.2382,-0.2395,-0.2401,-0.241,-0.2421,-0.2425,-0.2429,-0.2424,-0.2417,-0.2421,-0.2424,-0.2256,-0.2242,-0.2391,-0.2388,-0.2394,-0.2405,-0.2412,-0.2424,-0.2436,-0.2457,-0.2478,-0.2481,-0.2485,-0.2491,-0.2495,-0.2492,-0.2508,-0.2508,-0.251,-0.2511,-0.2514,-0.2515,-0.2515,-0.2515,-0.2515,-0.2515,-0.2515,-0.2515,-0.2515,-0.2514,-0.2521,-0.2527,-0.2538,-0.2547,1.0127,1.0154,1.012,1.0195,1.0337,1.0446,1.0514,1.0568,1.0663,1.0717,1.0717,1.0717,1.0717,1.0738,1.0765,1.0799,1.0792,1.0934,1.0846,1.077,1.0731,1.0709,1.0645,1.0568,1.0506,1.0606,1.0149,1.0,0.9862,0.9729,0.9435,0.9302,0.9296,0.9329,0.9351,0.9367,0.9378,0.9438,0.9497,0.9574,0.9633,0.965,0.9655,0.9661,0.9655,0.9628,0.9552,0.953,0.9476,0.9438,0.9421,0.9432,0.9427,0.9286,0.9286,0.9155,0.9213,0.8918,0.7984,0.6933,0.5883,0.4853,0.3678,0.2813,0.1638,0.0448,-0.0598,-0.1509,-0.1812,-0.2116,-0.2274,-0.2427,-0.2435,-0.2439,-0.2447,-0.2444,-0.2446,-0.2297,-0.2148,-0.2001,-0.2003,-0.2304,-0.2295,-0.2294,-0.2443,-0.2436,-0.2436,-0.2438,-0.245,-0.2465,-0.2478,-0.25,-0.25,-0.2502,-0.2506,-0.2511,-0.2514,-0.2517,-0.2517,-0.2517,-0.2518,-0.2519,-0.2521,-0.2519,-0.2523,-0.2538,-0.2552,-0.2533,-0.2518,-0.2527,-0.2536,-0.2537,-0.2545,-0.2559,-0.2578,1.0344,1.0453,1.0324,1.0351,1.048,1.0487,1.0575,1.0683,1.0711,1.0724,1.0744,1.0731,1.0744,1.0772,1.088,1.0934,1.0941,1.1084,1.1138,1.1199,1.1294,1.1241,1.1166,1.1096,1.0875,1.0894,1.0606,1.0455,1.0323,1.0058,0.9752,0.9307,0.9345,0.9389,0.9438,0.9476,0.9536,0.959,0.965,0.9666,0.9699,0.9704,0.9699,0.9693,0.9682,0.9666,0.9661,0.9655,0.9633,0.9601,0.959,0.959,0.9574,0.943,0.943,0.9441,0.9478,0.9334,0.902,0.8253,0.7373,0.633,0.4968,0.3608,0.2719,0.1966,0.0909,-0.0152,-0.0763,-0.1522,-0.1982,-0.2446,-0.2001,-0.216,-0.2166,-0.2327,-0.2175,-0.1868,-0.1716,-0.1409,-0.1563,-0.1711,-0.2331,-0.2481,-0.2476,-0.2467,-0.2466,-0.2469,-0.2482,-0.2496,-0.25,-0.251,-0.2511,-0.2511,-0.2511,-0.2515,-0.2518,-0.2523,-0.2527,-0.2526,-0.2526,-0.2527,-0.2541,-0.2547,-0.2557,-0.2572,-0.2579,-0.2559,-0.2548,-0.2553,-0.2559,-0.2564,-0.2577,-0.2593,-0.2613,1.05,1.0622,1.0568,1.0582,1.0636,1.0636,1.0663,1.0711,1.0717,1.0778,1.086,1.086,1.0914,1.0989,1.1036,1.1084,1.1104,1.124,1.1287,1.1355,1.1443,1.1518,1.1415,1.1429,1.1325,1.1338,1.105,1.0951,1.1021,1.0578,1.0211,0.9928,0.9601,0.9503,0.9557,0.9612,0.9677,0.9742,0.978,0.9796,0.9878,0.9883,0.9883,0.9883,0.9883,0.984,0.9791,0.9775,0.9731,0.9693,0.9682,0.9688,0.9693,0.9537,0.9537,0.9548,0.9585,0.9769,0.991,0.9267,0.8464,0.7105,0.5896,0.4856,0.3822,0.2909,0.2154,0.1235,0.0309,-0.0772,0.0,0.0,-0.0936,-0.1562,-0.1877,-0.204,-0.1886,-0.157,-0.1256,-0.0941,-0.0942,-0.1096,-0.1724,-0.251,-0.2504,-0.2499,-0.2499,-0.25,-0.2508,-0.2514,-0.2514,-0.2514,-0.2514,-0.2519,-0.2519,-0.2521,-0.2522,-0.2533,-0.2541,-0.2547,-0.2551,-0.2568,-0.2581,-0.2585,-0.2587,-0.2596,-0.2596,-0.2582,-0.2578,-0.2585,-0.259,-0.2597,-0.2611,-0.2627,-0.2643,1.0622,1.0717,1.0717,1.0717,1.0717,1.0717,1.0717,1.0731,1.0778,1.0873,1.1009,1.1016,1.1063,1.1151,1.1219,1.1233,1.1274,1.1375,1.1443,1.1497,1.1552,1.1613,1.1619,1.1626,1.1502,1.1523,1.1405,1.1325,1.1456,1.1161,1.0946,1.0548,1.0093,0.9966,0.9699,0.9764,0.9818,0.9873,0.99,0.9921,1.0008,1.0008,1.0008,1.0003,0.9998,0.997,0.9911,0.9889,0.9862,0.9818,0.9796,0.9786,0.978,0.9775,0.9775,0.9802,0.9835,1.0042,1.002,0.9682,0.9015,0.7968,0.7044,0.6002,0.51,0.3874,0.3111,0.219,0.1098,0.0,0.0,0.0,0.0,-0.0784,-0.094,-0.0942,-0.1256,-0.1099,-0.0628,-0.0314,-0.0471,-0.0629,-0.1734,-0.2523,-0.2523,-0.2515,-0.2507,-0.2507,-0.251,-0.2514,-0.2514,-0.2514,-0.2514,-0.2521,-0.2527,-0.2536,-0.2545,-0.2564,-0.2572,-0.2578,-0.2587,-0.2602,-0.2613,-0.2616,-0.2617,-0.262,-0.2624,-0.2628,-0.2623,-0.2616,-0.2624,-0.2637,-0.2646,-0.2661,-0.2668,1.0711,1.0717,1.0724,1.0731,1.0738,1.0724,1.0731,1.0765,1.0887,1.1029,1.1151,1.1158,1.1172,1.1226,1.1341,1.1382,1.1409,1.1525,1.1586,1.1592,1.1599,1.1619,1.164,1.166,1.1721,1.1803,1.1697,1.1764,1.206,1.1612,1.1547,1.1327,1.0726,1.0123,0.9845,0.9949,1.0008,1.0014,1.0003,1.0008,1.0014,1.0019,1.0019,1.0019,1.0019,0.9998,0.9987,0.9981,0.996,0.9949,0.9949,0.9949,0.9954,0.996,0.9965,0.9976,0.9987,1.0003,1.0003,0.9698,0.9206,0.8566,0.7765,0.6859,0.5792,0.4703,0.376,0.2828,0.1886,0.0942,0.0,0.0,0.0,0.0,0.0,0.0,0.0,0.0,0.0,0.0,0.0,-0.0472,-0.1738,-0.2536,-0.2538,-0.2533,-0.2519,-0.2518,-0.2525,-0.253,-0.2537,-0.2538,-0.254,-0.2545,-0.2555,-0.2557,-0.2568,-0.2589,-0.2604,-0.2611,-0.2615,-0.2623,-0.2634,-0.2642,-0.2647,-0.265,-0.2668,-0.2686,-0.2667,-0.265,-0.2668,-0.2679,-0.2687,-0.2688,-0.2687,1.0717,1.0731,1.0826,1.0873,1.0873,1.0739,1.0739,1.0894,1.1029,1.1172,1.1294,1.1314,1.1382,1.1457,1.1491,1.1531,1.1552,1.1565,1.1619,1.1619,1.1626,1.1687,1.1728,1.1775,1.1837,1.1945,1.1999,1.2067,1.2216,1.2059,1.1841,1.1625,1.1016,1.0423,1.012,1.0008,1.0019,1.0019,1.0019,1.0019,1.0019,1.0019,1.0019,1.0019,1.0019,1.0019,1.0019,1.0019,1.0019,1.0019,1.0019,1.0019,1.0019,1.0019,1.0019,1.0019,1.0019,1.0019,1.0019,0.9858,0.9553,0.8934,0.8466,0.7525,0.6275,0.5335,0.4395,0.3456,0.2514,0.1413,0.0,0.0,0.0,0.0,0.0,0.0,0.0,0.0,0.0,0.0,0.0,0.0,0.0,0.0,-0.2091,-0.2418,-0.2412,-0.2566,-0.257,-0.2574,-0.2579,-0.2579,-0.2581,-0.2582,-0.2585,-0.2587,-0.2601,-0.2624,-0.2637,-0.2643,-0.2647,-0.2649,-0.2658,-0.2669,-0.2675,-0.2682,-0.2687,-0.2691,-0.2688,-0.2686,-0.2691,-0.2692,-0.2691,-0.269,-0.2691,1.0751,1.0812,1.0907,1.0982,1.1016,1.0743,1.0906,1.1111,1.1206,1.1328,1.145,1.147,1.1511,1.1592,1.1619,1.1619,1.1619,1.1619,1.1674,1.1681,1.1694,1.1789,1.187,1.1925,1.2006,1.2101,1.2155,1.2216,1.2359,1.2359,1.2099,1.185,1.1262,1.0785,1.048,1.0169,1.0019,1.0019,1.0019,1.0019,1.0019,1.0019,1.0019,1.0019,1.0019,1.0019,1.0019,1.0019,1.0019,1.0019,1.0019,1.0019,1.0019,1.0019,1.0019,1.0019,1.0019,1.0019,1.0019,1.0019,0.9553,0.909,0.8934,0.7994,0.6584,0.5489,0.4709,0.3768,0.2985,0.1728,0.0,0.0,0.0,0.0,0.0,0.0,0.0,0.0,0.0,0.0,0.0,0.0,0.0,0.0,-0.1472,-0.1966,-0.2463,-0.2455,-0.2609,-0.2609,-0.2611,-0.2609,-0.2609,-0.2607,-0.2611,-0.2617,-0.2634,-0.2658,-0.2665,-0.2668,-0.2673,-0.2675,-0.2686,-0.2692,-0.2688,-0.2687,-0.269,-0.2691,-0.269,-0.269,-0.2691,-0.2692,-0.2692,-0.2692,-0.2692,1.0812,1.0941,1.0962,1.105,1.1158,1.0902,1.1121,1.1537,1.1396,1.1477,1.1613,1.1599,1.1606,1.1613,1.1619,1.1633,1.1647,1.1647,1.1728,1.1809,1.1837,1.1945,1.2026,1.2074,1.2162,1.225,1.2305,1.2352,1.2488,1.2467,1.2326,1.203,1.1727,1.1262,1.0796,1.033,1.0175,1.0019,1.0019,1.0019,1.0019,1.0019,1.0019,1.0019,1.0019,1.0019,1.0019,1.0019,1.0019,1.0019,1.0019,1.0019,1.0019,1.0019,1.0019,1.0019,1.0019,1.0025,1.0052,1.0052,0.9917,0.9468,0.8983,0.7859,0.6744,0.5648,0.4709,0.3931,0.2991,0.1574,0.0,0.0,0.0,0.0,0.0,0.0,0.0,0.0,0.0,0.0,0.0,0.0,0.0,0.0,0.0,-0.1658,-0.2158,-0.2485,-0.2639,-0.2628,-0.2628,-0.2627,-0.2627,-0.2628,-0.2634,-0.2645,-0.2654,-0.2676,-0.268,-0.2684,-0.2691,-0.2692,-0.2692,-0.2692,-0.2692,-0.2692,-0.2692,-0.2692,-0.2691,-0.2692,-0.2692,-0.2692,-0.2692,-0.2692,-0.2692,1.0907,1.0968,1.1172,1.1287,1.1335,1.1295,1.1368,1.1552,1.1558,1.1586,1.1619,1.1619,1.1619,1.1619,1.1619,1.1681,1.1735,1.1789,1.1877,1.1938,1.1999,1.2101,1.2176,1.2237,1.2318,1.2386,1.244,1.2447,1.2488,1.2501,1.2501,1.2347,1.2037,1.1727,1.1262,1.0796,1.0336,1.0186,1.003,1.0019,1.0019,1.0019,1.0019,1.0019,1.0019,1.0019,1.0019,1.0019,1.0019,1.0019,1.0019,1.0019,1.0019,1.0019,1.0019,1.0019,1.003,1.0052,1.0285,1.015,1.0014,0.9755,0.9297,0.826,0.7106,0.5978,0.5036,0.4106,0.3014,0.1748,0.0,0.0,0.0,0.0,0.0,0.0,0.0,0.0,0.0,0.0,0.0,0.0,0.0,0.0,0.0,0.0,-0.2011,-0.234,-0.2668,-0.2656,-0.2652,-0.265,-0.2652,-0.2654,-0.2664,-0.2675,-0.2682,-0.2688,-0.2691,-0.2692,-0.2692,-0.2692,-0.2692,-0.2692,-0.2692,-0.2692,-0.2692,-0.2692,-0.2692,-0.2692,-0.2692,-0.2692,-0.2692,-0.2692,-0.2692,1.1016,1.1138,1.1314,1.1423,1.1491,1.1579,1.1619,1.1619,1.1619,1.1619,1.1619,1.1619,1.1619,1.1633,1.1681,1.1755,1.1823,1.1904,1.2006,1.2121,1.2155,1.225,1.2332,1.2372,1.242,1.2481,1.2501,1.2488,1.2501,1.2501,1.2501,1.2501,1.2192,1.2037,1.1727,1.1268,1.0682,1.0375,1.0214,1.003,1.003,1.003,1.0019,1.003,1.003,1.003,1.003,1.003,1.0025,1.0019,1.0019,1.0019,1.0019,1.0019,1.0063,1.0074,1.0106,1.0172,1.0407,1.0275,1.0158,1.0035,0.9577,0.8861,0.7689,0.6543,0.5428,0.4476,0.321,0.0,0.0,0.0,0.0,0.0,0.0,0.0,0.0,0.0,0.0,0.0,0.0,0.0,0.0,0.0,0.0,0.0,-0.1681,-0.252,-0.2684,-0.268,-0.2676,-0.2676,-0.268,-0.2684,-0.2692,-0.2692,-0.2691,-0.2691,-0.2691,-0.2692,-0.2692,-0.2692,-0.2692,-0.2692,-0.2692,-0.2692,-0.2692,-0.2692,-0.2692,-0.2692,-0.2692,-0.2694,-0.2692,-0.2692,-0.2692,1.1145,1.1382,1.1402,1.1491,1.1606,1.1619,1.1619,1.1619,1.1619,1.1619,1.1619,1.1619,1.1633,1.1681,1.1755,1.185,1.1945,1.204,1.2162,1.2305,1.2305,1.2372,1.244,1.2501,1.2481,1.2494,1.2501,1.2501,1.2501,1.2501,1.2501,1.2501,1.2501,1.236,1.2089,1.1622,1.1209,1.0826,1.0465,1.0263,1.009,1.0068,1.0047,1.0068,1.0074,1.0068,1.0068,1.0057,1.0047,1.0052,1.0057,1.0074,1.0079,1.0085,0.9982,1.0177,1.0215,1.0451,1.0523,1.0394,1.0416,1.0265,1.0087,0.9293,0.831,0.711,0.6126,0.4844,0.3565,0.244,0.0,0.0,0.0,0.0,0.0,0.0,0.0,0.0,0.0,0.0,0.0,0.0,0.0,0.0,0.0,0.0,-0.1011,-0.2021,-0.2525,-0.2524,-0.2524,-0.2692,-0.2692,-0.2692,-0.2692,-0.2692,-0.2692,-0.2692,-0.2692,-0.2692,-0.2692,-0.2692,-0.2692,-0.2692,-0.2692,-0.2692,-0.2692,-0.2692,-0.2692,-0.2692,-0.2692,-0.2695,-0.2695,-0.2701,-0.2694,1.1608,1.1402,1.1518,1.1592,1.1619,1.1619,1.1619,1.1619,1.1619,1.1619,1.1619,1.1633,1.1681,1.1769,1.1837,1.1952,1.2142,1.2196,1.2318,1.24,1.2433,1.2433,1.2494,1.2501,1.2501,1.2501,1.2501,1.2501,1.2501,1.2501,1.2501,1.2508,1.2522,1.2407,1.2514,1.205,1.164,1.1284,1.0947,1.0599,1.0297,1.0297,1.0297,1.0126,1.0121,1.0269,1.0269,1.028,1.0291,1.0302,1.0297,1.0302,1.0302,1.0131,0.9982,1.0008,1.0346,1.0572,1.0639,1.0525,1.0547,1.0447,1.0303,0.9818,0.8953,0.786,0.6838,0.5547,0.4254,0.3121,0.0,0.0,0.0,0.0,0.0,0.0,0.0,0.0,0.0,0.0,0.0,0.0,0.0,0.0,0.0,0.0,0.0,-0.0842,-0.1852,-0.2188,-0.2356,-0.2524,-0.2692,-0.2692,-0.2692,-0.2692,-0.2692,-0.2692,-0.2692,-0.2692,-0.2692,-0.2692,-0.2692,-0.2692,-0.2692,-0.2692,-0.2692,-0.2694,-0.2694,-0.2698,-0.2707,-0.2716,-0.2724,-0.2729,-0.2713,1.2136,1.1782,1.1586,1.1619,1.1619,1.1619,1.1619,1.1619,1.1619,1.1653,1.1708,1.1721,1.1762,1.1877,1.1965,1.2081,1.2291,1.2359,1.2413,1.2481,1.2501,1.2494,1.2501,1.2501,1.2501,1.2501,1.2501,1.2501,1.2515,1.2508,1.2515,1.2583,1.261,1.2671,1.2807,1.2364,1.2103,1.1751,1.1271,1.0969,1.0661,1.046,1.0394,1.0222,1.0228,1.0394,1.0545,1.0545,1.0384,1.0384,1.0367,1.0367,1.0362,1.0201,1.0238,1.0276,1.0476,1.0683,1.076,1.0645,1.0661,1.0549,1.057,1.0206,0.9706,0.8779,0.8119,0.6804,0.5313,0.4165,0.2835,0.0,0.0,0.0,0.0,0.0,0.0,0.0,0.0,0.0,0.0,0.0,0.0,0.0,0.0,0.0,0.0,0.0,0.0,0.0,-0.1851,-0.2188,-0.2524,-0.2692,-0.2692,-0.2692,-0.2692,-0.2692,-0.2692,-0.2692,-0.2692,-0.2692,-0.2692,-0.2692,-0.2692,-0.2692,-0.2692,-0.2701,-0.271,-0.2718,-0.2731,-0.2743,-0.275,-0.2758,-0.2751,1.2768,1.2187,1.1763,1.1619,1.1619,1.1619,1.1619,1.1619,1.164,1.1714,1.183,1.187,1.1884,1.1993,1.2142,1.225,1.2345,1.2427,1.2488,1.2494,1.2501,1.2501,1.2501,1.2501,1.2501,1.2522,1.2542,1.2549,1.2556,1.2596,1.2678,1.2745,1.2793,1.2834,1.2782,1.2675,1.2243,1.2018,1.1576,1.1129,1.0936,1.0552,1.0487,1.0449,1.0433,1.0594,1.0594,1.06,1.0433,1.0443,1.0471,1.0476,1.0476,1.0487,1.0514,1.0558,1.0579,1.0634,1.0693,1.0715,1.0721,1.0737,1.0737,1.057,1.007,0.9569,0.8896,0.7893,0.6385,0.5043,0.37,0.2523,0.1515,0.0,0.0,0.0,0.0,0.0,0.0,0.0,0.0,0.0,0.0,0.0,0.0,0.0,0.0,0.0,0.0,0.0,-0.1179,-0.1684,-0.2189,-0.2357,-0.2692,-0.2692,-0.2692,-0.2692,-0.2692,-0.2692,-0.2692,-0.2692,-0.2692,-0.2692,-0.2692,-0.2697,-0.2707,-0.2718,-0.2728,-0.2742,-0.2751,-0.2765,-0.2782,-0.2789,-0.2795,1.3159,1.2194,1.1763,1.1619,1.1619,1.1619,1.1619,1.164,1.1742,1.1809,1.1904,1.2108,1.2203,1.2203,1.2244,1.2332,1.2433,1.2494,1.2494,1.2501,1.2501,1.2501,1.2515,1.2535,1.2508,1.2549,1.2623,1.2684,1.2691,1.2793,1.2874,1.2915,1.2915,1.2983,1.3105,1.299,1.2703,1.2465,1.2008,1.1706,1.1214,1.1014,1.0688,1.0672,1.0672,1.0672,1.0672,1.0672,1.0672,1.0672,1.065,1.0645,1.0634,1.0623,1.065,1.065,1.0672,1.0693,1.0726,1.0737,1.0737,1.0737,1.0737,1.057,1.0237,1.0075,0.9235,0.8395,0.7056,0.6053,0.471,0.3533,0.2356,0.1683,0.0,0.0,0.0,0.0,0.0,0.0,0.0,0.0,0.0,0.0,0.0,0.0,0.0,0.0,0.0,0.0,0.0,0.0,0.0,-0.2357,-0.2692,-0.2692,-0.2692,-0.2692,-0.2692,-0.2692,-0.2692,-0.2692,-0.2692,-0.2701,-0.2705,-0.2709,-0.2721,-0.2744,-0.2755,-0.2769,-0.2773,-0.2785,-0.2807,-0.2821,-0.2825]}]]